<?xml version="1.0" encoding="UTF-8" standalone="no" ?>
<gpx xmlns="http://www.topografix.com/GPX/1/1" xmlns:xsi="http://www.w3.org/2001/XMLSchema-instance" xsi:schemaLocation="http://www.topografix.com/GPX/1/1 http://www.topografix.com/GPX/1/1/gpx.xsd" version="1.1" creator="VisuGPX - https://www.visugpx.com">
  <metadata>
    <name>Calanque d'en Vau</name>
    <desc><![CDATA[Rando facile,départ parking prés de l'Hôtel du joli bois]]></desc>
  </metadata>
  <trk>
    <name><![CDATA[Calanque d'en Vau_1]]></name>
    <trkseg>
      <trkpt lat="43.23345" lon="5.51336">
        <ele>293</ele>
        <time>2019-10-02T08:30:58Z</time>
      </trkpt>
      <trkpt lat="43.23351" lon="5.51336">
        <ele>292</ele>
        <time>2019-10-02T08:31:04Z</time>
      </trkpt>
      <trkpt lat="43.23355" lon="5.51332">
        <ele>290</ele>
        <time>2019-10-02T08:31:14Z</time>
      </trkpt>
      <trkpt lat="43.23356" lon="5.51323">
        <ele>288</ele>
        <time>2019-10-02T08:31:22Z</time>
      </trkpt>
      <trkpt lat="43.23358" lon="5.51317">
        <ele>286</ele>
        <time>2019-10-02T08:31:28Z</time>
      </trkpt>
      <trkpt lat="43.23363" lon="5.51311">
        <ele>284</ele>
        <time>2019-10-02T08:31:34Z</time>
      </trkpt>
      <trkpt lat="43.23367" lon="5.51306">
        <ele>283</ele>
        <time>2019-10-02T08:31:40Z</time>
      </trkpt>
      <trkpt lat="43.23371" lon="5.513">
        <ele>283</ele>
        <time>2019-10-02T08:31:46Z</time>
      </trkpt>
      <trkpt lat="43.23374" lon="5.51296">
        <ele>284</ele>
        <time>2019-10-02T08:31:52Z</time>
      </trkpt>
      <trkpt lat="43.23378" lon="5.5129">
        <ele>284</ele>
        <time>2019-10-02T08:31:58Z</time>
      </trkpt>
      <trkpt lat="43.23381" lon="5.51284">
        <ele>284</ele>
        <time>2019-10-02T08:32:04Z</time>
      </trkpt>
      <trkpt lat="43.23385" lon="5.51278">
        <ele>283</ele>
        <time>2019-10-02T08:32:10Z</time>
      </trkpt>
      <trkpt lat="43.23388" lon="5.51271">
        <ele>285</ele>
        <time>2019-10-02T08:32:16Z</time>
      </trkpt>
      <trkpt lat="43.23392" lon="5.51265">
        <ele>286</ele>
        <time>2019-10-02T08:32:22Z</time>
      </trkpt>
      <trkpt lat="43.23395" lon="5.51259">
        <ele>282</ele>
        <time>2019-10-02T08:32:28Z</time>
      </trkpt>
      <trkpt lat="43.23398" lon="5.51254">
        <ele>281</ele>
        <time>2019-10-02T08:32:32Z</time>
      </trkpt>
      <trkpt lat="43.23399" lon="5.51247">
        <ele>279</ele>
        <time>2019-10-02T08:32:36Z</time>
      </trkpt>
      <trkpt lat="43.23401" lon="5.51239">
        <ele>277</ele>
        <time>2019-10-02T08:32:42Z</time>
      </trkpt>
      <trkpt lat="43.23401" lon="5.51232">
        <ele>276</ele>
        <time>2019-10-02T08:32:48Z</time>
      </trkpt>
      <trkpt lat="43.23401" lon="5.51224">
        <ele>277</ele>
        <time>2019-10-02T08:32:54Z</time>
      </trkpt>
      <trkpt lat="43.23402" lon="5.51217">
        <ele>277</ele>
        <time>2019-10-02T08:33:00Z</time>
      </trkpt>
      <trkpt lat="43.23405" lon="5.51209">
        <ele>278</ele>
        <time>2019-10-02T08:33:06Z</time>
      </trkpt>
      <trkpt lat="43.23407" lon="5.51203">
        <ele>279</ele>
        <time>2019-10-02T08:33:12Z</time>
      </trkpt>
      <trkpt lat="43.2341" lon="5.51195">
        <ele>278</ele>
        <time>2019-10-02T08:33:18Z</time>
      </trkpt>
      <trkpt lat="43.23411" lon="5.51187">
        <ele>277</ele>
        <time>2019-10-02T08:33:24Z</time>
      </trkpt>
      <trkpt lat="43.23413" lon="5.5118">
        <ele>278</ele>
        <time>2019-10-02T08:33:30Z</time>
      </trkpt>
      <trkpt lat="43.23415" lon="5.51173">
        <ele>277</ele>
        <time>2019-10-02T08:33:36Z</time>
      </trkpt>
      <trkpt lat="43.23416" lon="5.51166">
        <ele>276</ele>
        <time>2019-10-02T08:33:42Z</time>
      </trkpt>
      <trkpt lat="43.23418" lon="5.51158">
        <ele>276</ele>
        <time>2019-10-02T08:33:48Z</time>
      </trkpt>
      <trkpt lat="43.23419" lon="5.51151">
        <ele>278</ele>
        <time>2019-10-02T08:33:54Z</time>
      </trkpt>
      <trkpt lat="43.23421" lon="5.51144">
        <ele>277</ele>
        <time>2019-10-02T08:34:00Z</time>
      </trkpt>
      <trkpt lat="43.23424" lon="5.51136">
        <ele>276</ele>
        <time>2019-10-02T08:34:06Z</time>
      </trkpt>
      <trkpt lat="43.23427" lon="5.51131">
        <ele>274</ele>
        <time>2019-10-02T08:34:10Z</time>
      </trkpt>
      <trkpt lat="43.23429" lon="5.51125">
        <ele>274</ele>
        <time>2019-10-02T08:34:14Z</time>
      </trkpt>
      <trkpt lat="43.23432" lon="5.51118">
        <ele>275</ele>
        <time>2019-10-02T08:34:20Z</time>
      </trkpt>
      <trkpt lat="43.23434" lon="5.51112">
        <ele>275</ele>
        <time>2019-10-02T08:34:26Z</time>
      </trkpt>
      <trkpt lat="43.23438" lon="5.51104">
        <ele>274</ele>
        <time>2019-10-02T08:34:32Z</time>
      </trkpt>
      <trkpt lat="43.2344" lon="5.51096">
        <ele>273</ele>
        <time>2019-10-02T08:34:38Z</time>
      </trkpt>
      <trkpt lat="43.23442" lon="5.51088">
        <ele>273</ele>
        <time>2019-10-02T08:34:44Z</time>
      </trkpt>
      <trkpt lat="43.23444" lon="5.5108">
        <ele>274</ele>
        <time>2019-10-02T08:34:50Z</time>
      </trkpt>
      <trkpt lat="43.23446" lon="5.51073">
        <ele>272</ele>
        <time>2019-10-02T08:34:56Z</time>
      </trkpt>
      <trkpt lat="43.23447" lon="5.51067">
        <ele>273</ele>
        <time>2019-10-02T08:35:00Z</time>
      </trkpt>
      <trkpt lat="43.23448" lon="5.51059">
        <ele>274</ele>
        <time>2019-10-02T08:35:06Z</time>
      </trkpt>
      <trkpt lat="43.2345" lon="5.51052">
        <ele>275</ele>
        <time>2019-10-02T08:35:12Z</time>
      </trkpt>
      <trkpt lat="43.23453" lon="5.51043">
        <ele>276</ele>
        <time>2019-10-02T08:35:18Z</time>
      </trkpt>
      <trkpt lat="43.23456" lon="5.51036">
        <ele>278</ele>
        <time>2019-10-02T08:35:24Z</time>
      </trkpt>
      <trkpt lat="43.23457" lon="5.51028">
        <ele>278</ele>
        <time>2019-10-02T08:35:30Z</time>
      </trkpt>
      <trkpt lat="43.23454" lon="5.5102">
        <ele>276</ele>
        <time>2019-10-02T08:35:36Z</time>
      </trkpt>
      <trkpt lat="43.23451" lon="5.51014">
        <ele>277</ele>
        <time>2019-10-02T08:35:40Z</time>
      </trkpt>
      <trkpt lat="43.23448" lon="5.51008">
        <ele>277</ele>
        <time>2019-10-02T08:35:44Z</time>
      </trkpt>
      <trkpt lat="43.23444" lon="5.51002">
        <ele>276</ele>
        <time>2019-10-02T08:35:50Z</time>
      </trkpt>
      <trkpt lat="43.23441" lon="5.50995">
        <ele>276</ele>
        <time>2019-10-02T08:35:56Z</time>
      </trkpt>
      <trkpt lat="43.23437" lon="5.5099">
        <ele>277</ele>
        <time>2019-10-02T08:36:02Z</time>
      </trkpt>
      <trkpt lat="43.23434" lon="5.50983">
        <ele>277</ele>
        <time>2019-10-02T08:36:10Z</time>
      </trkpt>
      <trkpt lat="43.23432" lon="5.50978">
        <ele>277</ele>
        <time>2019-10-02T08:36:16Z</time>
      </trkpt>
      <trkpt lat="43.23428" lon="5.50971">
        <ele>278</ele>
        <time>2019-10-02T08:36:22Z</time>
      </trkpt>
      <trkpt lat="43.23424" lon="5.50964">
        <ele>278</ele>
        <time>2019-10-02T08:36:28Z</time>
      </trkpt>
      <trkpt lat="43.23422" lon="5.50957">
        <ele>279</ele>
        <time>2019-10-02T08:36:34Z</time>
      </trkpt>
      <trkpt lat="43.23418" lon="5.50951">
        <ele>279</ele>
        <time>2019-10-02T08:36:42Z</time>
      </trkpt>
      <trkpt lat="43.23416" lon="5.50946">
        <ele>279</ele>
        <time>2019-10-02T08:36:48Z</time>
      </trkpt>
      <trkpt lat="43.23412" lon="5.50939">
        <ele>279</ele>
        <time>2019-10-02T08:36:54Z</time>
      </trkpt>
      <trkpt lat="43.23409" lon="5.50934">
        <ele>279</ele>
        <time>2019-10-02T08:37:00Z</time>
      </trkpt>
      <trkpt lat="43.23405" lon="5.50927">
        <ele>279</ele>
        <time>2019-10-02T08:37:06Z</time>
      </trkpt>
      <trkpt lat="43.23401" lon="5.50922">
        <ele>279</ele>
        <time>2019-10-02T08:37:12Z</time>
      </trkpt>
      <trkpt lat="43.23396" lon="5.50917">
        <ele>279</ele>
        <time>2019-10-02T08:37:18Z</time>
      </trkpt>
      <trkpt lat="43.23392" lon="5.50913">
        <ele>278</ele>
        <time>2019-10-02T08:37:34Z</time>
      </trkpt>
      <trkpt lat="43.2339" lon="5.50907">
        <ele>277</ele>
        <time>2019-10-02T08:37:50Z</time>
      </trkpt>
      <trkpt lat="43.2339" lon="5.50901">
        <ele>277</ele>
        <time>2019-10-02T08:37:58Z</time>
      </trkpt>
      <trkpt lat="43.23388" lon="5.50894">
        <ele>277</ele>
        <time>2019-10-02T08:38:08Z</time>
      </trkpt>
      <trkpt lat="43.23386" lon="5.50887">
        <ele>277</ele>
        <time>2019-10-02T08:38:14Z</time>
      </trkpt>
      <trkpt lat="43.23383" lon="5.50882">
        <ele>277</ele>
        <time>2019-10-02T08:38:18Z</time>
      </trkpt>
      <trkpt lat="43.2338" lon="5.50875">
        <ele>277</ele>
        <time>2019-10-02T08:38:24Z</time>
      </trkpt>
      <trkpt lat="43.23379" lon="5.50869">
        <ele>277</ele>
        <time>2019-10-02T08:38:32Z</time>
      </trkpt>
      <trkpt lat="43.23377" lon="5.50862">
        <ele>275</ele>
        <time>2019-10-02T08:38:40Z</time>
      </trkpt>
      <trkpt lat="43.23377" lon="5.50855">
        <ele>274</ele>
        <time>2019-10-02T08:38:48Z</time>
      </trkpt>
      <trkpt lat="43.23373" lon="5.50849">
        <ele>270</ele>
        <time>2019-10-02T08:38:54Z</time>
      </trkpt>
      <trkpt lat="43.23368" lon="5.50846">
        <ele>269</ele>
        <time>2019-10-02T08:39:00Z</time>
      </trkpt>
      <trkpt lat="43.23364" lon="5.50844">
        <ele>265</ele>
        <time>2019-10-02T08:39:06Z</time>
      </trkpt>
      <trkpt lat="43.23359" lon="5.50841">
        <ele>264</ele>
        <time>2019-10-02T08:39:14Z</time>
      </trkpt>
      <trkpt lat="43.23356" lon="5.50836">
        <ele>263</ele>
        <time>2019-10-02T08:39:18Z</time>
      </trkpt>
      <trkpt lat="43.23353" lon="5.50831">
        <ele>263</ele>
        <time>2019-10-02T08:39:26Z</time>
      </trkpt>
      <trkpt lat="43.23349" lon="5.50826">
        <ele>263</ele>
        <time>2019-10-02T08:39:32Z</time>
      </trkpt>
      <trkpt lat="43.23345" lon="5.50821">
        <ele>263</ele>
        <time>2019-10-02T08:39:38Z</time>
      </trkpt>
      <trkpt lat="43.23342" lon="5.50815">
        <ele>263</ele>
        <time>2019-10-02T08:39:44Z</time>
      </trkpt>
      <trkpt lat="43.23341" lon="5.50808">
        <ele>263</ele>
        <time>2019-10-02T08:39:52Z</time>
      </trkpt>
      <trkpt lat="43.23338" lon="5.50802">
        <ele>262</ele>
        <time>2019-10-02T08:39:58Z</time>
      </trkpt>
      <trkpt lat="43.23337" lon="5.50795">
        <ele>263</ele>
        <time>2019-10-02T08:40:12Z</time>
      </trkpt>
      <trkpt lat="43.23334" lon="5.50789">
        <ele>263</ele>
        <time>2019-10-02T08:40:22Z</time>
      </trkpt>
      <trkpt lat="43.23334" lon="5.50781">
        <ele>262</ele>
        <time>2019-10-02T08:40:34Z</time>
      </trkpt>
      <trkpt lat="43.23335" lon="5.50775">
        <ele>259</ele>
        <time>2019-10-02T08:40:40Z</time>
      </trkpt>
      <trkpt lat="43.23333" lon="5.50769">
        <ele>259</ele>
        <time>2019-10-02T08:40:44Z</time>
      </trkpt>
      <trkpt lat="43.23331" lon="5.50762">
        <ele>257</ele>
        <time>2019-10-02T08:40:52Z</time>
      </trkpt>
      <trkpt lat="43.23328" lon="5.50756">
        <ele>253</ele>
        <time>2019-10-02T08:41:02Z</time>
      </trkpt>
      <trkpt lat="43.23331" lon="5.50761">
        <ele>253</ele>
        <time>2019-10-02T08:41:24Z</time>
      </trkpt>
      <trkpt lat="43.23334" lon="5.50766">
        <ele>254</ele>
        <time>2019-10-02T08:41:36Z</time>
      </trkpt>
      <trkpt lat="43.23338" lon="5.5077">
        <ele>255</ele>
        <time>2019-10-02T08:41:58Z</time>
      </trkpt>
      <trkpt lat="43.23342" lon="5.50766">
        <ele>256</ele>
        <time>2019-10-02T08:42:08Z</time>
      </trkpt>
      <trkpt lat="43.23342" lon="5.50759">
        <ele>262</ele>
        <time>2019-10-02T08:42:18Z</time>
      </trkpt>
      <trkpt lat="43.2334" lon="5.50754">
        <ele>264</ele>
        <time>2019-10-02T08:42:24Z</time>
      </trkpt>
      <trkpt lat="43.23338" lon="5.50747">
        <ele>262</ele>
        <time>2019-10-02T08:42:36Z</time>
      </trkpt>
      <trkpt lat="43.23337" lon="5.50741">
        <ele>263</ele>
        <time>2019-10-02T08:42:48Z</time>
      </trkpt>
      <trkpt lat="43.23335" lon="5.50734">
        <ele>264</ele>
        <time>2019-10-02T08:42:54Z</time>
      </trkpt>
      <trkpt lat="43.2333" lon="5.50728">
        <ele>262</ele>
        <time>2019-10-02T08:43:04Z</time>
      </trkpt>
      <trkpt lat="43.23326" lon="5.50723">
        <ele>263</ele>
        <time>2019-10-02T08:43:14Z</time>
      </trkpt>
      <trkpt lat="43.23324" lon="5.50716">
        <ele>256</ele>
        <time>2019-10-02T08:43:20Z</time>
      </trkpt>
      <trkpt lat="43.23322" lon="5.50709">
        <ele>253</ele>
        <time>2019-10-02T08:43:24Z</time>
      </trkpt>
      <trkpt lat="43.2332" lon="5.50703">
        <ele>250</ele>
        <time>2019-10-02T08:43:30Z</time>
      </trkpt>
      <trkpt lat="43.23318" lon="5.50698">
        <ele>245</ele>
        <time>2019-10-02T08:43:48Z</time>
      </trkpt>
      <trkpt lat="43.23313" lon="5.50694">
        <ele>239</ele>
        <time>2019-10-02T08:44:06Z</time>
      </trkpt>
      <trkpt lat="43.23309" lon="5.5069">
        <ele>236</ele>
        <time>2019-10-02T08:44:16Z</time>
      </trkpt>
      <trkpt lat="43.23308" lon="5.50683">
        <ele>236</ele>
        <time>2019-10-02T08:44:38Z</time>
      </trkpt>
      <trkpt lat="43.23304" lon="5.50679">
        <ele>235</ele>
        <time>2019-10-02T08:44:46Z</time>
      </trkpt>
      <trkpt lat="43.23297" lon="5.50678">
        <ele>232</ele>
        <time>2019-10-02T08:44:52Z</time>
      </trkpt>
      <trkpt lat="43.23293" lon="5.50683">
        <ele>232</ele>
        <time>2019-10-02T08:44:58Z</time>
      </trkpt>
      <trkpt lat="43.23289" lon="5.50684">
        <ele>230</ele>
        <time>2019-10-02T08:45:04Z</time>
      </trkpt>
      <trkpt lat="43.23284" lon="5.50686">
        <ele>229</ele>
        <time>2019-10-02T08:45:12Z</time>
      </trkpt>
      <trkpt lat="43.23278" lon="5.50684">
        <ele>234</ele>
        <time>2019-10-02T08:45:24Z</time>
      </trkpt>
      <trkpt lat="43.23273" lon="5.50685">
        <ele>236</ele>
        <time>2019-10-02T08:45:32Z</time>
      </trkpt>
      <trkpt lat="43.23268" lon="5.50686">
        <ele>234</ele>
        <time>2019-10-02T08:45:40Z</time>
      </trkpt>
      <trkpt lat="43.23262" lon="5.50688">
        <ele>233</ele>
        <time>2019-10-02T08:45:46Z</time>
      </trkpt>
      <trkpt lat="43.23257" lon="5.50689">
        <ele>235</ele>
        <time>2019-10-02T08:45:52Z</time>
      </trkpt>
      <trkpt lat="43.23251" lon="5.50688">
        <ele>235</ele>
        <time>2019-10-02T08:45:58Z</time>
      </trkpt>
      <trkpt lat="43.23246" lon="5.50686">
        <ele>237</ele>
        <time>2019-10-02T08:46:04Z</time>
      </trkpt>
      <trkpt lat="43.23241" lon="5.50689">
        <ele>237</ele>
        <time>2019-10-02T08:46:12Z</time>
      </trkpt>
      <trkpt lat="43.23236" lon="5.50691">
        <ele>237</ele>
        <time>2019-10-02T08:46:20Z</time>
      </trkpt>
      <trkpt lat="43.23231" lon="5.50693">
        <ele>237</ele>
        <time>2019-10-02T08:46:26Z</time>
      </trkpt>
      <trkpt lat="43.23226" lon="5.50696">
        <ele>236</ele>
        <time>2019-10-02T08:46:34Z</time>
      </trkpt>
      <trkpt lat="43.23222" lon="5.507">
        <ele>237</ele>
        <time>2019-10-02T08:46:42Z</time>
      </trkpt>
      <trkpt lat="43.23217" lon="5.50702">
        <ele>234</ele>
        <time>2019-10-02T08:46:52Z</time>
      </trkpt>
      <trkpt lat="43.23212" lon="5.50705">
        <ele>229</ele>
        <time>2019-10-02T08:47:00Z</time>
      </trkpt>
      <trkpt lat="43.23207" lon="5.50707">
        <ele>234</ele>
        <time>2019-10-02T08:47:10Z</time>
      </trkpt>
      <trkpt lat="43.23202" lon="5.50704">
        <ele>239</ele>
        <time>2019-10-02T08:47:20Z</time>
      </trkpt>
      <trkpt lat="43.23197" lon="5.50699">
        <ele>235</ele>
        <time>2019-10-02T08:47:26Z</time>
      </trkpt>
      <trkpt lat="43.23194" lon="5.50695">
        <ele>233</ele>
        <time>2019-10-02T08:47:32Z</time>
      </trkpt>
      <trkpt lat="43.2319" lon="5.5069">
        <ele>232</ele>
        <time>2019-10-02T08:47:40Z</time>
      </trkpt>
      <trkpt lat="43.23186" lon="5.50686">
        <ele>232</ele>
        <time>2019-10-02T08:47:48Z</time>
      </trkpt>
      <trkpt lat="43.23183" lon="5.50681">
        <ele>227</ele>
        <time>2019-10-02T08:47:52Z</time>
      </trkpt>
      <trkpt lat="43.23179" lon="5.50678">
        <ele>228</ele>
        <time>2019-10-02T08:47:58Z</time>
      </trkpt>
      <trkpt lat="43.23174" lon="5.50677">
        <ele>228</ele>
        <time>2019-10-02T08:48:04Z</time>
      </trkpt>
      <trkpt lat="43.23169" lon="5.50674">
        <ele>224</ele>
        <time>2019-10-02T08:48:10Z</time>
      </trkpt>
      <trkpt lat="43.23164" lon="5.50671">
        <ele>220</ele>
        <time>2019-10-02T08:48:16Z</time>
      </trkpt>
      <trkpt lat="43.23157" lon="5.5067">
        <ele>216</ele>
        <time>2019-10-02T08:48:22Z</time>
      </trkpt>
      <trkpt lat="43.23152" lon="5.50671">
        <ele>219</ele>
        <time>2019-10-02T08:48:30Z</time>
      </trkpt>
      <trkpt lat="43.23146" lon="5.50675">
        <ele>218</ele>
        <time>2019-10-02T08:48:38Z</time>
      </trkpt>
      <trkpt lat="43.23141" lon="5.50676">
        <ele>223</ele>
        <time>2019-10-02T08:48:44Z</time>
      </trkpt>
      <trkpt lat="43.23137" lon="5.50676">
        <ele>224</ele>
        <time>2019-10-02T08:48:50Z</time>
      </trkpt>
      <trkpt lat="43.23132" lon="5.5068">
        <ele>222</ele>
        <time>2019-10-02T08:49:00Z</time>
      </trkpt>
      <trkpt lat="43.23127" lon="5.5068">
        <ele>220</ele>
        <time>2019-10-02T08:49:06Z</time>
      </trkpt>
      <trkpt lat="43.23122" lon="5.50681">
        <ele>219</ele>
        <time>2019-10-02T08:49:12Z</time>
      </trkpt>
      <trkpt lat="43.23117" lon="5.50686">
        <ele>221</ele>
        <time>2019-10-02T08:49:20Z</time>
      </trkpt>
      <trkpt lat="43.23113" lon="5.5069">
        <ele>222</ele>
        <time>2019-10-02T08:49:26Z</time>
      </trkpt>
      <trkpt lat="43.23108" lon="5.50691">
        <ele>226</ele>
        <time>2019-10-02T08:49:34Z</time>
      </trkpt>
      <trkpt lat="43.23103" lon="5.50692">
        <ele>227</ele>
        <time>2019-10-02T08:49:40Z</time>
      </trkpt>
      <trkpt lat="43.23098" lon="5.50694">
        <ele>226</ele>
        <time>2019-10-02T08:49:46Z</time>
      </trkpt>
      <trkpt lat="43.23093" lon="5.50696">
        <ele>224</ele>
        <time>2019-10-02T08:49:56Z</time>
      </trkpt>
      <trkpt lat="43.23087" lon="5.50699">
        <ele>223</ele>
        <time>2019-10-02T08:50:04Z</time>
      </trkpt>
      <trkpt lat="43.23082" lon="5.50698">
        <ele>221</ele>
        <time>2019-10-02T08:50:10Z</time>
      </trkpt>
      <trkpt lat="43.23077" lon="5.50696">
        <ele>221</ele>
        <time>2019-10-02T08:50:22Z</time>
      </trkpt>
      <trkpt lat="43.23075" lon="5.50691">
        <ele>219</ele>
        <time>2019-10-02T08:50:38Z</time>
      </trkpt>
      <trkpt lat="43.23071" lon="5.50684">
        <ele>216</ele>
        <time>2019-10-02T08:50:46Z</time>
      </trkpt>
      <trkpt lat="43.2307" lon="5.50678">
        <ele>214</ele>
        <time>2019-10-02T08:50:52Z</time>
      </trkpt>
      <trkpt lat="43.23067" lon="5.50671">
        <ele>214</ele>
        <time>2019-10-02T08:51:00Z</time>
      </trkpt>
      <trkpt lat="43.23064" lon="5.50667">
        <ele>214</ele>
        <time>2019-10-02T08:51:06Z</time>
      </trkpt>
      <trkpt lat="43.23061" lon="5.50661">
        <ele>214</ele>
        <time>2019-10-02T08:51:10Z</time>
      </trkpt>
      <trkpt lat="43.23058" lon="5.50657">
        <ele>213</ele>
        <time>2019-10-02T08:51:16Z</time>
      </trkpt>
      <trkpt lat="43.23054" lon="5.50652">
        <ele>213</ele>
        <time>2019-10-02T08:51:26Z</time>
      </trkpt>
      <trkpt lat="43.23049" lon="5.50649">
        <ele>215</ele>
        <time>2019-10-02T08:51:34Z</time>
      </trkpt>
      <trkpt lat="43.23044" lon="5.50644">
        <ele>215</ele>
        <time>2019-10-02T08:51:40Z</time>
      </trkpt>
      <trkpt lat="43.2304" lon="5.50641">
        <ele>214</ele>
        <time>2019-10-02T08:51:44Z</time>
      </trkpt>
      <trkpt lat="43.23037" lon="5.50638">
        <ele>212</ele>
        <time>2019-10-02T08:51:50Z</time>
      </trkpt>
      <trkpt lat="43.23032" lon="5.50636">
        <ele>210</ele>
        <time>2019-10-02T08:52:00Z</time>
      </trkpt>
      <trkpt lat="43.23028" lon="5.5063">
        <ele>210</ele>
        <time>2019-10-02T08:52:10Z</time>
      </trkpt>
      <trkpt lat="43.23033" lon="5.50627">
        <ele>208</ele>
        <time>2019-10-02T08:52:20Z</time>
      </trkpt>
      <trkpt lat="43.23037" lon="5.50622">
        <ele>210</ele>
        <time>2019-10-02T08:52:28Z</time>
      </trkpt>
      <trkpt lat="43.23042" lon="5.50619">
        <ele>210</ele>
        <time>2019-10-02T08:52:34Z</time>
      </trkpt>
      <trkpt lat="43.23047" lon="5.50616">
        <ele>208</ele>
        <time>2019-10-02T08:52:40Z</time>
      </trkpt>
      <trkpt lat="43.23052" lon="5.50612">
        <ele>208</ele>
        <time>2019-10-02T08:52:50Z</time>
      </trkpt>
      <trkpt lat="43.23057" lon="5.5061">
        <ele>209</ele>
        <time>2019-10-02T08:52:56Z</time>
      </trkpt>
      <trkpt lat="43.23062" lon="5.50609">
        <ele>207</ele>
        <time>2019-10-02T08:53:02Z</time>
      </trkpt>
      <trkpt lat="43.23067" lon="5.5061">
        <ele>206</ele>
        <time>2019-10-02T08:53:08Z</time>
      </trkpt>
      <trkpt lat="43.23072" lon="5.50614">
        <ele>205</ele>
        <time>2019-10-02T08:53:14Z</time>
      </trkpt>
      <trkpt lat="43.23077" lon="5.5062">
        <ele>206</ele>
        <time>2019-10-02T08:53:20Z</time>
      </trkpt>
      <trkpt lat="43.2308" lon="5.50626">
        <ele>206</ele>
        <time>2019-10-02T08:53:26Z</time>
      </trkpt>
      <trkpt lat="43.23083" lon="5.50632">
        <ele>207</ele>
        <time>2019-10-02T08:53:32Z</time>
      </trkpt>
      <trkpt lat="43.23088" lon="5.50638">
        <ele>210</ele>
        <time>2019-10-02T08:53:38Z</time>
      </trkpt>
      <trkpt lat="43.23094" lon="5.5064">
        <ele>210</ele>
        <time>2019-10-02T08:53:46Z</time>
      </trkpt>
      <trkpt lat="43.23098" lon="5.50641">
        <ele>214</ele>
        <time>2019-10-02T08:53:52Z</time>
      </trkpt>
      <trkpt lat="43.23103" lon="5.50638">
        <ele>214</ele>
        <time>2019-10-02T08:53:58Z</time>
      </trkpt>
      <trkpt lat="43.23106" lon="5.50632">
        <ele>215</ele>
        <time>2019-10-02T08:54:06Z</time>
      </trkpt>
      <trkpt lat="43.23103" lon="5.50626">
        <ele>215</ele>
        <time>2019-10-02T08:54:48Z</time>
      </trkpt>
      <trkpt lat="43.23106" lon="5.50621">
        <ele>217</ele>
        <time>2019-10-02T08:55:22Z</time>
      </trkpt>
      <trkpt lat="43.23107" lon="5.50614">
        <ele>215</ele>
        <time>2019-10-02T08:55:30Z</time>
      </trkpt>
      <trkpt lat="43.2311" lon="5.50608">
        <ele>215</ele>
        <time>2019-10-02T08:55:36Z</time>
      </trkpt>
      <trkpt lat="43.23113" lon="5.50601">
        <ele>217</ele>
        <time>2019-10-02T08:55:42Z</time>
      </trkpt>
      <trkpt lat="43.23115" lon="5.50593">
        <ele>217</ele>
        <time>2019-10-02T08:55:48Z</time>
      </trkpt>
      <trkpt lat="43.23116" lon="5.50588">
        <ele>216</ele>
        <time>2019-10-02T08:55:54Z</time>
      </trkpt>
      <trkpt lat="43.23118" lon="5.50582">
        <ele>217</ele>
        <time>2019-10-02T08:56:00Z</time>
      </trkpt>
      <trkpt lat="43.2312" lon="5.50576">
        <ele>216</ele>
        <time>2019-10-02T08:56:06Z</time>
      </trkpt>
      <trkpt lat="43.23121" lon="5.50568">
        <ele>216</ele>
        <time>2019-10-02T08:56:12Z</time>
      </trkpt>
      <trkpt lat="43.23121" lon="5.50561">
        <ele>216</ele>
        <time>2019-10-02T08:56:16Z</time>
      </trkpt>
      <trkpt lat="43.23123" lon="5.50553">
        <ele>217</ele>
        <time>2019-10-02T08:56:22Z</time>
      </trkpt>
      <trkpt lat="43.23125" lon="5.50546">
        <ele>216</ele>
        <time>2019-10-02T08:56:28Z</time>
      </trkpt>
      <trkpt lat="43.23129" lon="5.50542">
        <ele>217</ele>
        <time>2019-10-02T08:56:34Z</time>
      </trkpt>
      <trkpt lat="43.23132" lon="5.50537">
        <ele>217</ele>
        <time>2019-10-02T08:56:40Z</time>
      </trkpt>
      <trkpt lat="43.23133" lon="5.50531">
        <ele>217</ele>
        <time>2019-10-02T08:56:46Z</time>
      </trkpt>
      <trkpt lat="43.23134" lon="5.50523">
        <ele>220</ele>
        <time>2019-10-02T08:56:54Z</time>
      </trkpt>
      <trkpt lat="43.23134" lon="5.50516">
        <ele>219</ele>
        <time>2019-10-02T08:56:58Z</time>
      </trkpt>
      <trkpt lat="43.23134" lon="5.50509">
        <ele>220</ele>
        <time>2019-10-02T08:57:02Z</time>
      </trkpt>
      <trkpt lat="43.23132" lon="5.50502">
        <ele>222</ele>
        <time>2019-10-02T08:57:08Z</time>
      </trkpt>
      <trkpt lat="43.2313" lon="5.50497">
        <ele>222</ele>
        <time>2019-10-02T08:57:12Z</time>
      </trkpt>
      <trkpt lat="43.23127" lon="5.5049">
        <ele>222</ele>
        <time>2019-10-02T08:57:18Z</time>
      </trkpt>
      <trkpt lat="43.23125" lon="5.50483">
        <ele>221</ele>
        <time>2019-10-02T08:57:26Z</time>
      </trkpt>
      <trkpt lat="43.23122" lon="5.50478">
        <ele>222</ele>
        <time>2019-10-02T08:57:32Z</time>
      </trkpt>
      <trkpt lat="43.23117" lon="5.50475">
        <ele>220</ele>
        <time>2019-10-02T08:57:38Z</time>
      </trkpt>
      <trkpt lat="43.23112" lon="5.50473">
        <ele>222</ele>
        <time>2019-10-02T08:57:46Z</time>
      </trkpt>
      <trkpt lat="43.23107" lon="5.50469">
        <ele>221</ele>
        <time>2019-10-02T08:57:52Z</time>
      </trkpt>
      <trkpt lat="43.23104" lon="5.50464">
        <ele>218</ele>
        <time>2019-10-02T08:57:58Z</time>
      </trkpt>
      <trkpt lat="43.23101" lon="5.50456">
        <ele>219</ele>
        <time>2019-10-02T08:58:04Z</time>
      </trkpt>
      <trkpt lat="43.23101" lon="5.50448">
        <ele>217</ele>
        <time>2019-10-02T08:58:10Z</time>
      </trkpt>
      <trkpt lat="43.231" lon="5.50442">
        <ele>218</ele>
        <time>2019-10-02T08:58:14Z</time>
      </trkpt>
      <trkpt lat="43.23098" lon="5.50436">
        <ele>219</ele>
        <time>2019-10-02T08:58:20Z</time>
      </trkpt>
      <trkpt lat="43.23098" lon="5.50428">
        <ele>218</ele>
        <time>2019-10-02T08:58:26Z</time>
      </trkpt>
      <trkpt lat="43.23097" lon="5.50419">
        <ele>219</ele>
        <time>2019-10-02T08:58:32Z</time>
      </trkpt>
      <trkpt lat="43.23097" lon="5.50411">
        <ele>219</ele>
        <time>2019-10-02T08:58:38Z</time>
      </trkpt>
      <trkpt lat="43.23098" lon="5.50402">
        <ele>217</ele>
        <time>2019-10-02T08:58:44Z</time>
      </trkpt>
      <trkpt lat="43.23099" lon="5.50396">
        <ele>218</ele>
        <time>2019-10-02T08:58:50Z</time>
      </trkpt>
      <trkpt lat="43.23101" lon="5.5039">
        <ele>216</ele>
        <time>2019-10-02T08:58:56Z</time>
      </trkpt>
      <trkpt lat="43.23103" lon="5.50382">
        <ele>216</ele>
        <time>2019-10-02T08:59:02Z</time>
      </trkpt>
      <trkpt lat="43.23106" lon="5.50376">
        <ele>217</ele>
        <time>2019-10-02T08:59:08Z</time>
      </trkpt>
      <trkpt lat="43.23109" lon="5.50367">
        <ele>218</ele>
        <time>2019-10-02T08:59:14Z</time>
      </trkpt>
      <trkpt lat="43.23109" lon="5.5036">
        <ele>216</ele>
        <time>2019-10-02T08:59:20Z</time>
      </trkpt>
      <trkpt lat="43.23111" lon="5.50353">
        <ele>218</ele>
        <time>2019-10-02T08:59:26Z</time>
      </trkpt>
      <trkpt lat="43.23113" lon="5.50346">
        <ele>218</ele>
        <time>2019-10-02T08:59:34Z</time>
      </trkpt>
      <trkpt lat="43.23115" lon="5.50339">
        <ele>220</ele>
        <time>2019-10-02T08:59:40Z</time>
      </trkpt>
      <trkpt lat="43.23116" lon="5.50331">
        <ele>219</ele>
        <time>2019-10-02T08:59:46Z</time>
      </trkpt>
      <trkpt lat="43.23118" lon="5.50324">
        <ele>220</ele>
        <time>2019-10-02T08:59:52Z</time>
      </trkpt>
      <trkpt lat="43.2312" lon="5.50318">
        <ele>222</ele>
        <time>2019-10-02T08:59:56Z</time>
      </trkpt>
      <trkpt lat="43.23122" lon="5.50309">
        <ele>223</ele>
        <time>2019-10-02T09:00:02Z</time>
      </trkpt>
      <trkpt lat="43.23122" lon="5.50302">
        <ele>224</ele>
        <time>2019-10-02T09:00:08Z</time>
      </trkpt>
      <trkpt lat="43.23123" lon="5.50294">
        <ele>221</ele>
        <time>2019-10-02T09:00:14Z</time>
      </trkpt>
      <trkpt lat="43.23126" lon="5.50287">
        <ele>222</ele>
        <time>2019-10-02T09:00:20Z</time>
      </trkpt>
      <trkpt lat="43.23127" lon="5.50281">
        <ele>222</ele>
        <time>2019-10-02T09:00:24Z</time>
      </trkpt>
      <trkpt lat="43.23128" lon="5.50273">
        <ele>223</ele>
        <time>2019-10-02T09:00:30Z</time>
      </trkpt>
      <trkpt lat="43.2313" lon="5.50264">
        <ele>223</ele>
        <time>2019-10-02T09:00:36Z</time>
      </trkpt>
      <trkpt lat="43.23129" lon="5.50257">
        <ele>224</ele>
        <time>2019-10-02T09:00:42Z</time>
      </trkpt>
      <trkpt lat="43.23128" lon="5.50248">
        <ele>224</ele>
        <time>2019-10-02T09:00:48Z</time>
      </trkpt>
      <trkpt lat="43.23126" lon="5.50241">
        <ele>223</ele>
        <time>2019-10-02T09:00:54Z</time>
      </trkpt>
      <trkpt lat="43.23126" lon="5.50233">
        <ele>222</ele>
        <time>2019-10-02T09:01:00Z</time>
      </trkpt>
      <trkpt lat="43.23125" lon="5.50225">
        <ele>220</ele>
        <time>2019-10-02T09:01:06Z</time>
      </trkpt>
      <trkpt lat="43.23123" lon="5.50218">
        <ele>222</ele>
        <time>2019-10-02T09:01:12Z</time>
      </trkpt>
      <trkpt lat="43.2312" lon="5.5021">
        <ele>223</ele>
        <time>2019-10-02T09:01:18Z</time>
      </trkpt>
      <trkpt lat="43.23118" lon="5.50202">
        <ele>222</ele>
        <time>2019-10-02T09:01:24Z</time>
      </trkpt>
      <trkpt lat="43.23117" lon="5.50195">
        <ele>224</ele>
        <time>2019-10-02T09:01:32Z</time>
      </trkpt>
      <trkpt lat="43.23115" lon="5.50186">
        <ele>223</ele>
        <time>2019-10-02T09:01:38Z</time>
      </trkpt>
      <trkpt lat="43.23117" lon="5.50179">
        <ele>221</ele>
        <time>2019-10-02T09:01:44Z</time>
      </trkpt>
      <trkpt lat="43.23119" lon="5.50171">
        <ele>222</ele>
        <time>2019-10-02T09:01:50Z</time>
      </trkpt>
      <trkpt lat="43.23121" lon="5.50166">
        <ele>223</ele>
        <time>2019-10-02T09:01:56Z</time>
      </trkpt>
      <trkpt lat="43.23125" lon="5.5016">
        <ele>226</ele>
        <time>2019-10-02T09:02:02Z</time>
      </trkpt>
      <trkpt lat="43.23129" lon="5.50153">
        <ele>228</ele>
        <time>2019-10-02T09:02:10Z</time>
      </trkpt>
      <trkpt lat="43.2313" lon="5.50147">
        <ele>229</ele>
        <time>2019-10-02T09:02:16Z</time>
      </trkpt>
      <trkpt lat="43.23134" lon="5.50142">
        <ele>230</ele>
        <time>2019-10-02T09:02:26Z</time>
      </trkpt>
      <trkpt lat="43.23135" lon="5.50133">
        <ele>226</ele>
        <time>2019-10-02T09:03:20Z</time>
      </trkpt>
      <trkpt lat="43.23136" lon="5.50127">
        <ele>229</ele>
        <time>2019-10-02T09:05:54Z</time>
      </trkpt>
      <trkpt lat="43.23134" lon="5.50121">
        <ele>226</ele>
        <time>2019-10-02T09:10:06Z</time>
      </trkpt>
      <trkpt lat="43.23131" lon="5.50115">
        <ele>226</ele>
        <time>2019-10-02T09:10:12Z</time>
      </trkpt>
      <trkpt lat="43.23129" lon="5.50109">
        <ele>228</ele>
        <time>2019-10-02T09:10:18Z</time>
      </trkpt>
      <trkpt lat="43.23128" lon="5.50102">
        <ele>227</ele>
        <time>2019-10-02T09:10:24Z</time>
      </trkpt>
      <trkpt lat="43.23124" lon="5.50097">
        <ele>226</ele>
        <time>2019-10-02T09:10:28Z</time>
      </trkpt>
      <trkpt lat="43.23124" lon="5.50091">
        <ele>228</ele>
        <time>2019-10-02T09:10:34Z</time>
      </trkpt>
      <trkpt lat="43.23123" lon="5.50083">
        <ele>231</ele>
        <time>2019-10-02T09:10:40Z</time>
      </trkpt>
      <trkpt lat="43.23121" lon="5.50075">
        <ele>231</ele>
        <time>2019-10-02T09:10:46Z</time>
      </trkpt>
      <trkpt lat="43.23118" lon="5.50067">
        <ele>231</ele>
        <time>2019-10-02T09:10:52Z</time>
      </trkpt>
      <trkpt lat="43.23116" lon="5.5006">
        <ele>233</ele>
        <time>2019-10-02T09:10:58Z</time>
      </trkpt>
      <trkpt lat="43.23113" lon="5.50053">
        <ele>229</ele>
        <time>2019-10-02T09:11:04Z</time>
      </trkpt>
      <trkpt lat="43.2311" lon="5.50048">
        <ele>230</ele>
        <time>2019-10-02T09:11:08Z</time>
      </trkpt>
      <trkpt lat="43.23107" lon="5.50041">
        <ele>231</ele>
        <time>2019-10-02T09:11:14Z</time>
      </trkpt>
      <trkpt lat="43.23104" lon="5.50035">
        <ele>231</ele>
        <time>2019-10-02T09:11:20Z</time>
      </trkpt>
      <trkpt lat="43.23099" lon="5.50033">
        <ele>227</ele>
        <time>2019-10-02T09:11:24Z</time>
      </trkpt>
      <trkpt lat="43.23093" lon="5.50034">
        <ele>226</ele>
        <time>2019-10-02T09:11:30Z</time>
      </trkpt>
      <trkpt lat="43.23088" lon="5.50034">
        <ele>223</ele>
        <time>2019-10-02T09:11:38Z</time>
      </trkpt>
      <trkpt lat="43.23083" lon="5.50031">
        <ele>222</ele>
        <time>2019-10-02T09:11:44Z</time>
      </trkpt>
      <trkpt lat="43.23078" lon="5.50026">
        <ele>222</ele>
        <time>2019-10-02T09:11:52Z</time>
      </trkpt>
      <trkpt lat="43.23074" lon="5.50022">
        <ele>222</ele>
        <time>2019-10-02T09:11:58Z</time>
      </trkpt>
      <trkpt lat="43.23069" lon="5.5002">
        <ele>221</ele>
        <time>2019-10-02T09:12:06Z</time>
      </trkpt>
      <trkpt lat="43.23064" lon="5.50019">
        <ele>224</ele>
        <time>2019-10-02T09:12:12Z</time>
      </trkpt>
      <trkpt lat="43.2306" lon="5.50016">
        <ele>225</ele>
        <time>2019-10-02T09:12:18Z</time>
      </trkpt>
      <trkpt lat="43.23056" lon="5.50015">
        <ele>228</ele>
        <time>2019-10-02T09:12:24Z</time>
      </trkpt>
      <trkpt lat="43.23049" lon="5.50013">
        <ele>227</ele>
        <time>2019-10-02T09:12:30Z</time>
      </trkpt>
      <trkpt lat="43.23044" lon="5.5001">
        <ele>228</ele>
        <time>2019-10-02T09:12:36Z</time>
      </trkpt>
      <trkpt lat="43.23038" lon="5.50008">
        <ele>227</ele>
        <time>2019-10-02T09:12:42Z</time>
      </trkpt>
      <trkpt lat="43.23033" lon="5.50005">
        <ele>226</ele>
        <time>2019-10-02T09:12:48Z</time>
      </trkpt>
      <trkpt lat="43.23028" lon="5.50003">
        <ele>229</ele>
        <time>2019-10-02T09:12:54Z</time>
      </trkpt>
      <trkpt lat="43.23023" lon="5.50001">
        <ele>229</ele>
        <time>2019-10-02T09:13:00Z</time>
      </trkpt>
      <trkpt lat="43.23018" lon="5.49998">
        <ele>232</ele>
        <time>2019-10-02T09:13:08Z</time>
      </trkpt>
      <trkpt lat="43.23012" lon="5.49996">
        <ele>232</ele>
        <time>2019-10-02T09:13:14Z</time>
      </trkpt>
      <trkpt lat="43.23007" lon="5.49995">
        <ele>231</ele>
        <time>2019-10-02T09:13:22Z</time>
      </trkpt>
      <trkpt lat="43.23001" lon="5.49996">
        <ele>231</ele>
        <time>2019-10-02T09:13:30Z</time>
      </trkpt>
      <trkpt lat="43.22996" lon="5.49997">
        <ele>232</ele>
        <time>2019-10-02T09:13:38Z</time>
      </trkpt>
      <trkpt lat="43.22992" lon="5.49999">
        <ele>231</ele>
        <time>2019-10-02T09:13:44Z</time>
      </trkpt>
      <trkpt lat="43.22986" lon="5.50001">
        <ele>234</ele>
        <time>2019-10-02T09:13:50Z</time>
      </trkpt>
      <trkpt lat="43.22982" lon="5.50004">
        <ele>234</ele>
        <time>2019-10-02T09:13:56Z</time>
      </trkpt>
      <trkpt lat="43.22977" lon="5.50003">
        <ele>237</ele>
        <time>2019-10-02T09:14:04Z</time>
      </trkpt>
      <trkpt lat="43.22972" lon="5.50002">
        <ele>240</ele>
        <time>2019-10-02T09:14:12Z</time>
      </trkpt>
      <trkpt lat="43.22966" lon="5.50001">
        <ele>239</ele>
        <time>2019-10-02T09:14:20Z</time>
      </trkpt>
      <trkpt lat="43.22962" lon="5.50006">
        <ele>242</ele>
        <time>2019-10-02T09:14:26Z</time>
      </trkpt>
      <trkpt lat="43.22963" lon="5.50013">
        <ele>242</ele>
        <time>2019-10-02T09:14:32Z</time>
      </trkpt>
      <trkpt lat="43.22968" lon="5.50017">
        <ele>243</ele>
        <time>2019-10-02T09:14:38Z</time>
      </trkpt>
      <trkpt lat="43.22972" lon="5.50022">
        <ele>243</ele>
        <time>2019-10-02T09:14:44Z</time>
      </trkpt>
      <trkpt lat="43.22975" lon="5.50028">
        <ele>243</ele>
        <time>2019-10-02T09:14:52Z</time>
      </trkpt>
      <trkpt lat="43.22977" lon="5.50035">
        <ele>243</ele>
        <time>2019-10-02T09:15:00Z</time>
      </trkpt>
      <trkpt lat="43.2298" lon="5.50041">
        <ele>243</ele>
        <time>2019-10-02T09:15:06Z</time>
      </trkpt>
      <trkpt lat="43.22981" lon="5.50047">
        <ele>244</ele>
        <time>2019-10-02T09:15:12Z</time>
      </trkpt>
      <trkpt lat="43.22983" lon="5.50055">
        <ele>246</ele>
        <time>2019-10-02T09:15:20Z</time>
      </trkpt>
      <trkpt lat="43.22982" lon="5.50063">
        <ele>245</ele>
        <time>2019-10-02T09:15:28Z</time>
      </trkpt>
      <trkpt lat="43.2298" lon="5.50069">
        <ele>246</ele>
        <time>2019-10-02T09:15:36Z</time>
      </trkpt>
      <trkpt lat="43.22978" lon="5.50075">
        <ele>247</ele>
        <time>2019-10-02T09:15:42Z</time>
      </trkpt>
      <trkpt lat="43.22977" lon="5.50082">
        <ele>247</ele>
        <time>2019-10-02T09:15:48Z</time>
      </trkpt>
      <trkpt lat="43.22976" lon="5.50088">
        <ele>248</ele>
        <time>2019-10-02T09:15:54Z</time>
      </trkpt>
      <trkpt lat="43.22977" lon="5.50096">
        <ele>245</ele>
        <time>2019-10-02T09:16:00Z</time>
      </trkpt>
      <trkpt lat="43.22979" lon="5.50104">
        <ele>248</ele>
        <time>2019-10-02T09:16:06Z</time>
      </trkpt>
      <trkpt lat="43.2298" lon="5.5011">
        <ele>249</ele>
        <time>2019-10-02T09:16:12Z</time>
      </trkpt>
      <trkpt lat="43.22982" lon="5.50116">
        <ele>250</ele>
        <time>2019-10-02T09:16:20Z</time>
      </trkpt>
      <trkpt lat="43.22985" lon="5.50122">
        <ele>251</ele>
        <time>2019-10-02T09:16:26Z</time>
      </trkpt>
      <trkpt lat="43.22988" lon="5.50129">
        <ele>252</ele>
        <time>2019-10-02T09:16:34Z</time>
      </trkpt>
      <trkpt lat="43.22991" lon="5.50136">
        <ele>255</ele>
        <time>2019-10-02T09:16:42Z</time>
      </trkpt>
      <trkpt lat="43.22994" lon="5.50143">
        <ele>256</ele>
        <time>2019-10-02T09:16:48Z</time>
      </trkpt>
      <trkpt lat="43.22995" lon="5.50149">
        <ele>254</ele>
        <time>2019-10-02T09:16:56Z</time>
      </trkpt>
      <trkpt lat="43.22996" lon="5.50155">
        <ele>255</ele>
        <time>2019-10-02T09:17:02Z</time>
      </trkpt>
      <trkpt lat="43.22993" lon="5.50161">
        <ele>255</ele>
        <time>2019-10-02T09:17:16Z</time>
      </trkpt>
      <trkpt lat="43.22991" lon="5.50167">
        <ele>257</ele>
        <time>2019-10-02T09:17:24Z</time>
      </trkpt>
      <trkpt lat="43.22987" lon="5.5017">
        <ele>258</ele>
        <time>2019-10-02T09:17:32Z</time>
      </trkpt>
      <trkpt lat="43.22985" lon="5.50177">
        <ele>259</ele>
        <time>2019-10-02T09:17:40Z</time>
      </trkpt>
      <trkpt lat="43.22983" lon="5.50183">
        <ele>259</ele>
        <time>2019-10-02T09:17:46Z</time>
      </trkpt>
      <trkpt lat="43.2298" lon="5.50189">
        <ele>263</ele>
        <time>2019-10-02T09:17:56Z</time>
      </trkpt>
      <trkpt lat="43.22979" lon="5.50195">
        <ele>265</ele>
        <time>2019-10-02T09:18:02Z</time>
      </trkpt>
      <trkpt lat="43.22976" lon="5.50202">
        <ele>266</ele>
        <time>2019-10-02T09:18:18Z</time>
      </trkpt>
      <trkpt lat="43.22973" lon="5.50209">
        <ele>266</ele>
        <time>2019-10-02T09:18:24Z</time>
      </trkpt>
      <trkpt lat="43.2297" lon="5.50214">
        <ele>269</ele>
        <time>2019-10-02T09:18:32Z</time>
      </trkpt>
      <trkpt lat="43.22967" lon="5.50221">
        <ele>270</ele>
        <time>2019-10-02T09:18:40Z</time>
      </trkpt>
      <trkpt lat="43.22964" lon="5.50226">
        <ele>272</ele>
        <time>2019-10-02T09:18:48Z</time>
      </trkpt>
      <trkpt lat="43.22961" lon="5.50232">
        <ele>273</ele>
        <time>2019-10-02T09:18:58Z</time>
      </trkpt>
      <trkpt lat="43.22958" lon="5.50238">
        <ele>274</ele>
        <time>2019-10-02T09:19:06Z</time>
      </trkpt>
      <trkpt lat="43.22955" lon="5.50245">
        <ele>274</ele>
        <time>2019-10-02T09:19:14Z</time>
      </trkpt>
      <trkpt lat="43.22953" lon="5.50251">
        <ele>274</ele>
        <time>2019-10-02T09:19:22Z</time>
      </trkpt>
      <trkpt lat="43.22949" lon="5.50255">
        <ele>276</ele>
        <time>2019-10-02T09:19:32Z</time>
      </trkpt>
      <trkpt lat="43.22945" lon="5.50259">
        <ele>277</ele>
        <time>2019-10-02T09:19:40Z</time>
      </trkpt>
      <trkpt lat="43.22941" lon="5.50265">
        <ele>277</ele>
        <time>2019-10-02T09:19:46Z</time>
      </trkpt>
      <trkpt lat="43.22937" lon="5.5027">
        <ele>278</ele>
        <time>2019-10-02T09:19:54Z</time>
      </trkpt>
      <trkpt lat="43.22932" lon="5.50276">
        <ele>279</ele>
        <time>2019-10-02T09:20:02Z</time>
      </trkpt>
      <trkpt lat="43.22929" lon="5.50282">
        <ele>278</ele>
        <time>2019-10-02T09:20:10Z</time>
      </trkpt>
      <trkpt lat="43.22926" lon="5.50287">
        <ele>280</ele>
        <time>2019-10-02T09:20:16Z</time>
      </trkpt>
      <trkpt lat="43.22921" lon="5.50293">
        <ele>281</ele>
        <time>2019-10-02T09:20:24Z</time>
      </trkpt>
      <trkpt lat="43.22918" lon="5.50297">
        <ele>280</ele>
        <time>2019-10-02T09:20:30Z</time>
      </trkpt>
      <trkpt lat="43.22914" lon="5.50302">
        <ele>281</ele>
        <time>2019-10-02T09:20:36Z</time>
      </trkpt>
      <trkpt lat="43.2291" lon="5.50305">
        <ele>282</ele>
        <time>2019-10-02T09:20:42Z</time>
      </trkpt>
      <trkpt lat="43.22906" lon="5.5031">
        <ele>282</ele>
        <time>2019-10-02T09:20:48Z</time>
      </trkpt>
      <trkpt lat="43.22901" lon="5.50316">
        <ele>286</ele>
        <time>2019-10-02T09:20:56Z</time>
      </trkpt>
      <trkpt lat="43.22899" lon="5.50323">
        <ele>287</ele>
        <time>2019-10-02T09:21:04Z</time>
      </trkpt>
      <trkpt lat="43.22895" lon="5.50328">
        <ele>286</ele>
        <time>2019-10-02T09:21:10Z</time>
      </trkpt>
      <trkpt lat="43.22891" lon="5.50331">
        <ele>286</ele>
        <time>2019-10-02T09:21:16Z</time>
      </trkpt>
      <trkpt lat="43.22888" lon="5.50336">
        <ele>286</ele>
        <time>2019-10-02T09:21:24Z</time>
      </trkpt>
      <trkpt lat="43.22885" lon="5.50341">
        <ele>286</ele>
        <time>2019-10-02T09:21:30Z</time>
      </trkpt>
      <trkpt lat="43.22882" lon="5.50346">
        <ele>286</ele>
        <time>2019-10-02T09:21:36Z</time>
      </trkpt>
      <trkpt lat="43.22877" lon="5.5035">
        <ele>287</ele>
        <time>2019-10-02T09:21:44Z</time>
      </trkpt>
      <trkpt lat="43.22875" lon="5.50356">
        <ele>288</ele>
        <time>2019-10-02T09:22:00Z</time>
      </trkpt>
      <trkpt lat="43.22874" lon="5.50363">
        <ele>287</ele>
        <time>2019-10-02T09:22:18Z</time>
      </trkpt>
      <trkpt lat="43.22869" lon="5.50366">
        <ele>289</ele>
        <time>2019-10-02T09:22:30Z</time>
      </trkpt>
      <trkpt lat="43.22865" lon="5.50371">
        <ele>288</ele>
        <time>2019-10-02T09:22:40Z</time>
      </trkpt>
      <trkpt lat="43.22861" lon="5.50376">
        <ele>288</ele>
        <time>2019-10-02T09:22:50Z</time>
      </trkpt>
      <trkpt lat="43.22857" lon="5.50379">
        <ele>287</ele>
        <time>2019-10-02T09:22:58Z</time>
      </trkpt>
      <trkpt lat="43.22854" lon="5.50384">
        <ele>287</ele>
        <time>2019-10-02T09:23:04Z</time>
      </trkpt>
      <trkpt lat="43.22849" lon="5.50387">
        <ele>286</ele>
        <time>2019-10-02T09:23:10Z</time>
      </trkpt>
      <trkpt lat="43.22845" lon="5.50392">
        <ele>286</ele>
        <time>2019-10-02T09:23:20Z</time>
      </trkpt>
      <trkpt lat="43.22842" lon="5.50397">
        <ele>286</ele>
        <time>2019-10-02T09:23:26Z</time>
      </trkpt>
      <trkpt lat="43.22837" lon="5.50401">
        <ele>288</ele>
        <time>2019-10-02T09:23:34Z</time>
      </trkpt>
      <trkpt lat="43.22833" lon="5.50404">
        <ele>289</ele>
        <time>2019-10-02T09:23:40Z</time>
      </trkpt>
      <trkpt lat="43.22828" lon="5.50408">
        <ele>289</ele>
        <time>2019-10-02T09:23:46Z</time>
      </trkpt>
      <trkpt lat="43.22824" lon="5.50413">
        <ele>291</ele>
        <time>2019-10-02T09:23:56Z</time>
      </trkpt>
      <trkpt lat="43.2282" lon="5.50417">
        <ele>293</ele>
        <time>2019-10-02T09:24:06Z</time>
      </trkpt>
      <trkpt lat="43.22815" lon="5.50421">
        <ele>294</ele>
        <time>2019-10-02T09:24:14Z</time>
      </trkpt>
      <trkpt lat="43.2281" lon="5.50425">
        <ele>293</ele>
        <time>2019-10-02T09:24:26Z</time>
      </trkpt>
      <trkpt lat="43.22805" lon="5.50425">
        <ele>297</ele>
        <time>2019-10-02T09:24:34Z</time>
      </trkpt>
      <trkpt lat="43.228" lon="5.50427">
        <ele>296</ele>
        <time>2019-10-02T09:24:42Z</time>
      </trkpt>
      <trkpt lat="43.22795" lon="5.5043">
        <ele>296</ele>
        <time>2019-10-02T09:24:50Z</time>
      </trkpt>
      <trkpt lat="43.2279" lon="5.50434">
        <ele>296</ele>
        <time>2019-10-02T09:24:56Z</time>
      </trkpt>
      <trkpt lat="43.22785" lon="5.50437">
        <ele>297</ele>
        <time>2019-10-02T09:25:04Z</time>
      </trkpt>
      <trkpt lat="43.22781" lon="5.5044">
        <ele>298</ele>
        <time>2019-10-02T09:25:10Z</time>
      </trkpt>
      <trkpt lat="43.22776" lon="5.50441">
        <ele>299</ele>
        <time>2019-10-02T09:25:16Z</time>
      </trkpt>
      <trkpt lat="43.22772" lon="5.50443">
        <ele>300</ele>
        <time>2019-10-02T09:25:24Z</time>
      </trkpt>
      <trkpt lat="43.22767" lon="5.50445">
        <ele>300</ele>
        <time>2019-10-02T09:25:30Z</time>
      </trkpt>
      <trkpt lat="43.22762" lon="5.50444">
        <ele>302</ele>
        <time>2019-10-02T09:25:36Z</time>
      </trkpt>
      <trkpt lat="43.22757" lon="5.50444">
        <ele>303</ele>
        <time>2019-10-02T09:25:44Z</time>
      </trkpt>
      <trkpt lat="43.22752" lon="5.50443">
        <ele>303</ele>
        <time>2019-10-02T09:25:52Z</time>
      </trkpt>
      <trkpt lat="43.22749" lon="5.50436">
        <ele>303</ele>
        <time>2019-10-02T09:26:02Z</time>
      </trkpt>
      <trkpt lat="43.22746" lon="5.50431">
        <ele>304</ele>
        <time>2019-10-02T09:26:10Z</time>
      </trkpt>
      <trkpt lat="43.22741" lon="5.50427">
        <ele>305</ele>
        <time>2019-10-02T09:26:16Z</time>
      </trkpt>
      <trkpt lat="43.22737" lon="5.50427">
        <ele>304</ele>
        <time>2019-10-02T09:26:22Z</time>
      </trkpt>
      <trkpt lat="43.22734" lon="5.50432">
        <ele>308</ele>
        <time>2019-10-02T09:28:40Z</time>
      </trkpt>
      <trkpt lat="43.22733" lon="5.50425">
        <ele>306</ele>
        <time>2019-10-02T09:33:14Z</time>
      </trkpt>
      <trkpt lat="43.22733" lon="5.50417">
        <ele>306</ele>
        <time>2019-10-02T09:33:20Z</time>
      </trkpt>
      <trkpt lat="43.22734" lon="5.50409">
        <ele>307</ele>
        <time>2019-10-02T09:33:26Z</time>
      </trkpt>
      <trkpt lat="43.22735" lon="5.50401">
        <ele>307</ele>
        <time>2019-10-02T09:33:32Z</time>
      </trkpt>
      <trkpt lat="43.22736" lon="5.50392">
        <ele>308</ele>
        <time>2019-10-02T09:33:38Z</time>
      </trkpt>
      <trkpt lat="43.22737" lon="5.50384">
        <ele>310</ele>
        <time>2019-10-02T09:33:44Z</time>
      </trkpt>
      <trkpt lat="43.22738" lon="5.50376">
        <ele>311</ele>
        <time>2019-10-02T09:33:52Z</time>
      </trkpt>
      <trkpt lat="43.22738" lon="5.50368">
        <ele>312</ele>
        <time>2019-10-02T09:33:58Z</time>
      </trkpt>
      <trkpt lat="43.22739" lon="5.50362">
        <ele>312</ele>
        <time>2019-10-02T09:34:04Z</time>
      </trkpt>
      <trkpt lat="43.2274" lon="5.50355">
        <ele>311</ele>
        <time>2019-10-02T09:34:10Z</time>
      </trkpt>
      <trkpt lat="43.22742" lon="5.50348">
        <ele>312</ele>
        <time>2019-10-02T09:34:16Z</time>
      </trkpt>
      <trkpt lat="43.22745" lon="5.50341">
        <ele>313</ele>
        <time>2019-10-02T09:34:22Z</time>
      </trkpt>
      <trkpt lat="43.22746" lon="5.50335">
        <ele>312</ele>
        <time>2019-10-02T09:34:28Z</time>
      </trkpt>
      <trkpt lat="43.22747" lon="5.50329">
        <ele>312</ele>
        <time>2019-10-02T09:34:34Z</time>
      </trkpt>
      <trkpt lat="43.22749" lon="5.50322">
        <ele>312</ele>
        <time>2019-10-02T09:34:40Z</time>
      </trkpt>
      <trkpt lat="43.2275" lon="5.50316">
        <ele>314</ele>
        <time>2019-10-02T09:34:46Z</time>
      </trkpt>
      <trkpt lat="43.2275" lon="5.50309">
        <ele>316</ele>
        <time>2019-10-02T09:34:52Z</time>
      </trkpt>
      <trkpt lat="43.22751" lon="5.50302">
        <ele>315</ele>
        <time>2019-10-02T09:35:00Z</time>
      </trkpt>
      <trkpt lat="43.22753" lon="5.50295">
        <ele>315</ele>
        <time>2019-10-02T09:35:06Z</time>
      </trkpt>
      <trkpt lat="43.22754" lon="5.50288">
        <ele>317</ele>
        <time>2019-10-02T09:35:12Z</time>
      </trkpt>
      <trkpt lat="43.22755" lon="5.50282">
        <ele>317</ele>
        <time>2019-10-02T09:35:18Z</time>
      </trkpt>
      <trkpt lat="43.22755" lon="5.50275">
        <ele>319</ele>
        <time>2019-10-02T09:35:24Z</time>
      </trkpt>
      <trkpt lat="43.22757" lon="5.50267">
        <ele>319</ele>
        <time>2019-10-02T09:35:32Z</time>
      </trkpt>
      <trkpt lat="43.22757" lon="5.50259">
        <ele>320</ele>
        <time>2019-10-02T09:35:38Z</time>
      </trkpt>
      <trkpt lat="43.22759" lon="5.50252">
        <ele>320</ele>
        <time>2019-10-02T09:35:44Z</time>
      </trkpt>
      <trkpt lat="43.2276" lon="5.50246">
        <ele>320</ele>
        <time>2019-10-02T09:35:52Z</time>
      </trkpt>
      <trkpt lat="43.22763" lon="5.5024">
        <ele>319</ele>
        <time>2019-10-02T09:36:02Z</time>
      </trkpt>
      <trkpt lat="43.22764" lon="5.50233">
        <ele>319</ele>
        <time>2019-10-02T09:36:08Z</time>
      </trkpt>
      <trkpt lat="43.22766" lon="5.50227">
        <ele>322</ele>
        <time>2019-10-02T09:36:14Z</time>
      </trkpt>
      <trkpt lat="43.22766" lon="5.5022">
        <ele>320</ele>
        <time>2019-10-02T09:36:20Z</time>
      </trkpt>
      <trkpt lat="43.22767" lon="5.50212">
        <ele>320</ele>
        <time>2019-10-02T09:36:26Z</time>
      </trkpt>
      <trkpt lat="43.22768" lon="5.50204">
        <ele>322</ele>
        <time>2019-10-02T09:36:32Z</time>
      </trkpt>
      <trkpt lat="43.22769" lon="5.50197">
        <ele>323</ele>
        <time>2019-10-02T09:36:38Z</time>
      </trkpt>
      <trkpt lat="43.2277" lon="5.5019">
        <ele>322</ele>
        <time>2019-10-02T09:36:44Z</time>
      </trkpt>
      <trkpt lat="43.22771" lon="5.50183">
        <ele>324</ele>
        <time>2019-10-02T09:36:50Z</time>
      </trkpt>
      <trkpt lat="43.22771" lon="5.50176">
        <ele>324</ele>
        <time>2019-10-02T09:36:56Z</time>
      </trkpt>
      <trkpt lat="43.2277" lon="5.50169">
        <ele>327</ele>
        <time>2019-10-02T09:37:02Z</time>
      </trkpt>
      <trkpt lat="43.2277" lon="5.50161">
        <ele>326</ele>
        <time>2019-10-02T09:37:10Z</time>
      </trkpt>
      <trkpt lat="43.2277" lon="5.50155">
        <ele>326</ele>
        <time>2019-10-02T09:37:16Z</time>
      </trkpt>
      <trkpt lat="43.22769" lon="5.50147">
        <ele>328</ele>
        <time>2019-10-02T09:37:22Z</time>
      </trkpt>
      <trkpt lat="43.22768" lon="5.5014">
        <ele>329</ele>
        <time>2019-10-02T09:37:28Z</time>
      </trkpt>
      <trkpt lat="43.22768" lon="5.50133">
        <ele>330</ele>
        <time>2019-10-02T09:37:34Z</time>
      </trkpt>
      <trkpt lat="43.22767" lon="5.50126">
        <ele>330</ele>
        <time>2019-10-02T09:37:40Z</time>
      </trkpt>
      <trkpt lat="43.22765" lon="5.5012">
        <ele>330</ele>
        <time>2019-10-02T09:37:46Z</time>
      </trkpt>
      <trkpt lat="43.22762" lon="5.50112">
        <ele>332</ele>
        <time>2019-10-02T09:37:52Z</time>
      </trkpt>
      <trkpt lat="43.2276" lon="5.50106">
        <ele>333</ele>
        <time>2019-10-02T09:37:58Z</time>
      </trkpt>
      <trkpt lat="43.22758" lon="5.50099">
        <ele>334</ele>
        <time>2019-10-02T09:38:04Z</time>
      </trkpt>
      <trkpt lat="43.22754" lon="5.50092">
        <ele>335</ele>
        <time>2019-10-02T09:38:10Z</time>
      </trkpt>
      <trkpt lat="43.22751" lon="5.50085">
        <ele>335</ele>
        <time>2019-10-02T09:38:16Z</time>
      </trkpt>
      <trkpt lat="43.22748" lon="5.50078">
        <ele>334</ele>
        <time>2019-10-02T09:38:22Z</time>
      </trkpt>
      <trkpt lat="43.22745" lon="5.50072">
        <ele>335</ele>
        <time>2019-10-02T09:38:28Z</time>
      </trkpt>
      <trkpt lat="43.22742" lon="5.50065">
        <ele>335</ele>
        <time>2019-10-02T09:38:34Z</time>
      </trkpt>
      <trkpt lat="43.22738" lon="5.50058">
        <ele>335</ele>
        <time>2019-10-02T09:38:40Z</time>
      </trkpt>
      <trkpt lat="43.22736" lon="5.50051">
        <ele>335</ele>
        <time>2019-10-02T09:38:46Z</time>
      </trkpt>
      <trkpt lat="43.22733" lon="5.50045">
        <ele>335</ele>
        <time>2019-10-02T09:38:52Z</time>
      </trkpt>
      <trkpt lat="43.2273" lon="5.50038">
        <ele>334</ele>
        <time>2019-10-02T09:38:58Z</time>
      </trkpt>
      <trkpt lat="43.22726" lon="5.50031">
        <ele>335</ele>
        <time>2019-10-02T09:39:04Z</time>
      </trkpt>
      <trkpt lat="43.22723" lon="5.50024">
        <ele>334</ele>
        <time>2019-10-02T09:39:10Z</time>
      </trkpt>
      <trkpt lat="43.22719" lon="5.50016">
        <ele>333</ele>
        <time>2019-10-02T09:39:16Z</time>
      </trkpt>
      <trkpt lat="43.22716" lon="5.50009">
        <ele>334</ele>
        <time>2019-10-02T09:39:22Z</time>
      </trkpt>
      <trkpt lat="43.22714" lon="5.50003">
        <ele>334</ele>
        <time>2019-10-02T09:39:26Z</time>
      </trkpt>
      <trkpt lat="43.22711" lon="5.49997">
        <ele>334</ele>
        <time>2019-10-02T09:39:32Z</time>
      </trkpt>
      <trkpt lat="43.22708" lon="5.49991">
        <ele>333</ele>
        <time>2019-10-02T09:39:38Z</time>
      </trkpt>
      <trkpt lat="43.22705" lon="5.49984">
        <ele>333</ele>
        <time>2019-10-02T09:39:44Z</time>
      </trkpt>
      <trkpt lat="43.22702" lon="5.49977">
        <ele>332</ele>
        <time>2019-10-02T09:39:50Z</time>
      </trkpt>
      <trkpt lat="43.227" lon="5.4997">
        <ele>332</ele>
        <time>2019-10-02T09:39:56Z</time>
      </trkpt>
      <trkpt lat="43.22698" lon="5.49962">
        <ele>331</ele>
        <time>2019-10-02T09:40:02Z</time>
      </trkpt>
      <trkpt lat="43.22694" lon="5.49955">
        <ele>331</ele>
        <time>2019-10-02T09:40:08Z</time>
      </trkpt>
      <trkpt lat="43.22692" lon="5.49946">
        <ele>332</ele>
        <time>2019-10-02T09:40:14Z</time>
      </trkpt>
      <trkpt lat="43.22688" lon="5.49939">
        <ele>332</ele>
        <time>2019-10-02T09:40:20Z</time>
      </trkpt>
      <trkpt lat="43.22685" lon="5.49931">
        <ele>331</ele>
        <time>2019-10-02T09:40:26Z</time>
      </trkpt>
      <trkpt lat="43.22684" lon="5.49925">
        <ele>332</ele>
        <time>2019-10-02T09:40:30Z</time>
      </trkpt>
      <trkpt lat="43.22682" lon="5.49919">
        <ele>332</ele>
        <time>2019-10-02T09:40:34Z</time>
      </trkpt>
      <trkpt lat="43.22681" lon="5.49912">
        <ele>332</ele>
        <time>2019-10-02T09:40:38Z</time>
      </trkpt>
      <trkpt lat="43.22679" lon="5.49905">
        <ele>331</ele>
        <time>2019-10-02T09:40:44Z</time>
      </trkpt>
      <trkpt lat="43.22679" lon="5.49896">
        <ele>331</ele>
        <time>2019-10-02T09:40:50Z</time>
      </trkpt>
      <trkpt lat="43.22679" lon="5.49889">
        <ele>331</ele>
        <time>2019-10-02T09:40:56Z</time>
      </trkpt>
      <trkpt lat="43.2268" lon="5.4988">
        <ele>330</ele>
        <time>2019-10-02T09:41:02Z</time>
      </trkpt>
      <trkpt lat="43.22681" lon="5.49872">
        <ele>330</ele>
        <time>2019-10-02T09:41:08Z</time>
      </trkpt>
      <trkpt lat="43.22683" lon="5.49865">
        <ele>331</ele>
        <time>2019-10-02T09:41:14Z</time>
      </trkpt>
      <trkpt lat="43.22686" lon="5.49858">
        <ele>332</ele>
        <time>2019-10-02T09:41:20Z</time>
      </trkpt>
      <trkpt lat="43.22689" lon="5.49852">
        <ele>331</ele>
        <time>2019-10-02T09:41:24Z</time>
      </trkpt>
      <trkpt lat="43.22692" lon="5.49848">
        <ele>331</ele>
        <time>2019-10-02T09:41:28Z</time>
      </trkpt>
      <trkpt lat="43.22694" lon="5.49842">
        <ele>331</ele>
        <time>2019-10-02T09:41:32Z</time>
      </trkpt>
      <trkpt lat="43.22697" lon="5.49836">
        <ele>331</ele>
        <time>2019-10-02T09:41:38Z</time>
      </trkpt>
      <trkpt lat="43.227" lon="5.49831">
        <ele>330</ele>
        <time>2019-10-02T09:41:42Z</time>
      </trkpt>
      <trkpt lat="43.22703" lon="5.49824">
        <ele>330</ele>
        <time>2019-10-02T09:41:48Z</time>
      </trkpt>
      <trkpt lat="43.22706" lon="5.49818">
        <ele>329</ele>
        <time>2019-10-02T09:41:54Z</time>
      </trkpt>
      <trkpt lat="43.22709" lon="5.49812">
        <ele>331</ele>
        <time>2019-10-02T09:42:00Z</time>
      </trkpt>
      <trkpt lat="43.22712" lon="5.49805">
        <ele>335</ele>
        <time>2019-10-02T09:42:06Z</time>
      </trkpt>
      <trkpt lat="43.22714" lon="5.498">
        <ele>335</ele>
        <time>2019-10-02T09:42:10Z</time>
      </trkpt>
      <trkpt lat="43.22717" lon="5.49795">
        <ele>334</ele>
        <time>2019-10-02T09:42:14Z</time>
      </trkpt>
      <trkpt lat="43.2272" lon="5.4979">
        <ele>334</ele>
        <time>2019-10-02T09:42:18Z</time>
      </trkpt>
      <trkpt lat="43.22722" lon="5.49785">
        <ele>334</ele>
        <time>2019-10-02T09:42:22Z</time>
      </trkpt>
      <trkpt lat="43.22726" lon="5.49777">
        <ele>334</ele>
        <time>2019-10-02T09:42:28Z</time>
      </trkpt>
      <trkpt lat="43.22729" lon="5.49772">
        <ele>333</ele>
        <time>2019-10-02T09:42:32Z</time>
      </trkpt>
      <trkpt lat="43.22732" lon="5.49766">
        <ele>333</ele>
        <time>2019-10-02T09:42:38Z</time>
      </trkpt>
      <trkpt lat="43.22735" lon="5.49759">
        <ele>332</ele>
        <time>2019-10-02T09:42:44Z</time>
      </trkpt>
      <trkpt lat="43.22738" lon="5.49752">
        <ele>332</ele>
        <time>2019-10-02T09:42:50Z</time>
      </trkpt>
      <trkpt lat="43.22739" lon="5.49745">
        <ele>331</ele>
        <time>2019-10-02T09:42:56Z</time>
      </trkpt>
      <trkpt lat="43.22741" lon="5.49737">
        <ele>330</ele>
        <time>2019-10-02T09:43:02Z</time>
      </trkpt>
      <trkpt lat="43.22742" lon="5.4973">
        <ele>329</ele>
        <time>2019-10-02T09:43:06Z</time>
      </trkpt>
      <trkpt lat="43.22743" lon="5.49722">
        <ele>329</ele>
        <time>2019-10-02T09:43:12Z</time>
      </trkpt>
      <trkpt lat="43.22743" lon="5.49714">
        <ele>327</ele>
        <time>2019-10-02T09:43:16Z</time>
      </trkpt>
      <trkpt lat="43.22743" lon="5.49707">
        <ele>328</ele>
        <time>2019-10-02T09:43:20Z</time>
      </trkpt>
      <trkpt lat="43.22745" lon="5.497">
        <ele>327</ele>
        <time>2019-10-02T09:43:26Z</time>
      </trkpt>
      <trkpt lat="43.22747" lon="5.49692">
        <ele>327</ele>
        <time>2019-10-02T09:43:32Z</time>
      </trkpt>
      <trkpt lat="43.22748" lon="5.49685">
        <ele>328</ele>
        <time>2019-10-02T09:43:38Z</time>
      </trkpt>
      <trkpt lat="43.22749" lon="5.49677">
        <ele>328</ele>
        <time>2019-10-02T09:43:44Z</time>
      </trkpt>
      <trkpt lat="43.22751" lon="5.49669">
        <ele>329</ele>
        <time>2019-10-02T09:43:50Z</time>
      </trkpt>
      <trkpt lat="43.22751" lon="5.49663">
        <ele>329</ele>
        <time>2019-10-02T09:43:56Z</time>
      </trkpt>
      <trkpt lat="43.22752" lon="5.49656">
        <ele>329</ele>
        <time>2019-10-02T09:44:02Z</time>
      </trkpt>
      <trkpt lat="43.22753" lon="5.49648">
        <ele>330</ele>
        <time>2019-10-02T09:44:10Z</time>
      </trkpt>
      <trkpt lat="43.22753" lon="5.49642">
        <ele>331</ele>
        <time>2019-10-02T09:44:16Z</time>
      </trkpt>
      <trkpt lat="43.22753" lon="5.49635">
        <ele>331</ele>
        <time>2019-10-02T09:44:22Z</time>
      </trkpt>
      <trkpt lat="43.22754" lon="5.49628">
        <ele>332</ele>
        <time>2019-10-02T09:44:28Z</time>
      </trkpt>
      <trkpt lat="43.22754" lon="5.49622">
        <ele>332</ele>
        <time>2019-10-02T09:44:36Z</time>
      </trkpt>
      <trkpt lat="43.22754" lon="5.49615">
        <ele>332</ele>
        <time>2019-10-02T09:44:42Z</time>
      </trkpt>
      <trkpt lat="43.22755" lon="5.49607">
        <ele>333</ele>
        <time>2019-10-02T09:44:50Z</time>
      </trkpt>
      <trkpt lat="43.22755" lon="5.496">
        <ele>335</ele>
        <time>2019-10-02T09:44:58Z</time>
      </trkpt>
      <trkpt lat="43.22755" lon="5.49594">
        <ele>335</ele>
        <time>2019-10-02T09:45:04Z</time>
      </trkpt>
      <trkpt lat="43.22754" lon="5.49586">
        <ele>336</ele>
        <time>2019-10-02T09:45:12Z</time>
      </trkpt>
      <trkpt lat="43.22754" lon="5.49578">
        <ele>337</ele>
        <time>2019-10-02T09:45:20Z</time>
      </trkpt>
      <trkpt lat="43.22755" lon="5.4957">
        <ele>338</ele>
        <time>2019-10-02T09:45:28Z</time>
      </trkpt>
      <trkpt lat="43.22755" lon="5.49562">
        <ele>339</ele>
        <time>2019-10-02T09:45:36Z</time>
      </trkpt>
      <trkpt lat="43.22753" lon="5.49554">
        <ele>341</ele>
        <time>2019-10-02T09:45:44Z</time>
      </trkpt>
      <trkpt lat="43.22753" lon="5.49546">
        <ele>342</ele>
        <time>2019-10-02T09:45:52Z</time>
      </trkpt>
      <trkpt lat="43.22752" lon="5.4954">
        <ele>341</ele>
        <time>2019-10-02T09:45:58Z</time>
      </trkpt>
      <trkpt lat="43.22751" lon="5.49532">
        <ele>341</ele>
        <time>2019-10-02T09:46:04Z</time>
      </trkpt>
      <trkpt lat="43.22749" lon="5.49526">
        <ele>343</ele>
        <time>2019-10-02T09:46:12Z</time>
      </trkpt>
      <trkpt lat="43.22745" lon="5.49526">
        <ele>344</ele>
        <time>2019-10-02T09:46:40Z</time>
      </trkpt>
      <trkpt lat="43.2274" lon="5.49525">
        <ele>347</ele>
        <time>2019-10-02T09:47:20Z</time>
      </trkpt>
      <trkpt lat="43.22736" lon="5.49521">
        <ele>348</ele>
        <time>2019-10-02T09:47:28Z</time>
      </trkpt>
      <trkpt lat="43.22731" lon="5.49517">
        <ele>348</ele>
        <time>2019-10-02T09:47:34Z</time>
      </trkpt>
      <trkpt lat="43.22728" lon="5.49513">
        <ele>349</ele>
        <time>2019-10-02T09:47:40Z</time>
      </trkpt>
      <trkpt lat="43.22723" lon="5.49509">
        <ele>350</ele>
        <time>2019-10-02T09:47:46Z</time>
      </trkpt>
      <trkpt lat="43.22718" lon="5.49506">
        <ele>350</ele>
        <time>2019-10-02T09:47:52Z</time>
      </trkpt>
      <trkpt lat="43.22713" lon="5.49501">
        <ele>351</ele>
        <time>2019-10-02T09:47:58Z</time>
      </trkpt>
      <trkpt lat="43.22708" lon="5.49498">
        <ele>351</ele>
        <time>2019-10-02T09:48:04Z</time>
      </trkpt>
      <trkpt lat="43.22703" lon="5.49494">
        <ele>351</ele>
        <time>2019-10-02T09:48:10Z</time>
      </trkpt>
      <trkpt lat="43.22698" lon="5.4949">
        <ele>352</ele>
        <time>2019-10-02T09:48:16Z</time>
      </trkpt>
      <trkpt lat="43.22693" lon="5.49484">
        <ele>352</ele>
        <time>2019-10-02T09:48:22Z</time>
      </trkpt>
      <trkpt lat="43.22689" lon="5.49481">
        <ele>351</ele>
        <time>2019-10-02T09:48:28Z</time>
      </trkpt>
      <trkpt lat="43.22684" lon="5.49475">
        <ele>350</ele>
        <time>2019-10-02T09:48:34Z</time>
      </trkpt>
      <trkpt lat="43.22681" lon="5.49468">
        <ele>350</ele>
        <time>2019-10-02T09:48:40Z</time>
      </trkpt>
      <trkpt lat="43.22678" lon="5.49461">
        <ele>350</ele>
        <time>2019-10-02T09:48:46Z</time>
      </trkpt>
      <trkpt lat="43.22675" lon="5.49455">
        <ele>348</ele>
        <time>2019-10-02T09:48:52Z</time>
      </trkpt>
      <trkpt lat="43.22671" lon="5.49448">
        <ele>348</ele>
        <time>2019-10-02T09:48:58Z</time>
      </trkpt>
      <trkpt lat="43.22667" lon="5.49442">
        <ele>350</ele>
        <time>2019-10-02T09:49:04Z</time>
      </trkpt>
      <trkpt lat="43.22663" lon="5.49436">
        <ele>349</ele>
        <time>2019-10-02T09:49:10Z</time>
      </trkpt>
      <trkpt lat="43.2266" lon="5.49428">
        <ele>349</ele>
        <time>2019-10-02T09:49:16Z</time>
      </trkpt>
      <trkpt lat="43.22656" lon="5.4942">
        <ele>349</ele>
        <time>2019-10-02T09:49:22Z</time>
      </trkpt>
      <trkpt lat="43.22655" lon="5.49414">
        <ele>347</ele>
        <time>2019-10-02T09:49:26Z</time>
      </trkpt>
      <trkpt lat="43.22655" lon="5.49408">
        <ele>347</ele>
        <time>2019-10-02T09:49:30Z</time>
      </trkpt>
      <trkpt lat="43.22653" lon="5.49399">
        <ele>346</ele>
        <time>2019-10-02T09:49:36Z</time>
      </trkpt>
      <trkpt lat="43.22651" lon="5.49391">
        <ele>347</ele>
        <time>2019-10-02T09:49:42Z</time>
      </trkpt>
      <trkpt lat="43.2265" lon="5.49385">
        <ele>346</ele>
        <time>2019-10-02T09:49:46Z</time>
      </trkpt>
      <trkpt lat="43.2265" lon="5.49378">
        <ele>345</ele>
        <time>2019-10-02T09:49:50Z</time>
      </trkpt>
      <trkpt lat="43.22649" lon="5.49372">
        <ele>345</ele>
        <time>2019-10-02T09:49:54Z</time>
      </trkpt>
      <trkpt lat="43.22645" lon="5.49365">
        <ele>345</ele>
        <time>2019-10-02T09:50:00Z</time>
      </trkpt>
      <trkpt lat="43.2264" lon="5.4936">
        <ele>345</ele>
        <time>2019-10-02T09:50:06Z</time>
      </trkpt>
      <trkpt lat="43.22636" lon="5.49357">
        <ele>345</ele>
        <time>2019-10-02T09:50:10Z</time>
      </trkpt>
      <trkpt lat="43.22632" lon="5.49353">
        <ele>347</ele>
        <time>2019-10-02T09:50:16Z</time>
      </trkpt>
      <trkpt lat="43.22627" lon="5.4935">
        <ele>348</ele>
        <time>2019-10-02T09:50:22Z</time>
      </trkpt>
      <trkpt lat="43.22622" lon="5.49349">
        <ele>349</ele>
        <time>2019-10-02T09:50:28Z</time>
      </trkpt>
      <trkpt lat="43.22617" lon="5.49347">
        <ele>350</ele>
        <time>2019-10-02T09:50:34Z</time>
      </trkpt>
      <trkpt lat="43.22611" lon="5.49348">
        <ele>354</ele>
        <time>2019-10-02T09:50:44Z</time>
      </trkpt>
      <trkpt lat="43.22604" lon="5.4935">
        <ele>353</ele>
        <time>2019-10-02T09:50:50Z</time>
      </trkpt>
      <trkpt lat="43.22599" lon="5.4935">
        <ele>351</ele>
        <time>2019-10-02T09:50:54Z</time>
      </trkpt>
      <trkpt lat="43.22593" lon="5.49351">
        <ele>352</ele>
        <time>2019-10-02T09:50:58Z</time>
      </trkpt>
      <trkpt lat="43.22588" lon="5.49354">
        <ele>353</ele>
        <time>2019-10-02T09:51:04Z</time>
      </trkpt>
      <trkpt lat="43.22583" lon="5.49355">
        <ele>355</ele>
        <time>2019-10-02T09:51:08Z</time>
      </trkpt>
      <trkpt lat="43.22578" lon="5.49358">
        <ele>355</ele>
        <time>2019-10-02T09:51:14Z</time>
      </trkpt>
      <trkpt lat="43.22573" lon="5.49362">
        <ele>354</ele>
        <time>2019-10-02T09:51:20Z</time>
      </trkpt>
      <trkpt lat="43.22569" lon="5.49366">
        <ele>352</ele>
        <time>2019-10-02T09:51:24Z</time>
      </trkpt>
      <trkpt lat="43.22566" lon="5.49374">
        <ele>348</ele>
        <time>2019-10-02T09:51:30Z</time>
      </trkpt>
      <trkpt lat="43.22563" lon="5.49381">
        <ele>347</ele>
        <time>2019-10-02T09:51:36Z</time>
      </trkpt>
      <trkpt lat="43.2256" lon="5.49386">
        <ele>349</ele>
        <time>2019-10-02T09:51:42Z</time>
      </trkpt>
      <trkpt lat="43.22557" lon="5.49394">
        <ele>349</ele>
        <time>2019-10-02T09:51:48Z</time>
      </trkpt>
      <trkpt lat="43.22555" lon="5.49401">
        <ele>349</ele>
        <time>2019-10-02T09:51:54Z</time>
      </trkpt>
      <trkpt lat="43.22555" lon="5.49409">
        <ele>350</ele>
        <time>2019-10-02T09:52:00Z</time>
      </trkpt>
      <trkpt lat="43.22553" lon="5.49417">
        <ele>348</ele>
        <time>2019-10-02T09:52:06Z</time>
      </trkpt>
      <trkpt lat="43.22553" lon="5.49425">
        <ele>348</ele>
        <time>2019-10-02T09:52:12Z</time>
      </trkpt>
      <trkpt lat="43.22551" lon="5.49432">
        <ele>347</ele>
        <time>2019-10-02T09:52:18Z</time>
      </trkpt>
      <trkpt lat="43.22549" lon="5.4944">
        <ele>346</ele>
        <time>2019-10-02T09:52:24Z</time>
      </trkpt>
      <trkpt lat="43.22548" lon="5.49448">
        <ele>344</ele>
        <time>2019-10-02T09:52:30Z</time>
      </trkpt>
      <trkpt lat="43.22547" lon="5.49454">
        <ele>343</ele>
        <time>2019-10-02T09:52:34Z</time>
      </trkpt>
      <trkpt lat="43.22545" lon="5.49463">
        <ele>343</ele>
        <time>2019-10-02T09:52:40Z</time>
      </trkpt>
      <trkpt lat="43.22543" lon="5.49471">
        <ele>341</ele>
        <time>2019-10-02T09:52:46Z</time>
      </trkpt>
      <trkpt lat="43.22541" lon="5.49479">
        <ele>342</ele>
        <time>2019-10-02T09:52:52Z</time>
      </trkpt>
      <trkpt lat="43.22541" lon="5.49486">
        <ele>341</ele>
        <time>2019-10-02T09:52:56Z</time>
      </trkpt>
      <trkpt lat="43.22539" lon="5.49495">
        <ele>341</ele>
        <time>2019-10-02T09:53:02Z</time>
      </trkpt>
      <trkpt lat="43.22538" lon="5.49502">
        <ele>342</ele>
        <time>2019-10-02T09:53:08Z</time>
      </trkpt>
      <trkpt lat="43.22537" lon="5.49509">
        <ele>340</ele>
        <time>2019-10-02T09:53:12Z</time>
      </trkpt>
      <trkpt lat="43.22534" lon="5.49516">
        <ele>339</ele>
        <time>2019-10-02T09:53:18Z</time>
      </trkpt>
      <trkpt lat="43.22532" lon="5.49523">
        <ele>339</ele>
        <time>2019-10-02T09:53:22Z</time>
      </trkpt>
      <trkpt lat="43.22531" lon="5.49529">
        <ele>338</ele>
        <time>2019-10-02T09:53:26Z</time>
      </trkpt>
      <trkpt lat="43.22529" lon="5.49536">
        <ele>338</ele>
        <time>2019-10-02T09:53:32Z</time>
      </trkpt>
      <trkpt lat="43.22527" lon="5.49544">
        <ele>338</ele>
        <time>2019-10-02T09:53:38Z</time>
      </trkpt>
      <trkpt lat="43.22525" lon="5.49551">
        <ele>338</ele>
        <time>2019-10-02T09:53:44Z</time>
      </trkpt>
      <trkpt lat="43.22524" lon="5.49558">
        <ele>338</ele>
        <time>2019-10-02T09:53:50Z</time>
      </trkpt>
      <trkpt lat="43.22522" lon="5.49566">
        <ele>337</ele>
        <time>2019-10-02T09:53:56Z</time>
      </trkpt>
      <trkpt lat="43.22522" lon="5.49574">
        <ele>336</ele>
        <time>2019-10-02T09:54:02Z</time>
      </trkpt>
      <trkpt lat="43.2252" lon="5.49582">
        <ele>337</ele>
        <time>2019-10-02T09:54:08Z</time>
      </trkpt>
      <trkpt lat="43.22519" lon="5.49589">
        <ele>337</ele>
        <time>2019-10-02T09:54:14Z</time>
      </trkpt>
      <trkpt lat="43.22518" lon="5.49595">
        <ele>338</ele>
        <time>2019-10-02T09:54:40Z</time>
      </trkpt>
      <trkpt lat="43.22523" lon="5.49594">
        <ele>339</ele>
        <time>2019-10-02T09:55:12Z</time>
      </trkpt>
      <trkpt lat="43.22528" lon="5.49598">
        <ele>340</ele>
        <time>2019-10-02T09:55:20Z</time>
      </trkpt>
      <trkpt lat="43.22533" lon="5.496">
        <ele>341</ele>
        <time>2019-10-02T09:55:28Z</time>
      </trkpt>
      <trkpt lat="43.22537" lon="5.49605">
        <ele>342</ele>
        <time>2019-10-02T09:55:36Z</time>
      </trkpt>
      <trkpt lat="43.22542" lon="5.49604">
        <ele>342</ele>
        <time>2019-10-02T09:55:42Z</time>
      </trkpt>
      <trkpt lat="43.22547" lon="5.49604">
        <ele>342</ele>
        <time>2019-10-02T09:55:48Z</time>
      </trkpt>
      <trkpt lat="43.22551" lon="5.49604">
        <ele>342</ele>
        <time>2019-10-02T09:55:54Z</time>
      </trkpt>
      <trkpt lat="43.22554" lon="5.49597">
        <ele>341</ele>
        <time>2019-10-02T09:56:14Z</time>
      </trkpt>
      <trkpt lat="43.22559" lon="5.49595">
        <ele>342</ele>
        <time>2019-10-02T09:56:22Z</time>
      </trkpt>
      <trkpt lat="43.22564" lon="5.49598">
        <ele>342</ele>
        <time>2019-10-02T09:56:34Z</time>
      </trkpt>
      <trkpt lat="43.22566" lon="5.49606">
        <ele>342</ele>
        <time>2019-10-02T09:56:40Z</time>
      </trkpt>
      <trkpt lat="43.22569" lon="5.49611">
        <ele>342</ele>
        <time>2019-10-02T09:56:46Z</time>
      </trkpt>
      <trkpt lat="43.22573" lon="5.49616">
        <ele>343</ele>
        <time>2019-10-02T09:56:54Z</time>
      </trkpt>
      <trkpt lat="43.22576" lon="5.49621">
        <ele>344</ele>
        <time>2019-10-02T09:57:00Z</time>
      </trkpt>
      <trkpt lat="43.2258" lon="5.49624">
        <ele>345</ele>
        <time>2019-10-02T09:57:06Z</time>
      </trkpt>
      <trkpt lat="43.22585" lon="5.49627">
        <ele>343</ele>
        <time>2019-10-02T09:57:16Z</time>
      </trkpt>
      <trkpt lat="43.22591" lon="5.4963">
        <ele>343</ele>
        <time>2019-10-02T09:57:26Z</time>
      </trkpt>
      <trkpt lat="43.22593" lon="5.49637">
        <ele>343</ele>
        <time>2019-10-02T09:57:40Z</time>
      </trkpt>
      <trkpt lat="43.22592" lon="5.49644">
        <ele>343</ele>
        <time>2019-10-02T09:57:46Z</time>
      </trkpt>
      <trkpt lat="43.22588" lon="5.49651">
        <ele>343</ele>
        <time>2019-10-02T09:57:54Z</time>
      </trkpt>
      <trkpt lat="43.22587" lon="5.49658">
        <ele>342</ele>
        <time>2019-10-02T09:58:04Z</time>
      </trkpt>
      <trkpt lat="43.22586" lon="5.49665">
        <ele>342</ele>
        <time>2019-10-02T09:58:12Z</time>
      </trkpt>
      <trkpt lat="43.22586" lon="5.49672">
        <ele>341</ele>
        <time>2019-10-02T09:58:20Z</time>
      </trkpt>
      <trkpt lat="43.22589" lon="5.49678">
        <ele>341</ele>
        <time>2019-10-02T09:58:28Z</time>
      </trkpt>
      <trkpt lat="43.22591" lon="5.49684">
        <ele>340</ele>
        <time>2019-10-02T09:58:36Z</time>
      </trkpt>
      <trkpt lat="43.22592" lon="5.49691">
        <ele>340</ele>
        <time>2019-10-02T09:58:44Z</time>
      </trkpt>
      <trkpt lat="43.22593" lon="5.49697">
        <ele>340</ele>
        <time>2019-10-02T09:58:58Z</time>
      </trkpt>
      <trkpt lat="43.22598" lon="5.49699">
        <ele>340</ele>
        <time>2019-10-02T09:59:04Z</time>
      </trkpt>
      <trkpt lat="43.22603" lon="5.49696">
        <ele>339</ele>
        <time>2019-10-02T09:59:10Z</time>
      </trkpt>
      <trkpt lat="43.22608" lon="5.49693">
        <ele>339</ele>
        <time>2019-10-02T09:59:16Z</time>
      </trkpt>
      <trkpt lat="43.2261" lon="5.49688">
        <ele>339</ele>
        <time>2019-10-02T09:59:24Z</time>
      </trkpt>
      <trkpt lat="43.22612" lon="5.49682">
        <ele>338</ele>
        <time>2019-10-02T09:59:32Z</time>
      </trkpt>
      <trkpt lat="43.22612" lon="5.49675">
        <ele>340</ele>
        <time>2019-10-02T09:59:42Z</time>
      </trkpt>
      <trkpt lat="43.22607" lon="5.49675">
        <ele>341</ele>
        <time>2019-10-02T09:59:50Z</time>
      </trkpt>
      <trkpt lat="43.22602" lon="5.49678">
        <ele>341</ele>
        <time>2019-10-02T10:00:00Z</time>
      </trkpt>
      <trkpt lat="43.22599" lon="5.49684">
        <ele>339</ele>
        <time>2019-10-02T10:00:20Z</time>
      </trkpt>
      <trkpt lat="43.22598" lon="5.4969">
        <ele>340</ele>
        <time>2019-10-02T10:00:28Z</time>
      </trkpt>
      <trkpt lat="43.226" lon="5.49697">
        <ele>339</ele>
        <time>2019-10-02T10:00:40Z</time>
      </trkpt>
      <trkpt lat="43.22594" lon="5.49697">
        <ele>340</ele>
        <time>2019-10-02T10:01:02Z</time>
      </trkpt>
      <trkpt lat="43.22588" lon="5.49698">
        <ele>340</ele>
        <time>2019-10-02T10:01:08Z</time>
      </trkpt>
      <trkpt lat="43.22582" lon="5.49701">
        <ele>340</ele>
        <time>2019-10-02T10:01:14Z</time>
      </trkpt>
      <trkpt lat="43.22578" lon="5.49698">
        <ele>339</ele>
        <time>2019-10-02T10:01:20Z</time>
      </trkpt>
      <trkpt lat="43.22573" lon="5.49702">
        <ele>339</ele>
        <time>2019-10-02T10:01:26Z</time>
      </trkpt>
      <trkpt lat="43.22569" lon="5.49706">
        <ele>339</ele>
        <time>2019-10-02T10:01:34Z</time>
      </trkpt>
      <trkpt lat="43.22569" lon="5.49699">
        <ele>338</ele>
        <time>2019-10-02T10:02:26Z</time>
      </trkpt>
      <trkpt lat="43.2257" lon="5.49692">
        <ele>337</ele>
        <time>2019-10-02T10:02:34Z</time>
      </trkpt>
      <trkpt lat="43.22571" lon="5.49685">
        <ele>337</ele>
        <time>2019-10-02T10:02:40Z</time>
      </trkpt>
      <trkpt lat="43.22571" lon="5.49678">
        <ele>337</ele>
        <time>2019-10-02T10:02:50Z</time>
      </trkpt>
      <trkpt lat="43.22569" lon="5.49671">
        <ele>337</ele>
        <time>2019-10-02T10:02:56Z</time>
      </trkpt>
      <trkpt lat="43.22571" lon="5.49665">
        <ele>338</ele>
        <time>2019-10-02T10:03:06Z</time>
      </trkpt>
      <trkpt lat="43.2257" lon="5.49656">
        <ele>339</ele>
        <time>2019-10-02T10:03:14Z</time>
      </trkpt>
      <trkpt lat="43.22571" lon="5.49648">
        <ele>340</ele>
        <time>2019-10-02T10:03:20Z</time>
      </trkpt>
      <trkpt lat="43.22568" lon="5.49643">
        <ele>340</ele>
        <time>2019-10-02T10:03:26Z</time>
      </trkpt>
      <trkpt lat="43.22566" lon="5.49637">
        <ele>341</ele>
        <time>2019-10-02T10:03:32Z</time>
      </trkpt>
      <trkpt lat="43.22568" lon="5.4963">
        <ele>341</ele>
        <time>2019-10-02T10:03:38Z</time>
      </trkpt>
      <trkpt lat="43.22566" lon="5.49624">
        <ele>341</ele>
        <time>2019-10-02T10:03:46Z</time>
      </trkpt>
      <trkpt lat="43.22569" lon="5.49617">
        <ele>341</ele>
        <time>2019-10-02T10:03:52Z</time>
      </trkpt>
      <trkpt lat="43.22571" lon="5.4961">
        <ele>341</ele>
        <time>2019-10-02T10:03:58Z</time>
      </trkpt>
      <trkpt lat="43.22567" lon="5.49604">
        <ele>340</ele>
        <time>2019-10-02T10:04:04Z</time>
      </trkpt>
      <trkpt lat="43.22565" lon="5.49596">
        <ele>340</ele>
        <time>2019-10-02T10:04:10Z</time>
      </trkpt>
      <trkpt lat="43.22559" lon="5.49595">
        <ele>340</ele>
        <time>2019-10-02T10:04:16Z</time>
      </trkpt>
      <trkpt lat="43.22555" lon="5.49592">
        <ele>340</ele>
        <time>2019-10-02T10:04:22Z</time>
      </trkpt>
      <trkpt lat="43.22549" lon="5.49589">
        <ele>337</ele>
        <time>2019-10-02T10:04:30Z</time>
      </trkpt>
      <trkpt lat="43.22544" lon="5.49587">
        <ele>336</ele>
        <time>2019-10-02T10:04:36Z</time>
      </trkpt>
      <trkpt lat="43.2254" lon="5.49585">
        <ele>335</ele>
        <time>2019-10-02T10:04:42Z</time>
      </trkpt>
      <trkpt lat="43.22535" lon="5.49584">
        <ele>336</ele>
        <time>2019-10-02T10:04:46Z</time>
      </trkpt>
      <trkpt lat="43.22529" lon="5.49582">
        <ele>335</ele>
        <time>2019-10-02T10:04:52Z</time>
      </trkpt>
      <trkpt lat="43.22525" lon="5.49585">
        <ele>336</ele>
        <time>2019-10-02T10:04:56Z</time>
      </trkpt>
      <trkpt lat="43.22519" lon="5.49588">
        <ele>336</ele>
        <time>2019-10-02T10:05:04Z</time>
      </trkpt>
      <trkpt lat="43.22518" lon="5.49594">
        <ele>337</ele>
        <time>2019-10-02T10:05:20Z</time>
      </trkpt>
      <trkpt lat="43.22516" lon="5.49601">
        <ele>336</ele>
        <time>2019-10-02T10:08:22Z</time>
      </trkpt>
      <trkpt lat="43.22515" lon="5.49608">
        <ele>337</ele>
        <time>2019-10-02T10:08:30Z</time>
      </trkpt>
      <trkpt lat="43.22513" lon="5.49616">
        <ele>336</ele>
        <time>2019-10-02T10:08:38Z</time>
      </trkpt>
      <trkpt lat="43.22512" lon="5.49624">
        <ele>336</ele>
        <time>2019-10-02T10:08:44Z</time>
      </trkpt>
      <trkpt lat="43.22509" lon="5.49631">
        <ele>337</ele>
        <time>2019-10-02T10:08:52Z</time>
      </trkpt>
      <trkpt lat="43.22507" lon="5.4964">
        <ele>338</ele>
        <time>2019-10-02T10:08:58Z</time>
      </trkpt>
      <trkpt lat="43.22505" lon="5.49648">
        <ele>337</ele>
        <time>2019-10-02T10:09:04Z</time>
      </trkpt>
      <trkpt lat="43.22503" lon="5.49654">
        <ele>337</ele>
        <time>2019-10-02T10:09:10Z</time>
      </trkpt>
      <trkpt lat="43.22501" lon="5.49661">
        <ele>337</ele>
        <time>2019-10-02T10:09:16Z</time>
      </trkpt>
      <trkpt lat="43.22499" lon="5.49668">
        <ele>336</ele>
        <time>2019-10-02T10:09:22Z</time>
      </trkpt>
      <trkpt lat="43.22499" lon="5.49677">
        <ele>333</ele>
        <time>2019-10-02T10:09:28Z</time>
      </trkpt>
      <trkpt lat="43.22498" lon="5.49686">
        <ele>333</ele>
        <time>2019-10-02T10:09:34Z</time>
      </trkpt>
      <trkpt lat="43.22499" lon="5.49692">
        <ele>332</ele>
        <time>2019-10-02T10:09:38Z</time>
      </trkpt>
      <trkpt lat="43.22501" lon="5.497">
        <ele>332</ele>
        <time>2019-10-02T10:09:44Z</time>
      </trkpt>
      <trkpt lat="43.22503" lon="5.49706">
        <ele>331</ele>
        <time>2019-10-02T10:09:50Z</time>
      </trkpt>
      <trkpt lat="43.22503" lon="5.49714">
        <ele>332</ele>
        <time>2019-10-02T10:09:56Z</time>
      </trkpt>
      <trkpt lat="43.22505" lon="5.49721">
        <ele>329</ele>
        <time>2019-10-02T10:10:06Z</time>
      </trkpt>
      <trkpt lat="43.22505" lon="5.49729">
        <ele>329</ele>
        <time>2019-10-02T10:10:16Z</time>
      </trkpt>
      <trkpt lat="43.22502" lon="5.49735">
        <ele>327</ele>
        <time>2019-10-02T10:10:24Z</time>
      </trkpt>
      <trkpt lat="43.22497" lon="5.49738">
        <ele>326</ele>
        <time>2019-10-02T10:10:32Z</time>
      </trkpt>
      <trkpt lat="43.22492" lon="5.49739">
        <ele>324</ele>
        <time>2019-10-02T10:10:42Z</time>
      </trkpt>
      <trkpt lat="43.22487" lon="5.49739">
        <ele>321</ele>
        <time>2019-10-02T10:10:50Z</time>
      </trkpt>
      <trkpt lat="43.22482" lon="5.49738">
        <ele>319</ele>
        <time>2019-10-02T10:10:58Z</time>
      </trkpt>
      <trkpt lat="43.22477" lon="5.49737">
        <ele>319</ele>
        <time>2019-10-02T10:11:04Z</time>
      </trkpt>
      <trkpt lat="43.22471" lon="5.49735">
        <ele>319</ele>
        <time>2019-10-02T10:11:14Z</time>
      </trkpt>
      <trkpt lat="43.22467" lon="5.49734">
        <ele>319</ele>
        <time>2019-10-02T10:11:20Z</time>
      </trkpt>
      <trkpt lat="43.22461" lon="5.49733">
        <ele>316</ele>
        <time>2019-10-02T10:11:28Z</time>
      </trkpt>
      <trkpt lat="43.22455" lon="5.4973">
        <ele>315</ele>
        <time>2019-10-02T10:11:36Z</time>
      </trkpt>
      <trkpt lat="43.2245" lon="5.49728">
        <ele>313</ele>
        <time>2019-10-02T10:11:42Z</time>
      </trkpt>
      <trkpt lat="43.22445" lon="5.49727">
        <ele>312</ele>
        <time>2019-10-02T10:11:48Z</time>
      </trkpt>
      <trkpt lat="43.22439" lon="5.49728">
        <ele>310</ele>
        <time>2019-10-02T10:11:56Z</time>
      </trkpt>
      <trkpt lat="43.22434" lon="5.49729">
        <ele>310</ele>
        <time>2019-10-02T10:12:02Z</time>
      </trkpt>
      <trkpt lat="43.22429" lon="5.49728">
        <ele>309</ele>
        <time>2019-10-02T10:12:10Z</time>
      </trkpt>
      <trkpt lat="43.22424" lon="5.49731">
        <ele>309</ele>
        <time>2019-10-02T10:12:18Z</time>
      </trkpt>
      <trkpt lat="43.2242" lon="5.49736">
        <ele>307</ele>
        <time>2019-10-02T10:12:24Z</time>
      </trkpt>
      <trkpt lat="43.22417" lon="5.49741">
        <ele>305</ele>
        <time>2019-10-02T10:12:32Z</time>
      </trkpt>
      <trkpt lat="43.22413" lon="5.49745">
        <ele>303</ele>
        <time>2019-10-02T10:12:40Z</time>
      </trkpt>
      <trkpt lat="43.22409" lon="5.49749">
        <ele>302</ele>
        <time>2019-10-02T10:12:48Z</time>
      </trkpt>
      <trkpt lat="43.22404" lon="5.49751">
        <ele>302</ele>
        <time>2019-10-02T10:12:56Z</time>
      </trkpt>
      <trkpt lat="43.22399" lon="5.49753">
        <ele>301</ele>
        <time>2019-10-02T10:13:02Z</time>
      </trkpt>
      <trkpt lat="43.22394" lon="5.49756">
        <ele>299</ele>
        <time>2019-10-02T10:13:12Z</time>
      </trkpt>
      <trkpt lat="43.22389" lon="5.49759">
        <ele>295</ele>
        <time>2019-10-02T10:13:20Z</time>
      </trkpt>
      <trkpt lat="43.22384" lon="5.4976">
        <ele>297</ele>
        <time>2019-10-02T10:13:26Z</time>
      </trkpt>
      <trkpt lat="43.22378" lon="5.49761">
        <ele>297</ele>
        <time>2019-10-02T10:13:34Z</time>
      </trkpt>
      <trkpt lat="43.22374" lon="5.49764">
        <ele>295</ele>
        <time>2019-10-02T10:13:40Z</time>
      </trkpt>
      <trkpt lat="43.22369" lon="5.49769">
        <ele>294</ele>
        <time>2019-10-02T10:13:48Z</time>
      </trkpt>
      <trkpt lat="43.22365" lon="5.49773">
        <ele>293</ele>
        <time>2019-10-02T10:13:54Z</time>
      </trkpt>
      <trkpt lat="43.22361" lon="5.49776">
        <ele>291</ele>
        <time>2019-10-02T10:14:00Z</time>
      </trkpt>
      <trkpt lat="43.22357" lon="5.49781">
        <ele>290</ele>
        <time>2019-10-02T10:14:06Z</time>
      </trkpt>
      <trkpt lat="43.22353" lon="5.49785">
        <ele>289</ele>
        <time>2019-10-02T10:14:12Z</time>
      </trkpt>
      <trkpt lat="43.22348" lon="5.49789">
        <ele>290</ele>
        <time>2019-10-02T10:14:18Z</time>
      </trkpt>
      <trkpt lat="43.22343" lon="5.49791">
        <ele>288</ele>
        <time>2019-10-02T10:14:24Z</time>
      </trkpt>
      <trkpt lat="43.22338" lon="5.49792">
        <ele>287</ele>
        <time>2019-10-02T10:14:30Z</time>
      </trkpt>
      <trkpt lat="43.22332" lon="5.49794">
        <ele>287</ele>
        <time>2019-10-02T10:14:38Z</time>
      </trkpt>
      <trkpt lat="43.22327" lon="5.49795">
        <ele>285</ele>
        <time>2019-10-02T10:14:46Z</time>
      </trkpt>
      <trkpt lat="43.22322" lon="5.49796">
        <ele>286</ele>
        <time>2019-10-02T10:14:52Z</time>
      </trkpt>
      <trkpt lat="43.22317" lon="5.498">
        <ele>284</ele>
        <time>2019-10-02T10:14:58Z</time>
      </trkpt>
      <trkpt lat="43.22312" lon="5.49803">
        <ele>282</ele>
        <time>2019-10-02T10:15:06Z</time>
      </trkpt>
      <trkpt lat="43.22307" lon="5.49806">
        <ele>282</ele>
        <time>2019-10-02T10:15:12Z</time>
      </trkpt>
      <trkpt lat="43.22302" lon="5.49807">
        <ele>281</ele>
        <time>2019-10-02T10:15:20Z</time>
      </trkpt>
      <trkpt lat="43.22297" lon="5.4981">
        <ele>281</ele>
        <time>2019-10-02T10:15:28Z</time>
      </trkpt>
      <trkpt lat="43.22292" lon="5.49813">
        <ele>280</ele>
        <time>2019-10-02T10:15:36Z</time>
      </trkpt>
      <trkpt lat="43.22288" lon="5.49815">
        <ele>277</ele>
        <time>2019-10-02T10:15:44Z</time>
      </trkpt>
      <trkpt lat="43.22283" lon="5.49817">
        <ele>275</ele>
        <time>2019-10-02T10:15:52Z</time>
      </trkpt>
      <trkpt lat="43.22277" lon="5.49818">
        <ele>274</ele>
        <time>2019-10-02T10:16:00Z</time>
      </trkpt>
      <trkpt lat="43.22272" lon="5.49818">
        <ele>275</ele>
        <time>2019-10-02T10:16:08Z</time>
      </trkpt>
      <trkpt lat="43.22267" lon="5.49819">
        <ele>273</ele>
        <time>2019-10-02T10:16:18Z</time>
      </trkpt>
      <trkpt lat="43.22262" lon="5.49822">
        <ele>271</ele>
        <time>2019-10-02T10:16:26Z</time>
      </trkpt>
      <trkpt lat="43.22258" lon="5.49823">
        <ele>271</ele>
        <time>2019-10-02T10:16:32Z</time>
      </trkpt>
      <trkpt lat="43.22253" lon="5.49824">
        <ele>269</ele>
        <time>2019-10-02T10:16:38Z</time>
      </trkpt>
      <trkpt lat="43.22248" lon="5.49826">
        <ele>268</ele>
        <time>2019-10-02T10:16:46Z</time>
      </trkpt>
      <trkpt lat="43.22243" lon="5.49828">
        <ele>267</ele>
        <time>2019-10-02T10:16:52Z</time>
      </trkpt>
      <trkpt lat="43.22238" lon="5.4983">
        <ele>262</ele>
        <time>2019-10-02T10:17:00Z</time>
      </trkpt>
      <trkpt lat="43.22233" lon="5.49831">
        <ele>263</ele>
        <time>2019-10-02T10:17:06Z</time>
      </trkpt>
      <trkpt lat="43.22227" lon="5.49832">
        <ele>262</ele>
        <time>2019-10-02T10:17:12Z</time>
      </trkpt>
      <trkpt lat="43.22223" lon="5.49834">
        <ele>260</ele>
        <time>2019-10-02T10:17:18Z</time>
      </trkpt>
      <trkpt lat="43.22218" lon="5.49837">
        <ele>258</ele>
        <time>2019-10-02T10:17:26Z</time>
      </trkpt>
      <trkpt lat="43.22213" lon="5.49841">
        <ele>255</ele>
        <time>2019-10-02T10:17:34Z</time>
      </trkpt>
      <trkpt lat="43.22208" lon="5.49845">
        <ele>254</ele>
        <time>2019-10-02T10:17:40Z</time>
      </trkpt>
      <trkpt lat="43.22202" lon="5.49849">
        <ele>255</ele>
        <time>2019-10-02T10:17:46Z</time>
      </trkpt>
      <trkpt lat="43.22197" lon="5.4985">
        <ele>253</ele>
        <time>2019-10-02T10:17:52Z</time>
      </trkpt>
      <trkpt lat="43.22193" lon="5.49852">
        <ele>251</ele>
        <time>2019-10-02T10:17:58Z</time>
      </trkpt>
      <trkpt lat="43.22188" lon="5.49855">
        <ele>252</ele>
        <time>2019-10-02T10:18:04Z</time>
      </trkpt>
      <trkpt lat="43.22183" lon="5.4986">
        <ele>250</ele>
        <time>2019-10-02T10:18:10Z</time>
      </trkpt>
      <trkpt lat="43.22178" lon="5.49863">
        <ele>248</ele>
        <time>2019-10-02T10:18:18Z</time>
      </trkpt>
      <trkpt lat="43.22172" lon="5.49866">
        <ele>250</ele>
        <time>2019-10-02T10:18:24Z</time>
      </trkpt>
      <trkpt lat="43.22168" lon="5.49867">
        <ele>252</ele>
        <time>2019-10-02T10:18:28Z</time>
      </trkpt>
      <trkpt lat="43.22163" lon="5.4987">
        <ele>250</ele>
        <time>2019-10-02T10:18:36Z</time>
      </trkpt>
      <trkpt lat="43.22157" lon="5.49872">
        <ele>248</ele>
        <time>2019-10-02T10:18:42Z</time>
      </trkpt>
      <trkpt lat="43.22152" lon="5.49875">
        <ele>248</ele>
        <time>2019-10-02T10:18:48Z</time>
      </trkpt>
      <trkpt lat="43.22148" lon="5.49877">
        <ele>247</ele>
        <time>2019-10-02T10:18:54Z</time>
      </trkpt>
      <trkpt lat="43.22143" lon="5.49878">
        <ele>246</ele>
        <time>2019-10-02T10:19:00Z</time>
      </trkpt>
      <trkpt lat="43.22138" lon="5.49877">
        <ele>248</ele>
        <time>2019-10-02T10:19:16Z</time>
      </trkpt>
      <trkpt lat="43.22138" lon="5.4987">
        <ele>249</ele>
        <time>2019-10-02T10:19:24Z</time>
      </trkpt>
      <trkpt lat="43.22134" lon="5.49865">
        <ele>250</ele>
        <time>2019-10-02T10:19:30Z</time>
      </trkpt>
      <trkpt lat="43.22127" lon="5.49865">
        <ele>251</ele>
        <time>2019-10-02T10:19:36Z</time>
      </trkpt>
      <trkpt lat="43.22122" lon="5.49865">
        <ele>251</ele>
        <time>2019-10-02T10:19:42Z</time>
      </trkpt>
      <trkpt lat="43.22118" lon="5.49867">
        <ele>253</ele>
        <time>2019-10-02T10:19:48Z</time>
      </trkpt>
      <trkpt lat="43.22112" lon="5.49871">
        <ele>256</ele>
        <time>2019-10-02T10:19:56Z</time>
      </trkpt>
      <trkpt lat="43.22108" lon="5.49873">
        <ele>257</ele>
        <time>2019-10-02T10:20:02Z</time>
      </trkpt>
      <trkpt lat="43.22102" lon="5.49874">
        <ele>257</ele>
        <time>2019-10-02T10:20:08Z</time>
      </trkpt>
      <trkpt lat="43.22096" lon="5.49875">
        <ele>258</ele>
        <time>2019-10-02T10:20:14Z</time>
      </trkpt>
      <trkpt lat="43.2209" lon="5.49876">
        <ele>258</ele>
        <time>2019-10-02T10:20:20Z</time>
      </trkpt>
      <trkpt lat="43.22084" lon="5.49877">
        <ele>259</ele>
        <time>2019-10-02T10:20:26Z</time>
      </trkpt>
      <trkpt lat="43.22079" lon="5.4988">
        <ele>259</ele>
        <time>2019-10-02T10:20:32Z</time>
      </trkpt>
      <trkpt lat="43.22073" lon="5.49881">
        <ele>258</ele>
        <time>2019-10-02T10:20:38Z</time>
      </trkpt>
      <trkpt lat="43.22068" lon="5.49881">
        <ele>258</ele>
        <time>2019-10-02T10:20:44Z</time>
      </trkpt>
      <trkpt lat="43.22062" lon="5.49882">
        <ele>259</ele>
        <time>2019-10-02T10:20:50Z</time>
      </trkpt>
      <trkpt lat="43.22057" lon="5.49884">
        <ele>257</ele>
        <time>2019-10-02T10:20:58Z</time>
      </trkpt>
      <trkpt lat="43.22053" lon="5.49885">
        <ele>258</ele>
        <time>2019-10-02T10:21:02Z</time>
      </trkpt>
      <trkpt lat="43.22046" lon="5.49888">
        <ele>257</ele>
        <time>2019-10-02T10:21:10Z</time>
      </trkpt>
      <trkpt lat="43.22042" lon="5.49892">
        <ele>257</ele>
        <time>2019-10-02T10:21:14Z</time>
      </trkpt>
      <trkpt lat="43.22037" lon="5.49895">
        <ele>256</ele>
        <time>2019-10-02T10:21:20Z</time>
      </trkpt>
      <trkpt lat="43.22031" lon="5.49898">
        <ele>256</ele>
        <time>2019-10-02T10:21:26Z</time>
      </trkpt>
      <trkpt lat="43.22026" lon="5.499">
        <ele>256</ele>
        <time>2019-10-02T10:21:30Z</time>
      </trkpt>
      <trkpt lat="43.2202" lon="5.49903">
        <ele>257</ele>
        <time>2019-10-02T10:21:36Z</time>
      </trkpt>
      <trkpt lat="43.22014" lon="5.49904">
        <ele>257</ele>
        <time>2019-10-02T10:21:42Z</time>
      </trkpt>
      <trkpt lat="43.22009" lon="5.49907">
        <ele>257</ele>
        <time>2019-10-02T10:21:46Z</time>
      </trkpt>
      <trkpt lat="43.22003" lon="5.49908">
        <ele>256</ele>
        <time>2019-10-02T10:21:52Z</time>
      </trkpt>
      <trkpt lat="43.21997" lon="5.49911">
        <ele>255</ele>
        <time>2019-10-02T10:21:58Z</time>
      </trkpt>
      <trkpt lat="43.21992" lon="5.49912">
        <ele>257</ele>
        <time>2019-10-02T10:22:02Z</time>
      </trkpt>
      <trkpt lat="43.21987" lon="5.49913">
        <ele>256</ele>
        <time>2019-10-02T10:22:08Z</time>
      </trkpt>
      <trkpt lat="43.21981" lon="5.49913">
        <ele>256</ele>
        <time>2019-10-02T10:22:14Z</time>
      </trkpt>
      <trkpt lat="43.21975" lon="5.49913">
        <ele>256</ele>
        <time>2019-10-02T10:22:20Z</time>
      </trkpt>
      <trkpt lat="43.21969" lon="5.49912">
        <ele>255</ele>
        <time>2019-10-02T10:22:26Z</time>
      </trkpt>
      <trkpt lat="43.21963" lon="5.49909">
        <ele>253</ele>
        <time>2019-10-02T10:22:32Z</time>
      </trkpt>
      <trkpt lat="43.21958" lon="5.49906">
        <ele>253</ele>
        <time>2019-10-02T10:22:38Z</time>
      </trkpt>
      <trkpt lat="43.21952" lon="5.49901">
        <ele>252</ele>
        <time>2019-10-02T10:22:44Z</time>
      </trkpt>
      <trkpt lat="43.21947" lon="5.49897">
        <ele>252</ele>
        <time>2019-10-02T10:22:50Z</time>
      </trkpt>
      <trkpt lat="43.21942" lon="5.49892">
        <ele>251</ele>
        <time>2019-10-02T10:22:56Z</time>
      </trkpt>
      <trkpt lat="43.21937" lon="5.49886">
        <ele>253</ele>
        <time>2019-10-02T10:23:02Z</time>
      </trkpt>
      <trkpt lat="43.21934" lon="5.49882">
        <ele>252</ele>
        <time>2019-10-02T10:23:06Z</time>
      </trkpt>
      <trkpt lat="43.21929" lon="5.49876">
        <ele>252</ele>
        <time>2019-10-02T10:23:12Z</time>
      </trkpt>
      <trkpt lat="43.21924" lon="5.49871">
        <ele>251</ele>
        <time>2019-10-02T10:23:18Z</time>
      </trkpt>
      <trkpt lat="43.21919" lon="5.49866">
        <ele>251</ele>
        <time>2019-10-02T10:23:24Z</time>
      </trkpt>
      <trkpt lat="43.21914" lon="5.4986">
        <ele>251</ele>
        <time>2019-10-02T10:23:30Z</time>
      </trkpt>
      <trkpt lat="43.21908" lon="5.49855">
        <ele>249</ele>
        <time>2019-10-02T10:23:36Z</time>
      </trkpt>
      <trkpt lat="43.21903" lon="5.4985">
        <ele>248</ele>
        <time>2019-10-02T10:23:42Z</time>
      </trkpt>
      <trkpt lat="43.21898" lon="5.49847">
        <ele>247</ele>
        <time>2019-10-02T10:23:48Z</time>
      </trkpt>
      <trkpt lat="43.21894" lon="5.49844">
        <ele>247</ele>
        <time>2019-10-02T10:23:54Z</time>
      </trkpt>
      <trkpt lat="43.21889" lon="5.49842">
        <ele>248</ele>
        <time>2019-10-02T10:24:04Z</time>
      </trkpt>
      <trkpt lat="43.21885" lon="5.49837">
        <ele>248</ele>
        <time>2019-10-02T10:24:28Z</time>
      </trkpt>
      <trkpt lat="43.21882" lon="5.49832">
        <ele>248</ele>
        <time>2019-10-02T10:24:34Z</time>
      </trkpt>
      <trkpt lat="43.2188" lon="5.49823">
        <ele>247</ele>
        <time>2019-10-02T10:24:40Z</time>
      </trkpt>
      <trkpt lat="43.21881" lon="5.49815">
        <ele>246</ele>
        <time>2019-10-02T10:24:46Z</time>
      </trkpt>
      <trkpt lat="43.21883" lon="5.49808">
        <ele>245</ele>
        <time>2019-10-02T10:24:52Z</time>
      </trkpt>
      <trkpt lat="43.21885" lon="5.498">
        <ele>245</ele>
        <time>2019-10-02T10:24:58Z</time>
      </trkpt>
      <trkpt lat="43.21887" lon="5.49793">
        <ele>244</ele>
        <time>2019-10-02T10:25:04Z</time>
      </trkpt>
      <trkpt lat="43.21891" lon="5.49786">
        <ele>246</ele>
        <time>2019-10-02T10:25:12Z</time>
      </trkpt>
      <trkpt lat="43.21894" lon="5.4978">
        <ele>247</ele>
        <time>2019-10-02T10:25:18Z</time>
      </trkpt>
      <trkpt lat="43.21897" lon="5.49775">
        <ele>246</ele>
        <time>2019-10-02T10:25:22Z</time>
      </trkpt>
      <trkpt lat="43.219" lon="5.4977">
        <ele>247</ele>
        <time>2019-10-02T10:25:28Z</time>
      </trkpt>
      <trkpt lat="43.21904" lon="5.49764">
        <ele>247</ele>
        <time>2019-10-02T10:25:34Z</time>
      </trkpt>
      <trkpt lat="43.21907" lon="5.49758">
        <ele>246</ele>
        <time>2019-10-02T10:25:40Z</time>
      </trkpt>
      <trkpt lat="43.21908" lon="5.4975">
        <ele>244</ele>
        <time>2019-10-02T10:25:46Z</time>
      </trkpt>
      <trkpt lat="43.21908" lon="5.49743">
        <ele>244</ele>
        <time>2019-10-02T10:25:52Z</time>
      </trkpt>
      <trkpt lat="43.21904" lon="5.49736">
        <ele>244</ele>
        <time>2019-10-02T10:25:58Z</time>
      </trkpt>
      <trkpt lat="43.21898" lon="5.49733">
        <ele>242</ele>
        <time>2019-10-02T10:26:04Z</time>
      </trkpt>
      <trkpt lat="43.21893" lon="5.49732">
        <ele>241</ele>
        <time>2019-10-02T10:26:10Z</time>
      </trkpt>
      <trkpt lat="43.21888" lon="5.49731">
        <ele>240</ele>
        <time>2019-10-02T10:26:16Z</time>
      </trkpt>
      <trkpt lat="43.21882" lon="5.4973">
        <ele>239</ele>
        <time>2019-10-02T10:26:22Z</time>
      </trkpt>
      <trkpt lat="43.21877" lon="5.4973">
        <ele>239</ele>
        <time>2019-10-02T10:26:28Z</time>
      </trkpt>
      <trkpt lat="43.2187" lon="5.49729">
        <ele>238</ele>
        <time>2019-10-02T10:26:34Z</time>
      </trkpt>
      <trkpt lat="43.21866" lon="5.49729">
        <ele>238</ele>
        <time>2019-10-02T10:26:38Z</time>
      </trkpt>
      <trkpt lat="43.21861" lon="5.49731">
        <ele>236</ele>
        <time>2019-10-02T10:26:46Z</time>
      </trkpt>
      <trkpt lat="43.21856" lon="5.49732">
        <ele>234</ele>
        <time>2019-10-02T10:26:56Z</time>
      </trkpt>
      <trkpt lat="43.21851" lon="5.49731">
        <ele>234</ele>
        <time>2019-10-02T10:27:00Z</time>
      </trkpt>
      <trkpt lat="43.21846" lon="5.4973">
        <ele>234</ele>
        <time>2019-10-02T10:27:04Z</time>
      </trkpt>
      <trkpt lat="43.21842" lon="5.4973">
        <ele>234</ele>
        <time>2019-10-02T10:27:08Z</time>
      </trkpt>
      <trkpt lat="43.21836" lon="5.49731">
        <ele>232</ele>
        <time>2019-10-02T10:27:14Z</time>
      </trkpt>
      <trkpt lat="43.2183" lon="5.49732">
        <ele>232</ele>
        <time>2019-10-02T10:27:20Z</time>
      </trkpt>
      <trkpt lat="43.21824" lon="5.49734">
        <ele>231</ele>
        <time>2019-10-02T10:27:26Z</time>
      </trkpt>
      <trkpt lat="43.2182" lon="5.49735">
        <ele>231</ele>
        <time>2019-10-02T10:27:30Z</time>
      </trkpt>
      <trkpt lat="43.21813" lon="5.49738">
        <ele>232</ele>
        <time>2019-10-02T10:27:36Z</time>
      </trkpt>
      <trkpt lat="43.21808" lon="5.49739">
        <ele>231</ele>
        <time>2019-10-02T10:27:42Z</time>
      </trkpt>
      <trkpt lat="43.21805" lon="5.49733">
        <ele>230</ele>
        <time>2019-10-02T10:27:52Z</time>
      </trkpt>
      <trkpt lat="43.21808" lon="5.49727">
        <ele>228</ele>
        <time>2019-10-02T10:28:02Z</time>
      </trkpt>
      <trkpt lat="43.21813" lon="5.49724">
        <ele>228</ele>
        <time>2019-10-02T10:28:10Z</time>
      </trkpt>
      <trkpt lat="43.21817" lon="5.49719">
        <ele>226</ele>
        <time>2019-10-02T10:28:16Z</time>
      </trkpt>
      <trkpt lat="43.21822" lon="5.49713">
        <ele>223</ele>
        <time>2019-10-02T10:28:22Z</time>
      </trkpt>
      <trkpt lat="43.21825" lon="5.49706">
        <ele>223</ele>
        <time>2019-10-02T10:28:28Z</time>
      </trkpt>
      <trkpt lat="43.21828" lon="5.49699">
        <ele>223</ele>
        <time>2019-10-02T10:28:34Z</time>
      </trkpt>
      <trkpt lat="43.21831" lon="5.49694">
        <ele>223</ele>
        <time>2019-10-02T10:28:40Z</time>
      </trkpt>
      <trkpt lat="43.21835" lon="5.49688">
        <ele>223</ele>
        <time>2019-10-02T10:28:46Z</time>
      </trkpt>
      <trkpt lat="43.21839" lon="5.49683">
        <ele>222</ele>
        <time>2019-10-02T10:28:52Z</time>
      </trkpt>
      <trkpt lat="43.21843" lon="5.49676">
        <ele>220</ele>
        <time>2019-10-02T10:28:58Z</time>
      </trkpt>
      <trkpt lat="43.21846" lon="5.49668">
        <ele>218</ele>
        <time>2019-10-02T10:29:04Z</time>
      </trkpt>
      <trkpt lat="43.21849" lon="5.49661">
        <ele>216</ele>
        <time>2019-10-02T10:29:10Z</time>
      </trkpt>
      <trkpt lat="43.21853" lon="5.49656">
        <ele>215</ele>
        <time>2019-10-02T10:29:16Z</time>
      </trkpt>
      <trkpt lat="43.21856" lon="5.49648">
        <ele>214</ele>
        <time>2019-10-02T10:29:22Z</time>
      </trkpt>
      <trkpt lat="43.21859" lon="5.49642">
        <ele>214</ele>
        <time>2019-10-02T10:29:28Z</time>
      </trkpt>
      <trkpt lat="43.21861" lon="5.49636">
        <ele>214</ele>
        <time>2019-10-02T10:29:34Z</time>
      </trkpt>
      <trkpt lat="43.21865" lon="5.4963">
        <ele>212</ele>
        <time>2019-10-02T10:29:40Z</time>
      </trkpt>
      <trkpt lat="43.2187" lon="5.49626">
        <ele>210</ele>
        <time>2019-10-02T10:29:46Z</time>
      </trkpt>
      <trkpt lat="43.21875" lon="5.49623">
        <ele>211</ele>
        <time>2019-10-02T10:29:52Z</time>
      </trkpt>
      <trkpt lat="43.21879" lon="5.4962">
        <ele>211</ele>
        <time>2019-10-02T10:29:58Z</time>
      </trkpt>
      <trkpt lat="43.21885" lon="5.49617">
        <ele>209</ele>
        <time>2019-10-02T10:30:04Z</time>
      </trkpt>
      <trkpt lat="43.21889" lon="5.49612">
        <ele>209</ele>
        <time>2019-10-02T10:30:10Z</time>
      </trkpt>
      <trkpt lat="43.21887" lon="5.49606">
        <ele>209</ele>
        <time>2019-10-02T10:30:16Z</time>
      </trkpt>
      <trkpt lat="43.21881" lon="5.49602">
        <ele>208</ele>
        <time>2019-10-02T10:30:22Z</time>
      </trkpt>
      <trkpt lat="43.21875" lon="5.49601">
        <ele>207</ele>
        <time>2019-10-02T10:30:28Z</time>
      </trkpt>
      <trkpt lat="43.21869" lon="5.49602">
        <ele>204</ele>
        <time>2019-10-02T10:30:34Z</time>
      </trkpt>
      <trkpt lat="43.21863" lon="5.49603">
        <ele>204</ele>
        <time>2019-10-02T10:30:40Z</time>
      </trkpt>
      <trkpt lat="43.21857" lon="5.49604">
        <ele>206</ele>
        <time>2019-10-02T10:30:46Z</time>
      </trkpt>
      <trkpt lat="43.21853" lon="5.49605">
        <ele>206</ele>
        <time>2019-10-02T10:30:52Z</time>
      </trkpt>
      <trkpt lat="43.21848" lon="5.49607">
        <ele>206</ele>
        <time>2019-10-02T10:30:56Z</time>
      </trkpt>
      <trkpt lat="43.21842" lon="5.4961">
        <ele>206</ele>
        <time>2019-10-02T10:31:02Z</time>
      </trkpt>
      <trkpt lat="43.21836" lon="5.49611">
        <ele>206</ele>
        <time>2019-10-02T10:31:08Z</time>
      </trkpt>
      <trkpt lat="43.21832" lon="5.49614">
        <ele>207</ele>
        <time>2019-10-02T10:31:12Z</time>
      </trkpt>
      <trkpt lat="43.21828" lon="5.49619">
        <ele>207</ele>
        <time>2019-10-02T10:31:18Z</time>
      </trkpt>
      <trkpt lat="43.21824" lon="5.49624">
        <ele>208</ele>
        <time>2019-10-02T10:31:24Z</time>
      </trkpt>
      <trkpt lat="43.21819" lon="5.49628">
        <ele>210</ele>
        <time>2019-10-02T10:31:30Z</time>
      </trkpt>
      <trkpt lat="43.21815" lon="5.49634">
        <ele>208</ele>
        <time>2019-10-02T10:31:36Z</time>
      </trkpt>
      <trkpt lat="43.21811" lon="5.49639">
        <ele>207</ele>
        <time>2019-10-02T10:31:42Z</time>
      </trkpt>
      <trkpt lat="43.21806" lon="5.49641">
        <ele>207</ele>
        <time>2019-10-02T10:31:50Z</time>
      </trkpt>
      <trkpt lat="43.21801" lon="5.49641">
        <ele>204</ele>
        <time>2019-10-02T10:32:00Z</time>
      </trkpt>
      <trkpt lat="43.21796" lon="5.49644">
        <ele>199</ele>
        <time>2019-10-02T10:32:06Z</time>
      </trkpt>
      <trkpt lat="43.21792" lon="5.49647">
        <ele>195</ele>
        <time>2019-10-02T10:32:10Z</time>
      </trkpt>
      <trkpt lat="43.21787" lon="5.49651">
        <ele>193</ele>
        <time>2019-10-02T10:32:14Z</time>
      </trkpt>
      <trkpt lat="43.21783" lon="5.49657">
        <ele>195</ele>
        <time>2019-10-02T10:32:20Z</time>
      </trkpt>
      <trkpt lat="43.2178" lon="5.49662">
        <ele>194</ele>
        <time>2019-10-02T10:32:26Z</time>
      </trkpt>
      <trkpt lat="43.21777" lon="5.49668">
        <ele>194</ele>
        <time>2019-10-02T10:32:30Z</time>
      </trkpt>
      <trkpt lat="43.21774" lon="5.49673">
        <ele>196</ele>
        <time>2019-10-02T10:32:34Z</time>
      </trkpt>
      <trkpt lat="43.2177" lon="5.49677">
        <ele>198</ele>
        <time>2019-10-02T10:32:38Z</time>
      </trkpt>
      <trkpt lat="43.21765" lon="5.49679">
        <ele>197</ele>
        <time>2019-10-02T10:32:44Z</time>
      </trkpt>
      <trkpt lat="43.21761" lon="5.49676">
        <ele>200</ele>
        <time>2019-10-02T10:32:50Z</time>
      </trkpt>
      <trkpt lat="43.21757" lon="5.49672">
        <ele>198</ele>
        <time>2019-10-02T10:32:56Z</time>
      </trkpt>
      <trkpt lat="43.21753" lon="5.49666">
        <ele>198</ele>
        <time>2019-10-02T10:33:02Z</time>
      </trkpt>
      <trkpt lat="43.21749" lon="5.4966">
        <ele>198</ele>
        <time>2019-10-02T10:33:08Z</time>
      </trkpt>
      <trkpt lat="43.21746" lon="5.49655">
        <ele>195</ele>
        <time>2019-10-02T10:33:14Z</time>
      </trkpt>
      <trkpt lat="43.21744" lon="5.4965">
        <ele>193</ele>
        <time>2019-10-02T10:33:20Z</time>
      </trkpt>
      <trkpt lat="43.21741" lon="5.49642">
        <ele>193</ele>
        <time>2019-10-02T10:33:26Z</time>
      </trkpt>
      <trkpt lat="43.21738" lon="5.49636">
        <ele>194</ele>
        <time>2019-10-02T10:33:32Z</time>
      </trkpt>
      <trkpt lat="43.21736" lon="5.49631">
        <ele>193</ele>
        <time>2019-10-02T10:33:36Z</time>
      </trkpt>
      <trkpt lat="43.21733" lon="5.49624">
        <ele>192</ele>
        <time>2019-10-02T10:33:42Z</time>
      </trkpt>
      <trkpt lat="43.2173" lon="5.49616">
        <ele>192</ele>
        <time>2019-10-02T10:33:48Z</time>
      </trkpt>
      <trkpt lat="43.21727" lon="5.4961">
        <ele>193</ele>
        <time>2019-10-02T10:33:54Z</time>
      </trkpt>
      <trkpt lat="43.21726" lon="5.49603">
        <ele>193</ele>
        <time>2019-10-02T10:34:00Z</time>
      </trkpt>
      <trkpt lat="43.21724" lon="5.49596">
        <ele>192</ele>
        <time>2019-10-02T10:34:06Z</time>
      </trkpt>
      <trkpt lat="43.21723" lon="5.49589">
        <ele>189</ele>
        <time>2019-10-02T10:34:12Z</time>
      </trkpt>
      <trkpt lat="43.2172" lon="5.49582">
        <ele>189</ele>
        <time>2019-10-02T10:34:18Z</time>
      </trkpt>
      <trkpt lat="43.21717" lon="5.49574">
        <ele>190</ele>
        <time>2019-10-02T10:34:26Z</time>
      </trkpt>
      <trkpt lat="43.21713" lon="5.49567">
        <ele>190</ele>
        <time>2019-10-02T10:34:32Z</time>
      </trkpt>
      <trkpt lat="43.21709" lon="5.4956">
        <ele>190</ele>
        <time>2019-10-02T10:34:38Z</time>
      </trkpt>
      <trkpt lat="43.21707" lon="5.49554">
        <ele>189</ele>
        <time>2019-10-02T10:34:44Z</time>
      </trkpt>
      <trkpt lat="43.21704" lon="5.49547">
        <ele>189</ele>
        <time>2019-10-02T10:34:50Z</time>
      </trkpt>
      <trkpt lat="43.217" lon="5.49541">
        <ele>189</ele>
        <time>2019-10-02T10:34:56Z</time>
      </trkpt>
      <trkpt lat="43.21696" lon="5.49535">
        <ele>190</ele>
        <time>2019-10-02T10:35:02Z</time>
      </trkpt>
      <trkpt lat="43.21692" lon="5.49529">
        <ele>189</ele>
        <time>2019-10-02T10:35:08Z</time>
      </trkpt>
      <trkpt lat="43.21688" lon="5.49523">
        <ele>188</ele>
        <time>2019-10-02T10:35:14Z</time>
      </trkpt>
      <trkpt lat="43.21686" lon="5.49516">
        <ele>186</ele>
        <time>2019-10-02T10:35:20Z</time>
      </trkpt>
      <trkpt lat="43.21683" lon="5.49512">
        <ele>185</ele>
        <time>2019-10-02T10:35:24Z</time>
      </trkpt>
      <trkpt lat="43.21679" lon="5.49508">
        <ele>184</ele>
        <time>2019-10-02T10:35:28Z</time>
      </trkpt>
      <trkpt lat="43.21676" lon="5.49502">
        <ele>184</ele>
        <time>2019-10-02T10:35:34Z</time>
      </trkpt>
      <trkpt lat="43.21673" lon="5.49496">
        <ele>184</ele>
        <time>2019-10-02T10:35:40Z</time>
      </trkpt>
      <trkpt lat="43.21669" lon="5.4949">
        <ele>183</ele>
        <time>2019-10-02T10:35:46Z</time>
      </trkpt>
      <trkpt lat="43.21665" lon="5.49483">
        <ele>184</ele>
        <time>2019-10-02T10:35:52Z</time>
      </trkpt>
      <trkpt lat="43.2166" lon="5.49476">
        <ele>184</ele>
        <time>2019-10-02T10:35:58Z</time>
      </trkpt>
      <trkpt lat="43.21657" lon="5.49469">
        <ele>183</ele>
        <time>2019-10-02T10:36:04Z</time>
      </trkpt>
      <trkpt lat="43.21655" lon="5.49462">
        <ele>184</ele>
        <time>2019-10-02T10:36:10Z</time>
      </trkpt>
      <trkpt lat="43.21651" lon="5.49455">
        <ele>185</ele>
        <time>2019-10-02T10:36:16Z</time>
      </trkpt>
      <trkpt lat="43.21646" lon="5.4945">
        <ele>184</ele>
        <time>2019-10-02T10:36:22Z</time>
      </trkpt>
      <trkpt lat="43.21641" lon="5.49447">
        <ele>183</ele>
        <time>2019-10-02T10:36:30Z</time>
      </trkpt>
      <trkpt lat="43.21636" lon="5.49448">
        <ele>181</ele>
        <time>2019-10-02T10:36:36Z</time>
      </trkpt>
      <trkpt lat="43.21629" lon="5.49449">
        <ele>177</ele>
        <time>2019-10-02T10:36:42Z</time>
      </trkpt>
      <trkpt lat="43.21624" lon="5.49451">
        <ele>176</ele>
        <time>2019-10-02T10:36:48Z</time>
      </trkpt>
      <trkpt lat="43.2162" lon="5.49452">
        <ele>176</ele>
        <time>2019-10-02T10:36:54Z</time>
      </trkpt>
      <trkpt lat="43.21613" lon="5.49453">
        <ele>175</ele>
        <time>2019-10-02T10:37:00Z</time>
      </trkpt>
      <trkpt lat="43.21608" lon="5.49453">
        <ele>173</ele>
        <time>2019-10-02T10:37:10Z</time>
      </trkpt>
      <trkpt lat="43.21602" lon="5.49451">
        <ele>174</ele>
        <time>2019-10-02T10:37:16Z</time>
      </trkpt>
      <trkpt lat="43.21595" lon="5.49449">
        <ele>174</ele>
        <time>2019-10-02T10:37:22Z</time>
      </trkpt>
      <trkpt lat="43.21591" lon="5.49447">
        <ele>174</ele>
        <time>2019-10-02T10:37:26Z</time>
      </trkpt>
      <trkpt lat="43.21586" lon="5.49443">
        <ele>173</ele>
        <time>2019-10-02T10:37:32Z</time>
      </trkpt>
      <trkpt lat="43.21581" lon="5.49439">
        <ele>172</ele>
        <time>2019-10-02T10:37:38Z</time>
      </trkpt>
      <trkpt lat="43.21576" lon="5.49437">
        <ele>171</ele>
        <time>2019-10-02T10:37:44Z</time>
      </trkpt>
      <trkpt lat="43.21571" lon="5.49433">
        <ele>171</ele>
        <time>2019-10-02T10:37:50Z</time>
      </trkpt>
      <trkpt lat="43.21567" lon="5.49429">
        <ele>173</ele>
        <time>2019-10-02T10:37:56Z</time>
      </trkpt>
      <trkpt lat="43.21561" lon="5.49424">
        <ele>172</ele>
        <time>2019-10-02T10:38:02Z</time>
      </trkpt>
      <trkpt lat="43.21558" lon="5.4942">
        <ele>172</ele>
        <time>2019-10-02T10:38:08Z</time>
      </trkpt>
      <trkpt lat="43.21553" lon="5.49415">
        <ele>173</ele>
        <time>2019-10-02T10:38:14Z</time>
      </trkpt>
      <trkpt lat="43.2155" lon="5.49411">
        <ele>175</ele>
        <time>2019-10-02T10:38:22Z</time>
      </trkpt>
      <trkpt lat="43.21544" lon="5.49408">
        <ele>170</ele>
        <time>2019-10-02T10:38:34Z</time>
      </trkpt>
      <trkpt lat="43.21539" lon="5.49406">
        <ele>165</ele>
        <time>2019-10-02T10:38:38Z</time>
      </trkpt>
      <trkpt lat="43.21534" lon="5.49407">
        <ele>168</ele>
        <time>2019-10-02T10:38:42Z</time>
      </trkpt>
      <trkpt lat="43.21529" lon="5.49408">
        <ele>171</ele>
        <time>2019-10-02T10:38:50Z</time>
      </trkpt>
      <trkpt lat="43.21524" lon="5.49411">
        <ele>171</ele>
        <time>2019-10-02T10:38:54Z</time>
      </trkpt>
      <trkpt lat="43.21519" lon="5.49414">
        <ele>171</ele>
        <time>2019-10-02T10:39:00Z</time>
      </trkpt>
      <trkpt lat="43.21513" lon="5.4942">
        <ele>169</ele>
        <time>2019-10-02T10:39:06Z</time>
      </trkpt>
      <trkpt lat="43.21508" lon="5.49422">
        <ele>171</ele>
        <time>2019-10-02T10:39:10Z</time>
      </trkpt>
      <trkpt lat="43.21503" lon="5.49424">
        <ele>171</ele>
        <time>2019-10-02T10:39:16Z</time>
      </trkpt>
      <trkpt lat="43.21497" lon="5.49424">
        <ele>171</ele>
        <time>2019-10-02T10:39:22Z</time>
      </trkpt>
      <trkpt lat="43.21492" lon="5.49426">
        <ele>170</ele>
        <time>2019-10-02T10:39:28Z</time>
      </trkpt>
      <trkpt lat="43.21487" lon="5.49429">
        <ele>170</ele>
        <time>2019-10-02T10:39:34Z</time>
      </trkpt>
      <trkpt lat="43.21482" lon="5.49433">
        <ele>167</ele>
        <time>2019-10-02T10:39:42Z</time>
      </trkpt>
      <trkpt lat="43.21478" lon="5.49439">
        <ele>165</ele>
        <time>2019-10-02T10:39:48Z</time>
      </trkpt>
      <trkpt lat="43.21473" lon="5.49441">
        <ele>165</ele>
        <time>2019-10-02T10:39:52Z</time>
      </trkpt>
      <trkpt lat="43.21468" lon="5.49442">
        <ele>165</ele>
        <time>2019-10-02T10:39:56Z</time>
      </trkpt>
      <trkpt lat="43.21462" lon="5.49443">
        <ele>162</ele>
        <time>2019-10-02T10:40:00Z</time>
      </trkpt>
      <trkpt lat="43.21457" lon="5.49444">
        <ele>162</ele>
        <time>2019-10-02T10:40:04Z</time>
      </trkpt>
      <trkpt lat="43.21453" lon="5.49446">
        <ele>159</ele>
        <time>2019-10-02T10:40:10Z</time>
      </trkpt>
      <trkpt lat="43.21448" lon="5.49448">
        <ele>157</ele>
        <time>2019-10-02T10:40:14Z</time>
      </trkpt>
      <trkpt lat="43.21444" lon="5.4945">
        <ele>158</ele>
        <time>2019-10-02T10:40:20Z</time>
      </trkpt>
      <trkpt lat="43.21439" lon="5.49454">
        <ele>159</ele>
        <time>2019-10-02T10:40:26Z</time>
      </trkpt>
      <trkpt lat="43.21435" lon="5.49459">
        <ele>155</ele>
        <time>2019-10-02T10:40:32Z</time>
      </trkpt>
      <trkpt lat="43.21431" lon="5.49465">
        <ele>156</ele>
        <time>2019-10-02T10:40:36Z</time>
      </trkpt>
      <trkpt lat="43.21429" lon="5.4947">
        <ele>160</ele>
        <time>2019-10-02T10:40:40Z</time>
      </trkpt>
      <trkpt lat="43.21426" lon="5.49477">
        <ele>159</ele>
        <time>2019-10-02T10:40:46Z</time>
      </trkpt>
      <trkpt lat="43.21424" lon="5.49484">
        <ele>157</ele>
        <time>2019-10-02T10:40:52Z</time>
      </trkpt>
      <trkpt lat="43.21423" lon="5.49491">
        <ele>156</ele>
        <time>2019-10-02T10:40:58Z</time>
      </trkpt>
      <trkpt lat="43.21424" lon="5.49497">
        <ele>157</ele>
        <time>2019-10-02T10:41:02Z</time>
      </trkpt>
      <trkpt lat="43.21427" lon="5.49503">
        <ele>156</ele>
        <time>2019-10-02T10:41:06Z</time>
      </trkpt>
      <trkpt lat="43.2143" lon="5.49509">
        <ele>156</ele>
        <time>2019-10-02T10:41:10Z</time>
      </trkpt>
      <trkpt lat="43.21434" lon="5.49514">
        <ele>156</ele>
        <time>2019-10-02T10:41:14Z</time>
      </trkpt>
      <trkpt lat="43.21437" lon="5.4952">
        <ele>155</ele>
        <time>2019-10-02T10:41:18Z</time>
      </trkpt>
      <trkpt lat="43.2144" lon="5.49528">
        <ele>155</ele>
        <time>2019-10-02T10:41:24Z</time>
      </trkpt>
      <trkpt lat="43.21441" lon="5.49536">
        <ele>154</ele>
        <time>2019-10-02T10:41:30Z</time>
      </trkpt>
      <trkpt lat="43.21441" lon="5.49543">
        <ele>153</ele>
        <time>2019-10-02T10:41:36Z</time>
      </trkpt>
      <trkpt lat="43.21438" lon="5.49548">
        <ele>156</ele>
        <time>2019-10-02T10:41:42Z</time>
      </trkpt>
      <trkpt lat="43.21436" lon="5.49555">
        <ele>158</ele>
        <time>2019-10-02T10:41:48Z</time>
      </trkpt>
      <trkpt lat="43.21435" lon="5.49563">
        <ele>161</ele>
        <time>2019-10-02T10:41:54Z</time>
      </trkpt>
      <trkpt lat="43.21436" lon="5.49569">
        <ele>163</ele>
        <time>2019-10-02T10:42:00Z</time>
      </trkpt>
      <trkpt lat="43.21429" lon="5.4957">
        <ele>165</ele>
        <time>2019-10-02T10:42:06Z</time>
      </trkpt>
      <trkpt lat="43.21425" lon="5.4957">
        <ele>163</ele>
        <time>2019-10-02T10:42:20Z</time>
      </trkpt>
      <trkpt lat="43.21419" lon="5.49567">
        <ele>163</ele>
        <time>2019-10-02T10:42:28Z</time>
      </trkpt>
      <trkpt lat="43.21415" lon="5.49565">
        <ele>162</ele>
        <time>2019-10-02T10:42:32Z</time>
      </trkpt>
      <trkpt lat="43.21409" lon="5.49562">
        <ele>162</ele>
        <time>2019-10-02T10:42:38Z</time>
      </trkpt>
      <trkpt lat="43.21404" lon="5.49564">
        <ele>163</ele>
        <time>2019-10-02T10:42:46Z</time>
      </trkpt>
      <trkpt lat="43.21399" lon="5.49565">
        <ele>162</ele>
        <time>2019-10-02T10:42:50Z</time>
      </trkpt>
      <trkpt lat="43.21394" lon="5.49568">
        <ele>161</ele>
        <time>2019-10-02T10:42:54Z</time>
      </trkpt>
      <trkpt lat="43.21389" lon="5.49572">
        <ele>161</ele>
        <time>2019-10-02T10:43:00Z</time>
      </trkpt>
      <trkpt lat="43.21383" lon="5.49575">
        <ele>156</ele>
        <time>2019-10-02T10:43:04Z</time>
      </trkpt>
      <trkpt lat="43.21379" lon="5.49582">
        <ele>154</ele>
        <time>2019-10-02T10:43:10Z</time>
      </trkpt>
      <trkpt lat="43.21375" lon="5.49589">
        <ele>153</ele>
        <time>2019-10-02T10:43:16Z</time>
      </trkpt>
      <trkpt lat="43.21373" lon="5.49596">
        <ele>153</ele>
        <time>2019-10-02T10:43:20Z</time>
      </trkpt>
      <trkpt lat="43.2137" lon="5.49603">
        <ele>150</ele>
        <time>2019-10-02T10:43:26Z</time>
      </trkpt>
      <trkpt lat="43.21366" lon="5.49607">
        <ele>147</ele>
        <time>2019-10-02T10:43:30Z</time>
      </trkpt>
      <trkpt lat="43.21365" lon="5.49613">
        <ele>148</ele>
        <time>2019-10-02T10:43:34Z</time>
      </trkpt>
      <trkpt lat="43.21367" lon="5.49621">
        <ele>150</ele>
        <time>2019-10-02T10:43:38Z</time>
      </trkpt>
      <trkpt lat="43.21369" lon="5.49629">
        <ele>150</ele>
        <time>2019-10-02T10:43:44Z</time>
      </trkpt>
      <trkpt lat="43.21372" lon="5.49637">
        <ele>148</ele>
        <time>2019-10-02T10:43:50Z</time>
      </trkpt>
      <trkpt lat="43.21374" lon="5.49642">
        <ele>148</ele>
        <time>2019-10-02T10:43:54Z</time>
      </trkpt>
      <trkpt lat="43.21374" lon="5.4965">
        <ele>145</ele>
        <time>2019-10-02T10:44:02Z</time>
      </trkpt>
      <trkpt lat="43.21378" lon="5.49657">
        <ele>143</ele>
        <time>2019-10-02T10:44:06Z</time>
      </trkpt>
      <trkpt lat="43.2138" lon="5.49662">
        <ele>143</ele>
        <time>2019-10-02T10:44:10Z</time>
      </trkpt>
      <trkpt lat="43.21383" lon="5.4967">
        <ele>141</ele>
        <time>2019-10-02T10:44:16Z</time>
      </trkpt>
      <trkpt lat="43.21385" lon="5.49679">
        <ele>139</ele>
        <time>2019-10-02T10:44:22Z</time>
      </trkpt>
      <trkpt lat="43.21387" lon="5.49684">
        <ele>140</ele>
        <time>2019-10-02T10:44:28Z</time>
      </trkpt>
      <trkpt lat="43.21391" lon="5.49691">
        <ele>143</ele>
        <time>2019-10-02T10:44:40Z</time>
      </trkpt>
      <trkpt lat="43.21393" lon="5.49697">
        <ele>145</ele>
        <time>2019-10-02T10:44:44Z</time>
      </trkpt>
      <trkpt lat="43.21395" lon="5.49703">
        <ele>145</ele>
        <time>2019-10-02T10:44:48Z</time>
      </trkpt>
      <trkpt lat="43.21396" lon="5.49711">
        <ele>146</ele>
        <time>2019-10-02T10:44:54Z</time>
      </trkpt>
      <trkpt lat="43.21397" lon="5.49717">
        <ele>146</ele>
        <time>2019-10-02T10:45:00Z</time>
      </trkpt>
      <trkpt lat="43.21397" lon="5.49726">
        <ele>144</ele>
        <time>2019-10-02T10:45:06Z</time>
      </trkpt>
      <trkpt lat="43.21396" lon="5.49733">
        <ele>144</ele>
        <time>2019-10-02T10:45:10Z</time>
      </trkpt>
      <trkpt lat="43.21395" lon="5.4974">
        <ele>142</ele>
        <time>2019-10-02T10:45:14Z</time>
      </trkpt>
      <trkpt lat="43.21395" lon="5.49747">
        <ele>141</ele>
        <time>2019-10-02T10:45:20Z</time>
      </trkpt>
      <trkpt lat="43.21393" lon="5.49754">
        <ele>141</ele>
        <time>2019-10-02T10:45:26Z</time>
      </trkpt>
      <trkpt lat="43.2139" lon="5.49759">
        <ele>142</ele>
        <time>2019-10-02T10:45:32Z</time>
      </trkpt>
      <trkpt lat="43.21385" lon="5.49761">
        <ele>144</ele>
        <time>2019-10-02T10:45:38Z</time>
      </trkpt>
      <trkpt lat="43.2138" lon="5.49766">
        <ele>146</ele>
        <time>2019-10-02T10:45:46Z</time>
      </trkpt>
      <trkpt lat="43.21375" lon="5.49766">
        <ele>145</ele>
        <time>2019-10-02T10:45:52Z</time>
      </trkpt>
      <trkpt lat="43.2137" lon="5.49766">
        <ele>145</ele>
        <time>2019-10-02T10:46:00Z</time>
      </trkpt>
      <trkpt lat="43.21364" lon="5.49763">
        <ele>145</ele>
        <time>2019-10-02T10:46:06Z</time>
      </trkpt>
      <trkpt lat="43.21359" lon="5.49763">
        <ele>142</ele>
        <time>2019-10-02T10:46:12Z</time>
      </trkpt>
      <trkpt lat="43.21355" lon="5.49761">
        <ele>141</ele>
        <time>2019-10-02T10:46:16Z</time>
      </trkpt>
      <trkpt lat="43.2135" lon="5.49763">
        <ele>145</ele>
        <time>2019-10-02T10:46:22Z</time>
      </trkpt>
      <trkpt lat="43.21344" lon="5.49767">
        <ele>145</ele>
        <time>2019-10-02T10:46:28Z</time>
      </trkpt>
      <trkpt lat="43.21339" lon="5.49769">
        <ele>145</ele>
        <time>2019-10-02T10:46:32Z</time>
      </trkpt>
      <trkpt lat="43.21334" lon="5.49771">
        <ele>145</ele>
        <time>2019-10-02T10:46:36Z</time>
      </trkpt>
      <trkpt lat="43.21329" lon="5.49774">
        <ele>145</ele>
        <time>2019-10-02T10:46:40Z</time>
      </trkpt>
      <trkpt lat="43.21323" lon="5.49778">
        <ele>146</ele>
        <time>2019-10-02T10:46:44Z</time>
      </trkpt>
      <trkpt lat="43.2132" lon="5.49783">
        <ele>147</ele>
        <time>2019-10-02T10:46:50Z</time>
      </trkpt>
      <trkpt lat="43.21315" lon="5.49786">
        <ele>146</ele>
        <time>2019-10-02T10:46:54Z</time>
      </trkpt>
      <trkpt lat="43.21311" lon="5.49787">
        <ele>147</ele>
        <time>2019-10-02T10:47:00Z</time>
      </trkpt>
      <trkpt lat="43.21305" lon="5.49789">
        <ele>146</ele>
        <time>2019-10-02T10:47:08Z</time>
      </trkpt>
      <trkpt lat="43.213" lon="5.4979">
        <ele>144</ele>
        <time>2019-10-02T10:47:14Z</time>
      </trkpt>
      <trkpt lat="43.21295" lon="5.4979">
        <ele>145</ele>
        <time>2019-10-02T10:47:20Z</time>
      </trkpt>
      <trkpt lat="43.2129" lon="5.49792">
        <ele>146</ele>
        <time>2019-10-02T10:47:26Z</time>
      </trkpt>
      <trkpt lat="43.21283" lon="5.49794">
        <ele>143</ele>
        <time>2019-10-02T10:47:32Z</time>
      </trkpt>
      <trkpt lat="43.21277" lon="5.49795">
        <ele>146</ele>
        <time>2019-10-02T10:47:38Z</time>
      </trkpt>
      <trkpt lat="43.21272" lon="5.49796">
        <ele>141</ele>
        <time>2019-10-02T10:47:44Z</time>
      </trkpt>
      <trkpt lat="43.21267" lon="5.49796">
        <ele>142</ele>
        <time>2019-10-02T10:47:50Z</time>
      </trkpt>
      <trkpt lat="43.2126" lon="5.49795">
        <ele>140</ele>
        <time>2019-10-02T10:47:56Z</time>
      </trkpt>
      <trkpt lat="43.21254" lon="5.49795">
        <ele>141</ele>
        <time>2019-10-02T10:48:02Z</time>
      </trkpt>
      <trkpt lat="43.21246" lon="5.49795">
        <ele>140</ele>
        <time>2019-10-02T10:48:06Z</time>
      </trkpt>
      <trkpt lat="43.21241" lon="5.49791">
        <ele>138</ele>
        <time>2019-10-02T10:48:12Z</time>
      </trkpt>
      <trkpt lat="43.21237" lon="5.49787">
        <ele>136</ele>
        <time>2019-10-02T10:48:18Z</time>
      </trkpt>
      <trkpt lat="43.21233" lon="5.49783">
        <ele>134</ele>
        <time>2019-10-02T10:48:22Z</time>
      </trkpt>
      <trkpt lat="43.21229" lon="5.4978">
        <ele>131</ele>
        <time>2019-10-02T10:48:28Z</time>
      </trkpt>
      <trkpt lat="43.21224" lon="5.49776">
        <ele>128</ele>
        <time>2019-10-02T10:48:32Z</time>
      </trkpt>
      <trkpt lat="43.2122" lon="5.4977">
        <ele>128</ele>
        <time>2019-10-02T10:48:36Z</time>
      </trkpt>
      <trkpt lat="43.21217" lon="5.49765">
        <ele>126</ele>
        <time>2019-10-02T10:48:42Z</time>
      </trkpt>
      <trkpt lat="43.21213" lon="5.4976">
        <ele>126</ele>
        <time>2019-10-02T10:48:48Z</time>
      </trkpt>
      <trkpt lat="43.21209" lon="5.49752">
        <ele>127</ele>
        <time>2019-10-02T10:48:54Z</time>
      </trkpt>
      <trkpt lat="43.21206" lon="5.49746">
        <ele>126</ele>
        <time>2019-10-02T10:49:00Z</time>
      </trkpt>
      <trkpt lat="43.21206" lon="5.49738">
        <ele>126</ele>
        <time>2019-10-02T10:49:06Z</time>
      </trkpt>
      <trkpt lat="43.21207" lon="5.49728">
        <ele>127</ele>
        <time>2019-10-02T10:49:12Z</time>
      </trkpt>
      <trkpt lat="43.21209" lon="5.49723">
        <ele>128</ele>
        <time>2019-10-02T10:49:16Z</time>
      </trkpt>
      <trkpt lat="43.21213" lon="5.49716">
        <ele>129</ele>
        <time>2019-10-02T10:49:22Z</time>
      </trkpt>
      <trkpt lat="43.21217" lon="5.4971">
        <ele>131</ele>
        <time>2019-10-02T10:49:28Z</time>
      </trkpt>
      <trkpt lat="43.21219" lon="5.49704">
        <ele>131</ele>
        <time>2019-10-02T10:49:34Z</time>
      </trkpt>
      <trkpt lat="43.21221" lon="5.49698">
        <ele>132</ele>
        <time>2019-10-02T10:49:40Z</time>
      </trkpt>
      <trkpt lat="43.21222" lon="5.4969">
        <ele>130</ele>
        <time>2019-10-02T10:49:46Z</time>
      </trkpt>
      <trkpt lat="43.2122" lon="5.49681">
        <ele>131</ele>
        <time>2019-10-02T10:49:52Z</time>
      </trkpt>
      <trkpt lat="43.21218" lon="5.49675">
        <ele>132</ele>
        <time>2019-10-02T10:49:56Z</time>
      </trkpt>
      <trkpt lat="43.21215" lon="5.49668">
        <ele>130</ele>
        <time>2019-10-02T10:50:02Z</time>
      </trkpt>
      <trkpt lat="43.21213" lon="5.49662">
        <ele>129</ele>
        <time>2019-10-02T10:50:08Z</time>
      </trkpt>
      <trkpt lat="43.21209" lon="5.49657">
        <ele>127</ele>
        <time>2019-10-02T10:50:14Z</time>
      </trkpt>
      <trkpt lat="43.21205" lon="5.49652">
        <ele>126</ele>
        <time>2019-10-02T10:50:20Z</time>
      </trkpt>
      <trkpt lat="43.212" lon="5.49648">
        <ele>130</ele>
        <time>2019-10-02T10:50:28Z</time>
      </trkpt>
      <trkpt lat="43.21195" lon="5.49646">
        <ele>130</ele>
        <time>2019-10-02T10:50:32Z</time>
      </trkpt>
      <trkpt lat="43.21188" lon="5.49646">
        <ele>126</ele>
        <time>2019-10-02T10:50:40Z</time>
      </trkpt>
      <trkpt lat="43.21182" lon="5.49648">
        <ele>132</ele>
        <time>2019-10-02T10:50:46Z</time>
      </trkpt>
      <trkpt lat="43.21177" lon="5.49652">
        <ele>133</ele>
        <time>2019-10-02T10:50:50Z</time>
      </trkpt>
      <trkpt lat="43.21173" lon="5.49657">
        <ele>133</ele>
        <time>2019-10-02T10:50:54Z</time>
      </trkpt>
      <trkpt lat="43.2117" lon="5.49665">
        <ele>133</ele>
        <time>2019-10-02T10:51:00Z</time>
      </trkpt>
      <trkpt lat="43.21166" lon="5.49671">
        <ele>129</ele>
        <time>2019-10-02T10:51:06Z</time>
      </trkpt>
      <trkpt lat="43.21161" lon="5.49675">
        <ele>131</ele>
        <time>2019-10-02T10:51:12Z</time>
      </trkpt>
      <trkpt lat="43.21156" lon="5.49677">
        <ele>131</ele>
        <time>2019-10-02T10:51:18Z</time>
      </trkpt>
      <trkpt lat="43.21153" lon="5.49683">
        <ele>131</ele>
        <time>2019-10-02T10:51:26Z</time>
      </trkpt>
      <trkpt lat="43.21149" lon="5.49688">
        <ele>130</ele>
        <time>2019-10-02T10:51:34Z</time>
      </trkpt>
      <trkpt lat="43.21149" lon="5.49697">
        <ele>128</ele>
        <time>2019-10-02T10:51:42Z</time>
      </trkpt>
      <trkpt lat="43.21148" lon="5.49704">
        <ele>130</ele>
        <time>2019-10-02T10:51:48Z</time>
      </trkpt>
      <trkpt lat="43.21148" lon="5.4971">
        <ele>134</ele>
        <time>2019-10-02T10:52:02Z</time>
      </trkpt>
      <trkpt lat="43.21142" lon="5.49715">
        <ele>136</ele>
        <time>2019-10-02T10:52:16Z</time>
      </trkpt>
      <trkpt lat="43.21136" lon="5.49718">
        <ele>134</ele>
        <time>2019-10-02T10:52:22Z</time>
      </trkpt>
      <trkpt lat="43.21132" lon="5.49718">
        <ele>133</ele>
        <time>2019-10-02T10:52:26Z</time>
      </trkpt>
      <trkpt lat="43.21126" lon="5.49718">
        <ele>128</ele>
        <time>2019-10-02T10:52:32Z</time>
      </trkpt>
      <trkpt lat="43.21119" lon="5.49718">
        <ele>127</ele>
        <time>2019-10-02T10:52:38Z</time>
      </trkpt>
      <trkpt lat="43.21113" lon="5.49719">
        <ele>128</ele>
        <time>2019-10-02T10:52:46Z</time>
      </trkpt>
      <trkpt lat="43.21108" lon="5.49717">
        <ele>128</ele>
        <time>2019-10-02T10:52:50Z</time>
      </trkpt>
      <trkpt lat="43.21103" lon="5.49715">
        <ele>127</ele>
        <time>2019-10-02T10:52:56Z</time>
      </trkpt>
      <trkpt lat="43.211" lon="5.49708">
        <ele>126</ele>
        <time>2019-10-02T10:53:06Z</time>
      </trkpt>
      <trkpt lat="43.21096" lon="5.49703">
        <ele>124</ele>
        <time>2019-10-02T10:53:10Z</time>
      </trkpt>
      <trkpt lat="43.21093" lon="5.49697">
        <ele>123</ele>
        <time>2019-10-02T10:53:16Z</time>
      </trkpt>
      <trkpt lat="43.21088" lon="5.49694">
        <ele>119</ele>
        <time>2019-10-02T10:53:26Z</time>
      </trkpt>
      <trkpt lat="43.21083" lon="5.49692">
        <ele>119</ele>
        <time>2019-10-02T10:53:30Z</time>
      </trkpt>
      <trkpt lat="43.21078" lon="5.49689">
        <ele>118</ele>
        <time>2019-10-02T10:53:40Z</time>
      </trkpt>
      <trkpt lat="43.21074" lon="5.49686">
        <ele>120</ele>
        <time>2019-10-02T10:53:44Z</time>
      </trkpt>
      <trkpt lat="43.21069" lon="5.49683">
        <ele>120</ele>
        <time>2019-10-02T10:53:48Z</time>
      </trkpt>
      <trkpt lat="43.21063" lon="5.49679">
        <ele>121</ele>
        <time>2019-10-02T10:53:52Z</time>
      </trkpt>
      <trkpt lat="43.21057" lon="5.49675">
        <ele>121</ele>
        <time>2019-10-02T10:53:56Z</time>
      </trkpt>
      <trkpt lat="43.21052" lon="5.49672">
        <ele>120</ele>
        <time>2019-10-02T10:54:00Z</time>
      </trkpt>
      <trkpt lat="43.21047" lon="5.49669">
        <ele>118</ele>
        <time>2019-10-02T10:54:04Z</time>
      </trkpt>
      <trkpt lat="43.21041" lon="5.49668">
        <ele>118</ele>
        <time>2019-10-02T10:54:10Z</time>
      </trkpt>
      <trkpt lat="43.21035" lon="5.49667">
        <ele>119</ele>
        <time>2019-10-02T10:54:16Z</time>
      </trkpt>
      <trkpt lat="43.2103" lon="5.49667">
        <ele>119</ele>
        <time>2019-10-02T10:54:22Z</time>
      </trkpt>
      <trkpt lat="43.21026" lon="5.49669">
        <ele>119</ele>
        <time>2019-10-02T10:54:28Z</time>
      </trkpt>
      <trkpt lat="43.21019" lon="5.49671">
        <ele>117</ele>
        <time>2019-10-02T10:54:34Z</time>
      </trkpt>
      <trkpt lat="43.21015" lon="5.49679">
        <ele>117</ele>
        <time>2019-10-02T10:54:40Z</time>
      </trkpt>
      <trkpt lat="43.21011" lon="5.49683">
        <ele>116</ele>
        <time>2019-10-02T10:54:44Z</time>
      </trkpt>
      <trkpt lat="43.21009" lon="5.49688">
        <ele>114</ele>
        <time>2019-10-02T10:54:48Z</time>
      </trkpt>
      <trkpt lat="43.21005" lon="5.49695">
        <ele>116</ele>
        <time>2019-10-02T10:54:54Z</time>
      </trkpt>
      <trkpt lat="43.21001" lon="5.49701">
        <ele>116</ele>
        <time>2019-10-02T10:55:00Z</time>
      </trkpt>
      <trkpt lat="43.20994" lon="5.49701">
        <ele>119</ele>
        <time>2019-10-02T10:55:06Z</time>
      </trkpt>
      <trkpt lat="43.20989" lon="5.497">
        <ele>123</ele>
        <time>2019-10-02T10:55:10Z</time>
      </trkpt>
      <trkpt lat="43.20984" lon="5.49701">
        <ele>128</ele>
        <time>2019-10-02T10:55:18Z</time>
      </trkpt>
      <trkpt lat="43.20979" lon="5.49701">
        <ele>128</ele>
        <time>2019-10-02T10:55:36Z</time>
      </trkpt>
      <trkpt lat="43.20973" lon="5.49699">
        <ele>128</ele>
        <time>2019-10-02T10:55:42Z</time>
      </trkpt>
      <trkpt lat="43.20968" lon="5.49698">
        <ele>128</ele>
        <time>2019-10-02T10:55:48Z</time>
      </trkpt>
      <trkpt lat="43.20962" lon="5.49697">
        <ele>124</ele>
        <time>2019-10-02T10:55:56Z</time>
      </trkpt>
      <trkpt lat="43.20956" lon="5.49698">
        <ele>123</ele>
        <time>2019-10-02T10:56:04Z</time>
      </trkpt>
      <trkpt lat="43.2095" lon="5.49699">
        <ele>123</ele>
        <time>2019-10-02T10:56:10Z</time>
      </trkpt>
      <trkpt lat="43.20945" lon="5.49695">
        <ele>121</ele>
        <time>2019-10-02T10:56:14Z</time>
      </trkpt>
      <trkpt lat="43.20939" lon="5.49693">
        <ele>122</ele>
        <time>2019-10-02T10:56:18Z</time>
      </trkpt>
      <trkpt lat="43.20934" lon="5.49693">
        <ele>124</ele>
        <time>2019-10-02T10:56:22Z</time>
      </trkpt>
      <trkpt lat="43.2093" lon="5.49699">
        <ele>122</ele>
        <time>2019-10-02T10:56:28Z</time>
      </trkpt>
      <trkpt lat="43.20927" lon="5.49703">
        <ele>123</ele>
        <time>2019-10-02T10:56:36Z</time>
      </trkpt>
      <trkpt lat="43.20922" lon="5.49706">
        <ele>125</ele>
        <time>2019-10-02T10:56:44Z</time>
      </trkpt>
      <trkpt lat="43.20922" lon="5.49713">
        <ele>123</ele>
        <time>2019-10-02T10:56:54Z</time>
      </trkpt>
      <trkpt lat="43.20919" lon="5.49708">
        <ele>129</ele>
        <time>2019-10-02T10:57:12Z</time>
      </trkpt>
      <trkpt lat="43.20913" lon="5.49707">
        <ele>132</ele>
        <time>2019-10-02T10:58:06Z</time>
      </trkpt>
      <trkpt lat="43.20908" lon="5.49707">
        <ele>128</ele>
        <time>2019-10-02T10:58:12Z</time>
      </trkpt>
      <trkpt lat="43.20903" lon="5.49705">
        <ele>127</ele>
        <time>2019-10-02T10:58:16Z</time>
      </trkpt>
      <trkpt lat="43.20898" lon="5.49706">
        <ele>123</ele>
        <time>2019-10-02T10:58:22Z</time>
      </trkpt>
      <trkpt lat="43.20893" lon="5.49707">
        <ele>123</ele>
        <time>2019-10-02T10:58:28Z</time>
      </trkpt>
      <trkpt lat="43.20887" lon="5.4971">
        <ele>118</ele>
        <time>2019-10-02T10:58:36Z</time>
      </trkpt>
      <trkpt lat="43.20882" lon="5.49712">
        <ele>121</ele>
        <time>2019-10-02T10:58:42Z</time>
      </trkpt>
      <trkpt lat="43.20878" lon="5.49716">
        <ele>126</ele>
        <time>2019-10-02T10:58:48Z</time>
      </trkpt>
      <trkpt lat="43.20872" lon="5.49719">
        <ele>125</ele>
        <time>2019-10-02T10:58:56Z</time>
      </trkpt>
      <trkpt lat="43.20866" lon="5.49721">
        <ele>126</ele>
        <time>2019-10-02T10:59:02Z</time>
      </trkpt>
      <trkpt lat="43.2086" lon="5.49725">
        <ele>120</ele>
        <time>2019-10-02T10:59:10Z</time>
      </trkpt>
      <trkpt lat="43.20856" lon="5.49727">
        <ele>119</ele>
        <time>2019-10-02T10:59:12Z</time>
      </trkpt>
      <trkpt lat="43.20852" lon="5.49729">
        <ele>119</ele>
        <time>2019-10-02T10:59:16Z</time>
      </trkpt>
      <trkpt lat="43.20847" lon="5.4973">
        <ele>117</ele>
        <time>2019-10-02T10:59:20Z</time>
      </trkpt>
      <trkpt lat="43.20842" lon="5.4973">
        <ele>117</ele>
        <time>2019-10-02T10:59:24Z</time>
      </trkpt>
      <trkpt lat="43.20836" lon="5.49732">
        <ele>118</ele>
        <time>2019-10-02T10:59:30Z</time>
      </trkpt>
      <trkpt lat="43.2083" lon="5.49731">
        <ele>118</ele>
        <time>2019-10-02T10:59:34Z</time>
      </trkpt>
      <trkpt lat="43.20825" lon="5.49731">
        <ele>118</ele>
        <time>2019-10-02T10:59:38Z</time>
      </trkpt>
      <trkpt lat="43.20821" lon="5.49739">
        <ele>114</ele>
        <time>2019-10-02T10:59:46Z</time>
      </trkpt>
      <trkpt lat="43.20814" lon="5.49741">
        <ele>113</ele>
        <time>2019-10-02T10:59:52Z</time>
      </trkpt>
      <trkpt lat="43.2081" lon="5.49744">
        <ele>112</ele>
        <time>2019-10-02T10:59:56Z</time>
      </trkpt>
      <trkpt lat="43.20805" lon="5.49748">
        <ele>114</ele>
        <time>2019-10-02T11:00:00Z</time>
      </trkpt>
      <trkpt lat="43.20802" lon="5.49753">
        <ele>112</ele>
        <time>2019-10-02T11:00:04Z</time>
      </trkpt>
      <trkpt lat="43.20797" lon="5.49758">
        <ele>112</ele>
        <time>2019-10-02T11:00:08Z</time>
      </trkpt>
      <trkpt lat="43.20792" lon="5.49764">
        <ele>108</ele>
        <time>2019-10-02T11:00:14Z</time>
      </trkpt>
      <trkpt lat="43.20786" lon="5.49768">
        <ele>106</ele>
        <time>2019-10-02T11:00:20Z</time>
      </trkpt>
      <trkpt lat="43.20781" lon="5.49772">
        <ele>107</ele>
        <time>2019-10-02T11:00:26Z</time>
      </trkpt>
      <trkpt lat="43.20773" lon="5.49771">
        <ele>105</ele>
        <time>2019-10-02T11:00:30Z</time>
      </trkpt>
      <trkpt lat="43.20772" lon="5.49777">
        <ele>104</ele>
        <time>2019-10-02T11:00:34Z</time>
      </trkpt>
      <trkpt lat="43.20772" lon="5.49784">
        <ele>104</ele>
        <time>2019-10-02T11:00:40Z</time>
      </trkpt>
      <trkpt lat="43.2077" lon="5.49791">
        <ele>104</ele>
        <time>2019-10-02T11:00:46Z</time>
      </trkpt>
      <trkpt lat="43.20764" lon="5.49794">
        <ele>104</ele>
        <time>2019-10-02T11:00:52Z</time>
      </trkpt>
      <trkpt lat="43.20761" lon="5.498">
        <ele>99</ele>
        <time>2019-10-02T11:00:58Z</time>
      </trkpt>
      <trkpt lat="43.20757" lon="5.49803">
        <ele>96</ele>
        <time>2019-10-02T11:01:02Z</time>
      </trkpt>
      <trkpt lat="43.20752" lon="5.49805">
        <ele>93</ele>
        <time>2019-10-02T11:01:06Z</time>
      </trkpt>
      <trkpt lat="43.2075" lon="5.49811">
        <ele>93</ele>
        <time>2019-10-02T11:01:10Z</time>
      </trkpt>
      <trkpt lat="43.20746" lon="5.49814">
        <ele>96</ele>
        <time>2019-10-02T11:01:14Z</time>
      </trkpt>
      <trkpt lat="43.20739" lon="5.49815">
        <ele>96</ele>
        <time>2019-10-02T11:01:18Z</time>
      </trkpt>
      <trkpt lat="43.20733" lon="5.49815">
        <ele>98</ele>
        <time>2019-10-02T11:01:22Z</time>
      </trkpt>
      <trkpt lat="43.20726" lon="5.49814">
        <ele>99</ele>
        <time>2019-10-02T11:01:26Z</time>
      </trkpt>
      <trkpt lat="43.20725" lon="5.49821">
        <ele>100</ele>
        <time>2019-10-02T11:01:32Z</time>
      </trkpt>
      <trkpt lat="43.20723" lon="5.49828">
        <ele>99</ele>
        <time>2019-10-02T11:01:36Z</time>
      </trkpt>
      <trkpt lat="43.20719" lon="5.49831">
        <ele>98</ele>
        <time>2019-10-02T11:01:40Z</time>
      </trkpt>
      <trkpt lat="43.20714" lon="5.49835">
        <ele>95</ele>
        <time>2019-10-02T11:01:44Z</time>
      </trkpt>
      <trkpt lat="43.20712" lon="5.49841">
        <ele>95</ele>
        <time>2019-10-02T11:01:48Z</time>
      </trkpt>
      <trkpt lat="43.20709" lon="5.49848">
        <ele>92</ele>
        <time>2019-10-02T11:01:54Z</time>
      </trkpt>
      <trkpt lat="43.20703" lon="5.4985">
        <ele>91</ele>
        <time>2019-10-02T11:01:58Z</time>
      </trkpt>
      <trkpt lat="43.207" lon="5.49858">
        <ele>95</ele>
        <time>2019-10-02T11:02:06Z</time>
      </trkpt>
      <trkpt lat="43.20696" lon="5.49862">
        <ele>94</ele>
        <time>2019-10-02T11:02:10Z</time>
      </trkpt>
      <trkpt lat="43.20691" lon="5.49865">
        <ele>96</ele>
        <time>2019-10-02T11:02:14Z</time>
      </trkpt>
      <trkpt lat="43.20682" lon="5.49865">
        <ele>94</ele>
        <time>2019-10-02T11:02:18Z</time>
      </trkpt>
      <trkpt lat="43.20678" lon="5.4987">
        <ele>91</ele>
        <time>2019-10-02T11:02:22Z</time>
      </trkpt>
      <trkpt lat="43.20678" lon="5.49878">
        <ele>88</ele>
        <time>2019-10-02T11:02:26Z</time>
      </trkpt>
      <trkpt lat="43.20676" lon="5.49887">
        <ele>85</ele>
        <time>2019-10-02T11:02:30Z</time>
      </trkpt>
      <trkpt lat="43.20674" lon="5.49893">
        <ele>86</ele>
        <time>2019-10-02T11:02:34Z</time>
      </trkpt>
      <trkpt lat="43.2067" lon="5.499">
        <ele>87</ele>
        <time>2019-10-02T11:02:40Z</time>
      </trkpt>
      <trkpt lat="43.20665" lon="5.49901">
        <ele>88</ele>
        <time>2019-10-02T11:02:44Z</time>
      </trkpt>
      <trkpt lat="43.20659" lon="5.49905">
        <ele>86</ele>
        <time>2019-10-02T11:02:50Z</time>
      </trkpt>
      <trkpt lat="43.20655" lon="5.49907">
        <ele>85</ele>
        <time>2019-10-02T11:02:54Z</time>
      </trkpt>
      <trkpt lat="43.20648" lon="5.49905">
        <ele>84</ele>
        <time>2019-10-02T11:02:58Z</time>
      </trkpt>
      <trkpt lat="43.20642" lon="5.49907">
        <ele>85</ele>
        <time>2019-10-02T11:03:02Z</time>
      </trkpt>
      <trkpt lat="43.20635" lon="5.49905">
        <ele>83</ele>
        <time>2019-10-02T11:03:06Z</time>
      </trkpt>
      <trkpt lat="43.2063" lon="5.49907">
        <ele>84</ele>
        <time>2019-10-02T11:03:16Z</time>
      </trkpt>
      <trkpt lat="43.20625" lon="5.49903">
        <ele>81</ele>
        <time>2019-10-02T11:03:22Z</time>
      </trkpt>
      <trkpt lat="43.2062" lon="5.49901">
        <ele>79</ele>
        <time>2019-10-02T11:03:36Z</time>
      </trkpt>
      <trkpt lat="43.20618" lon="5.49895">
        <ele>79</ele>
        <time>2019-10-02T11:03:42Z</time>
      </trkpt>
      <trkpt lat="43.20619" lon="5.49887">
        <ele>76</ele>
        <time>2019-10-02T11:03:50Z</time>
      </trkpt>
      <trkpt lat="43.2062" lon="5.49881">
        <ele>77</ele>
        <time>2019-10-02T11:03:54Z</time>
      </trkpt>
      <trkpt lat="43.20621" lon="5.49873">
        <ele>77</ele>
        <time>2019-10-02T11:04:02Z</time>
      </trkpt>
      <trkpt lat="43.20622" lon="5.49866">
        <ele>75</ele>
        <time>2019-10-02T11:04:10Z</time>
      </trkpt>
      <trkpt lat="43.20623" lon="5.4986">
        <ele>72</ele>
        <time>2019-10-02T11:04:40Z</time>
      </trkpt>
      <trkpt lat="43.20628" lon="5.49853">
        <ele>68</ele>
        <time>2019-10-02T11:05:34Z</time>
      </trkpt>
      <trkpt lat="43.20629" lon="5.49846">
        <ele>71</ele>
        <time>2019-10-02T11:05:38Z</time>
      </trkpt>
      <trkpt lat="43.20632" lon="5.49841">
        <ele>73</ele>
        <time>2019-10-02T11:05:42Z</time>
      </trkpt>
      <trkpt lat="43.20636" lon="5.49835">
        <ele>73</ele>
        <time>2019-10-02T11:05:48Z</time>
      </trkpt>
      <trkpt lat="43.20636" lon="5.49829">
        <ele>71</ele>
        <time>2019-10-02T11:05:52Z</time>
      </trkpt>
      <trkpt lat="43.20639" lon="5.4982">
        <ele>75</ele>
        <time>2019-10-02T11:05:58Z</time>
      </trkpt>
      <trkpt lat="43.20641" lon="5.49814">
        <ele>72</ele>
        <time>2019-10-02T11:06:02Z</time>
      </trkpt>
      <trkpt lat="43.20644" lon="5.49807">
        <ele>73</ele>
        <time>2019-10-02T11:06:06Z</time>
      </trkpt>
      <trkpt lat="43.20645" lon="5.498">
        <ele>72</ele>
        <time>2019-10-02T11:06:10Z</time>
      </trkpt>
      <trkpt lat="43.20648" lon="5.49793">
        <ele>72</ele>
        <time>2019-10-02T11:06:14Z</time>
      </trkpt>
      <trkpt lat="43.2065" lon="5.49783">
        <ele>70</ele>
        <time>2019-10-02T11:06:20Z</time>
      </trkpt>
      <trkpt lat="43.20653" lon="5.49775">
        <ele>68</ele>
        <time>2019-10-02T11:06:26Z</time>
      </trkpt>
      <trkpt lat="43.20653" lon="5.49766">
        <ele>69</ele>
        <time>2019-10-02T11:06:32Z</time>
      </trkpt>
      <trkpt lat="43.20654" lon="5.49758">
        <ele>70</ele>
        <time>2019-10-02T11:06:38Z</time>
      </trkpt>
      <trkpt lat="43.20653" lon="5.49751">
        <ele>68</ele>
        <time>2019-10-02T11:06:42Z</time>
      </trkpt>
      <trkpt lat="43.20652" lon="5.49745">
        <ele>69</ele>
        <time>2019-10-02T11:06:46Z</time>
      </trkpt>
      <trkpt lat="43.20653" lon="5.49735">
        <ele>69</ele>
        <time>2019-10-02T11:06:52Z</time>
      </trkpt>
      <trkpt lat="43.20652" lon="5.49727">
        <ele>69</ele>
        <time>2019-10-02T11:06:58Z</time>
      </trkpt>
      <trkpt lat="43.20647" lon="5.49723">
        <ele>71</ele>
        <time>2019-10-02T11:07:04Z</time>
      </trkpt>
      <trkpt lat="43.20642" lon="5.49724">
        <ele>72</ele>
        <time>2019-10-02T11:07:10Z</time>
      </trkpt>
      <trkpt lat="43.20638" lon="5.49727">
        <ele>75</ele>
        <time>2019-10-02T11:07:14Z</time>
      </trkpt>
      <trkpt lat="43.20631" lon="5.49727">
        <ele>70</ele>
        <time>2019-10-02T11:07:16Z</time>
      </trkpt>
      <trkpt lat="43.20625" lon="5.49728">
        <ele>66</ele>
        <time>2019-10-02T11:07:20Z</time>
      </trkpt>
      <trkpt lat="43.20621" lon="5.49729">
        <ele>66</ele>
        <time>2019-10-02T11:07:24Z</time>
      </trkpt>
      <trkpt lat="43.20615" lon="5.49727">
        <ele>66</ele>
        <time>2019-10-02T11:07:28Z</time>
      </trkpt>
      <trkpt lat="43.20611" lon="5.49724">
        <ele>65</ele>
        <time>2019-10-02T11:07:32Z</time>
      </trkpt>
      <trkpt lat="43.20605" lon="5.49722">
        <ele>65</ele>
        <time>2019-10-02T11:07:38Z</time>
      </trkpt>
      <trkpt lat="43.20599" lon="5.49721">
        <ele>63</ele>
        <time>2019-10-02T11:07:44Z</time>
      </trkpt>
      <trkpt lat="43.20594" lon="5.49716">
        <ele>61</ele>
        <time>2019-10-02T11:07:50Z</time>
      </trkpt>
      <trkpt lat="43.20591" lon="5.49709">
        <ele>62</ele>
        <time>2019-10-02T11:07:56Z</time>
      </trkpt>
      <trkpt lat="43.20586" lon="5.49705">
        <ele>62</ele>
        <time>2019-10-02T11:08:00Z</time>
      </trkpt>
      <trkpt lat="43.2058" lon="5.49703">
        <ele>61</ele>
        <time>2019-10-02T11:08:04Z</time>
      </trkpt>
      <trkpt lat="43.20573" lon="5.49702">
        <ele>63</ele>
        <time>2019-10-02T11:08:08Z</time>
      </trkpt>
      <trkpt lat="43.20569" lon="5.49697">
        <ele>62</ele>
        <time>2019-10-02T11:08:12Z</time>
      </trkpt>
      <trkpt lat="43.20568" lon="5.4969">
        <ele>64</ele>
        <time>2019-10-02T11:08:18Z</time>
      </trkpt>
      <trkpt lat="43.20565" lon="5.4968">
        <ele>67</ele>
        <time>2019-10-02T11:08:24Z</time>
      </trkpt>
      <trkpt lat="43.20564" lon="5.49674">
        <ele>68</ele>
        <time>2019-10-02T11:08:28Z</time>
      </trkpt>
      <trkpt lat="43.20564" lon="5.49665">
        <ele>71</ele>
        <time>2019-10-02T11:08:34Z</time>
      </trkpt>
      <trkpt lat="43.20561" lon="5.49657">
        <ele>73</ele>
        <time>2019-10-02T11:08:40Z</time>
      </trkpt>
      <trkpt lat="43.2056" lon="5.4965">
        <ele>74</ele>
        <time>2019-10-02T11:08:48Z</time>
      </trkpt>
      <trkpt lat="43.20556" lon="5.49644">
        <ele>71</ele>
        <time>2019-10-02T11:08:54Z</time>
      </trkpt>
      <trkpt lat="43.20551" lon="5.4964">
        <ele>65</ele>
        <time>2019-10-02T11:09:00Z</time>
      </trkpt>
      <trkpt lat="43.20546" lon="5.49641">
        <ele>61</ele>
        <time>2019-10-02T11:09:06Z</time>
      </trkpt>
      <trkpt lat="43.20541" lon="5.49641">
        <ele>62</ele>
        <time>2019-10-02T11:09:12Z</time>
      </trkpt>
      <trkpt lat="43.20536" lon="5.49641">
        <ele>62</ele>
        <time>2019-10-02T11:09:16Z</time>
      </trkpt>
      <trkpt lat="43.20531" lon="5.49641">
        <ele>62</ele>
        <time>2019-10-02T11:09:22Z</time>
      </trkpt>
      <trkpt lat="43.20525" lon="5.49643">
        <ele>67</ele>
        <time>2019-10-02T11:09:28Z</time>
      </trkpt>
      <trkpt lat="43.20519" lon="5.49644">
        <ele>67</ele>
        <time>2019-10-02T11:09:34Z</time>
      </trkpt>
      <trkpt lat="43.20513" lon="5.49643">
        <ele>67</ele>
        <time>2019-10-02T11:09:38Z</time>
      </trkpt>
      <trkpt lat="43.20508" lon="5.49642">
        <ele>70</ele>
        <time>2019-10-02T11:09:42Z</time>
      </trkpt>
      <trkpt lat="43.20503" lon="5.49645">
        <ele>75</ele>
        <time>2019-10-02T11:09:48Z</time>
      </trkpt>
      <trkpt lat="43.20498" lon="5.49646">
        <ele>79</ele>
        <time>2019-10-02T11:09:54Z</time>
      </trkpt>
      <trkpt lat="43.20493" lon="5.49642">
        <ele>79</ele>
        <time>2019-10-02T11:09:58Z</time>
      </trkpt>
      <trkpt lat="43.20487" lon="5.49639">
        <ele>81</ele>
        <time>2019-10-02T11:10:02Z</time>
      </trkpt>
      <trkpt lat="43.20481" lon="5.49638">
        <ele>80</ele>
        <time>2019-10-02T11:10:06Z</time>
      </trkpt>
      <trkpt lat="43.20476" lon="5.49636">
        <ele>79</ele>
        <time>2019-10-02T11:10:10Z</time>
      </trkpt>
      <trkpt lat="43.20472" lon="5.49632">
        <ele>78</ele>
        <time>2019-10-02T11:10:14Z</time>
      </trkpt>
      <trkpt lat="43.20466" lon="5.49631">
        <ele>77</ele>
        <time>2019-10-02T11:10:18Z</time>
      </trkpt>
      <trkpt lat="43.20461" lon="5.49633">
        <ele>78</ele>
        <time>2019-10-02T11:10:22Z</time>
      </trkpt>
      <trkpt lat="43.20457" lon="5.49639">
        <ele>79</ele>
        <time>2019-10-02T11:10:28Z</time>
      </trkpt>
      <trkpt lat="43.20451" lon="5.4964">
        <ele>74</ele>
        <time>2019-10-02T11:10:34Z</time>
      </trkpt>
      <trkpt lat="43.20446" lon="5.4964">
        <ele>72</ele>
        <time>2019-10-02T11:10:38Z</time>
      </trkpt>
      <trkpt lat="43.20441" lon="5.49637">
        <ele>68</ele>
        <time>2019-10-02T11:10:42Z</time>
      </trkpt>
      <trkpt lat="43.20436" lon="5.49633">
        <ele>64</ele>
        <time>2019-10-02T11:10:48Z</time>
      </trkpt>
      <trkpt lat="43.20432" lon="5.49631">
        <ele>65</ele>
        <time>2019-10-02T11:11:00Z</time>
      </trkpt>
      <trkpt lat="43.20427" lon="5.49628">
        <ele>68</ele>
        <time>2019-10-02T11:11:06Z</time>
      </trkpt>
      <trkpt lat="43.20421" lon="5.49627">
        <ele>64</ele>
        <time>2019-10-02T11:11:10Z</time>
      </trkpt>
      <trkpt lat="43.20416" lon="5.4963">
        <ele>64</ele>
        <time>2019-10-02T11:11:14Z</time>
      </trkpt>
      <trkpt lat="43.20412" lon="5.4963">
        <ele>62</ele>
        <time>2019-10-02T11:11:18Z</time>
      </trkpt>
      <trkpt lat="43.20406" lon="5.49629">
        <ele>62</ele>
        <time>2019-10-02T11:11:22Z</time>
      </trkpt>
      <trkpt lat="43.204" lon="5.49631">
        <ele>63</ele>
        <time>2019-10-02T11:11:26Z</time>
      </trkpt>
      <trkpt lat="43.20396" lon="5.49631">
        <ele>64</ele>
        <time>2019-10-02T11:11:30Z</time>
      </trkpt>
      <trkpt lat="43.20391" lon="5.49633">
        <ele>67</ele>
        <time>2019-10-02T11:11:34Z</time>
      </trkpt>
      <trkpt lat="43.20385" lon="5.49633">
        <ele>68</ele>
        <time>2019-10-02T11:11:38Z</time>
      </trkpt>
      <trkpt lat="43.20383" lon="5.49638">
        <ele>69</ele>
        <time>2019-10-02T11:11:42Z</time>
      </trkpt>
      <trkpt lat="43.20378" lon="5.49644">
        <ele>69</ele>
        <time>2019-10-02T11:11:48Z</time>
      </trkpt>
      <trkpt lat="43.20373" lon="5.49643">
        <ele>68</ele>
        <time>2019-10-02T11:11:52Z</time>
      </trkpt>
      <trkpt lat="43.20368" lon="5.49645">
        <ele>68</ele>
        <time>2019-10-02T11:11:56Z</time>
      </trkpt>
      <trkpt lat="43.20362" lon="5.49646">
        <ele>67</ele>
        <time>2019-10-02T11:12:00Z</time>
      </trkpt>
      <trkpt lat="43.20356" lon="5.49646">
        <ele>67</ele>
        <time>2019-10-02T11:12:04Z</time>
      </trkpt>
      <trkpt lat="43.2035" lon="5.49646">
        <ele>67</ele>
        <time>2019-10-02T11:12:10Z</time>
      </trkpt>
      <trkpt lat="43.20345" lon="5.49648">
        <ele>64</ele>
        <time>2019-10-02T11:12:14Z</time>
      </trkpt>
      <trkpt lat="43.2034" lon="5.49647">
        <ele>65</ele>
        <time>2019-10-02T11:12:18Z</time>
      </trkpt>
      <trkpt lat="43.20336" lon="5.49649">
        <ele>64</ele>
        <time>2019-10-02T11:12:22Z</time>
      </trkpt>
      <trkpt lat="43.20332" lon="5.49655">
        <ele>65</ele>
        <time>2019-10-02T11:12:28Z</time>
      </trkpt>
      <trkpt lat="43.20326" lon="5.49653">
        <ele>66</ele>
        <time>2019-10-02T11:12:32Z</time>
      </trkpt>
      <trkpt lat="43.20321" lon="5.49656">
        <ele>67</ele>
        <time>2019-10-02T11:12:38Z</time>
      </trkpt>
      <trkpt lat="43.20314" lon="5.49654">
        <ele>69</ele>
        <time>2019-10-02T11:12:44Z</time>
      </trkpt>
      <trkpt lat="43.20309" lon="5.49652">
        <ele>72</ele>
        <time>2019-10-02T11:12:50Z</time>
      </trkpt>
      <trkpt lat="43.20304" lon="5.49651">
        <ele>71</ele>
        <time>2019-10-02T11:12:56Z</time>
      </trkpt>
      <trkpt lat="43.20297" lon="5.49655">
        <ele>71</ele>
        <time>2019-10-02T11:13:02Z</time>
      </trkpt>
      <trkpt lat="43.20291" lon="5.49658">
        <ele>67</ele>
        <time>2019-10-02T11:13:06Z</time>
      </trkpt>
      <trkpt lat="43.20285" lon="5.49661">
        <ele>66</ele>
        <time>2019-10-02T11:13:10Z</time>
      </trkpt>
      <trkpt lat="43.20279" lon="5.49666">
        <ele>61</ele>
        <time>2019-10-02T11:13:14Z</time>
      </trkpt>
      <trkpt lat="43.20277" lon="5.49674">
        <ele>56</ele>
        <time>2019-10-02T11:13:18Z</time>
      </trkpt>
      <trkpt lat="43.20273" lon="5.4968">
        <ele>55</ele>
        <time>2019-10-02T11:13:24Z</time>
      </trkpt>
      <trkpt lat="43.20267" lon="5.4968">
        <ele>53</ele>
        <time>2019-10-02T11:13:30Z</time>
      </trkpt>
      <trkpt lat="43.20262" lon="5.49681">
        <ele>54</ele>
        <time>2019-10-02T11:13:34Z</time>
      </trkpt>
      <trkpt lat="43.20257" lon="5.49685">
        <ele>60</ele>
        <time>2019-10-02T11:13:42Z</time>
      </trkpt>
      <trkpt lat="43.2025" lon="5.49689">
        <ele>58</ele>
        <time>2019-10-02T11:13:48Z</time>
      </trkpt>
      <trkpt lat="43.20247" lon="5.49696">
        <ele>52</ele>
        <time>2019-10-02T11:13:52Z</time>
      </trkpt>
      <trkpt lat="43.20247" lon="5.49705">
        <ele>50</ele>
        <time>2019-10-02T11:13:56Z</time>
      </trkpt>
      <trkpt lat="43.20246" lon="5.49712">
        <ele>49</ele>
        <time>2019-10-02T11:14:00Z</time>
      </trkpt>
      <trkpt lat="43.20246" lon="5.49721">
        <ele>49</ele>
        <time>2019-10-02T11:14:06Z</time>
      </trkpt>
      <trkpt lat="43.20244" lon="5.49728">
        <ele>48</ele>
        <time>2019-10-02T11:14:10Z</time>
      </trkpt>
      <trkpt lat="43.20244" lon="5.49736">
        <ele>46</ele>
        <time>2019-10-02T11:14:16Z</time>
      </trkpt>
      <trkpt lat="43.2024" lon="5.49741">
        <ele>43</ele>
        <time>2019-10-02T11:14:22Z</time>
      </trkpt>
      <trkpt lat="43.20237" lon="5.49747">
        <ele>44</ele>
        <time>2019-10-02T11:14:28Z</time>
      </trkpt>
      <trkpt lat="43.20236" lon="5.49753">
        <ele>44</ele>
        <time>2019-10-02T11:14:32Z</time>
      </trkpt>
      <trkpt lat="43.20236" lon="5.49761">
        <ele>44</ele>
        <time>2019-10-02T11:14:38Z</time>
      </trkpt>
      <trkpt lat="43.20237" lon="5.49769">
        <ele>43</ele>
        <time>2019-10-02T11:14:46Z</time>
      </trkpt>
      <trkpt lat="43.20237" lon="5.49777">
        <ele>45</ele>
        <time>2019-10-02T11:14:52Z</time>
      </trkpt>
      <trkpt lat="43.20235" lon="5.49785">
        <ele>42</ele>
        <time>2019-10-02T11:14:58Z</time>
      </trkpt>
      <trkpt lat="43.20235" lon="5.49793">
        <ele>41</ele>
        <time>2019-10-02T11:15:04Z</time>
      </trkpt>
      <trkpt lat="43.20236" lon="5.498">
        <ele>38</ele>
        <time>2019-10-02T11:15:30Z</time>
      </trkpt>
      <trkpt lat="43.20239" lon="5.49806">
        <ele>39</ele>
        <time>2019-10-02T11:15:38Z</time>
      </trkpt>
      <trkpt lat="43.20242" lon="5.49811">
        <ele>39</ele>
        <time>2019-10-02T11:15:44Z</time>
      </trkpt>
      <trkpt lat="43.20247" lon="5.49812">
        <ele>43</ele>
        <time>2019-10-02T11:16:00Z</time>
      </trkpt>
      <trkpt lat="43.20252" lon="5.49813">
        <ele>47</ele>
        <time>2019-10-02T11:16:26Z</time>
      </trkpt>
      <trkpt lat="43.20247" lon="5.49809">
        <ele>49</ele>
        <time>2019-10-02T11:19:20Z</time>
      </trkpt>
      <trkpt lat="43.20248" lon="5.49815">
        <ele>55</ele>
        <time>2019-10-02T11:20:30Z</time>
      </trkpt>
      <trkpt lat="43.20243" lon="5.49817">
        <ele>52</ele>
        <time>2019-10-02T11:21:24Z</time>
      </trkpt>
      <trkpt lat="43.20238" lon="5.49817">
        <ele>49</ele>
        <time>2019-10-02T11:21:30Z</time>
      </trkpt>
      <trkpt lat="43.20243" lon="5.4982">
        <ele>38</ele>
        <time>2019-10-02T11:26:20Z</time>
      </trkpt>
      <trkpt lat="43.20248" lon="5.49823">
        <ele>42</ele>
        <time>2019-10-02T11:26:28Z</time>
      </trkpt>
      <trkpt lat="43.20251" lon="5.49819">
        <ele>43</ele>
        <time>2019-10-02T11:29:06Z</time>
      </trkpt>
      <trkpt lat="43.20253" lon="5.49824">
        <ele>46</ele>
        <time>2019-10-02T11:31:01Z</time>
      </trkpt>
      <trkpt lat="43.20249" lon="5.49826">
        <ele>48</ele>
        <time>2019-10-02T11:31:41Z</time>
      </trkpt>
      <trkpt lat="43.20244" lon="5.49826">
        <ele>47</ele>
        <time>2019-10-02T11:32:05Z</time>
      </trkpt>
      <trkpt lat="43.20239" lon="5.49825">
        <ele>44</ele>
        <time>2019-10-02T11:32:35Z</time>
      </trkpt>
      <trkpt lat="43.20241" lon="5.49832">
        <ele>54</ele>
        <time>2019-10-02T11:34:43Z</time>
      </trkpt>
      <trkpt lat="43.20246" lon="5.49832">
        <ele>55</ele>
        <time>2019-10-02T11:34:49Z</time>
      </trkpt>
      <trkpt lat="43.20251" lon="5.49829">
        <ele>55</ele>
        <time>2019-10-02T11:34:55Z</time>
      </trkpt>
      <trkpt lat="43.20254" lon="5.49824">
        <ele>57</ele>
        <time>2019-10-02T11:35:05Z</time>
      </trkpt>
      <trkpt lat="43.20253" lon="5.49818">
        <ele>54</ele>
        <time>2019-10-02T11:38:59Z</time>
      </trkpt>
      <trkpt lat="43.20249" lon="5.49814">
        <ele>60</ele>
        <time>2019-10-02T11:49:21Z</time>
      </trkpt>
      <trkpt lat="43.20244" lon="5.49809">
        <ele>64</ele>
        <time>2019-10-02T11:50:09Z</time>
      </trkpt>
      <trkpt lat="43.20249" lon="5.49815">
        <ele>65</ele>
        <time>2019-10-02T11:50:47Z</time>
      </trkpt>
      <trkpt lat="43.20252" lon="5.4982">
        <ele>66</ele>
        <time>2019-10-02T11:51:39Z</time>
      </trkpt>
      <trkpt lat="43.20256" lon="5.49824">
        <ele>56</ele>
        <time>2019-10-02T11:53:13Z</time>
      </trkpt>
      <trkpt lat="43.20258" lon="5.49816">
        <ele>46</ele>
        <time>2019-10-02T11:56:11Z</time>
      </trkpt>
      <trkpt lat="43.20254" lon="5.49816">
        <ele>52</ele>
        <time>2019-10-02T11:58:51Z</time>
      </trkpt>
      <trkpt lat="43.20249" lon="5.49816">
        <ele>55</ele>
        <time>2019-10-02T12:02:29Z</time>
      </trkpt>
      <trkpt lat="43.20245" lon="5.49816">
        <ele>58</ele>
        <time>2019-10-02T12:07:27Z</time>
      </trkpt>
      <trkpt lat="43.20241" lon="5.4982">
        <ele>69</ele>
        <time>2019-10-02T12:10:13Z</time>
      </trkpt>
      <trkpt lat="43.20237" lon="5.49821">
        <ele>73</ele>
        <time>2019-10-02T12:15:37Z</time>
      </trkpt>
      <trkpt lat="43.20232" lon="5.49822">
        <ele>77</ele>
        <time>2019-10-02T12:19:33Z</time>
      </trkpt>
      <trkpt lat="43.20235" lon="5.49827">
        <ele>80</ele>
        <time>2019-10-02T12:32:23Z</time>
      </trkpt>
      <trkpt lat="43.20231" lon="5.49825">
        <ele>92</ele>
        <time>2019-10-02T12:44:11Z</time>
      </trkpt>
      <trkpt lat="43.20225" lon="5.49825">
        <ele>90</ele>
        <time>2019-10-02T12:50:11Z</time>
      </trkpt>
      <trkpt lat="43.2023" lon="5.49827">
        <ele>81</ele>
        <time>2019-10-02T12:51:49Z</time>
      </trkpt>
      <trkpt lat="43.20235" lon="5.49826">
        <ele>83</ele>
        <time>2019-10-02T12:52:41Z</time>
      </trkpt>
      <trkpt lat="43.20241" lon="5.49826">
        <ele>73</ele>
        <time>2019-10-02T12:53:15Z</time>
      </trkpt>
      <trkpt lat="43.20236" lon="5.49823">
        <ele>67</ele>
        <time>2019-10-02T12:54:05Z</time>
      </trkpt>
      <trkpt lat="43.20231" lon="5.49821">
        <ele>59</ele>
        <time>2019-10-02T13:00:43Z</time>
      </trkpt>
      <trkpt lat="43.20226" lon="5.49824">
        <ele>52</ele>
        <time>2019-10-02T13:01:13Z</time>
      </trkpt>
      <trkpt lat="43.20232" lon="5.4982">
        <ele>58</ele>
        <time>2019-10-02T13:03:21Z</time>
      </trkpt>
      <trkpt lat="43.20237" lon="5.49818">
        <ele>57</ele>
        <time>2019-10-02T13:03:27Z</time>
      </trkpt>
      <trkpt lat="43.20242" lon="5.49816">
        <ele>53</ele>
        <time>2019-10-02T13:03:59Z</time>
      </trkpt>
      <trkpt lat="43.20245" lon="5.49821">
        <ele>44</ele>
        <time>2019-10-02T13:05:07Z</time>
      </trkpt>
      <trkpt lat="43.20249" lon="5.49817">
        <ele>52</ele>
        <time>2019-10-02T13:06:01Z</time>
      </trkpt>
      <trkpt lat="43.20244" lon="5.49819">
        <ele>45</ele>
        <time>2019-10-02T13:06:49Z</time>
      </trkpt>
      <trkpt lat="43.20242" lon="5.49814">
        <ele>47</ele>
        <time>2019-10-02T13:07:15Z</time>
      </trkpt>
      <trkpt lat="43.20246" lon="5.49809">
        <ele>45</ele>
        <time>2019-10-02T13:07:23Z</time>
      </trkpt>
      <trkpt lat="43.20244" lon="5.49803">
        <ele>45</ele>
        <time>2019-10-02T13:07:49Z</time>
      </trkpt>
      <trkpt lat="43.20248" lon="5.49799">
        <ele>42</ele>
        <time>2019-10-02T13:08:01Z</time>
      </trkpt>
      <trkpt lat="43.20243" lon="5.49797">
        <ele>42</ele>
        <time>2019-10-02T13:08:27Z</time>
      </trkpt>
      <trkpt lat="43.20245" lon="5.49792">
        <ele>42</ele>
        <time>2019-10-02T13:09:07Z</time>
      </trkpt>
      <trkpt lat="43.20246" lon="5.49785">
        <ele>41</ele>
        <time>2019-10-02T13:09:25Z</time>
      </trkpt>
      <trkpt lat="43.20246" lon="5.49779">
        <ele>41</ele>
        <time>2019-10-02T13:09:39Z</time>
      </trkpt>
      <trkpt lat="43.20245" lon="5.49773">
        <ele>40</ele>
        <time>2019-10-02T13:09:45Z</time>
      </trkpt>
      <trkpt lat="43.20242" lon="5.49766">
        <ele>38</ele>
        <time>2019-10-02T13:09:53Z</time>
      </trkpt>
      <trkpt lat="43.20243" lon="5.49759">
        <ele>41</ele>
        <time>2019-10-02T13:10:01Z</time>
      </trkpt>
      <trkpt lat="43.20245" lon="5.49753">
        <ele>41</ele>
        <time>2019-10-02T13:10:07Z</time>
      </trkpt>
      <trkpt lat="43.20249" lon="5.49749">
        <ele>42</ele>
        <time>2019-10-02T13:10:15Z</time>
      </trkpt>
      <trkpt lat="43.20253" lon="5.49744">
        <ele>43</ele>
        <time>2019-10-02T13:10:23Z</time>
      </trkpt>
      <trkpt lat="43.20254" lon="5.49737">
        <ele>43</ele>
        <time>2019-10-02T13:10:29Z</time>
      </trkpt>
      <trkpt lat="43.20254" lon="5.4973">
        <ele>47</ele>
        <time>2019-10-02T13:10:35Z</time>
      </trkpt>
      <trkpt lat="43.20254" lon="5.49723">
        <ele>46</ele>
        <time>2019-10-02T13:10:41Z</time>
      </trkpt>
      <trkpt lat="43.20254" lon="5.49715">
        <ele>47</ele>
        <time>2019-10-02T13:10:49Z</time>
      </trkpt>
      <trkpt lat="43.20253" lon="5.49707">
        <ele>46</ele>
        <time>2019-10-02T13:10:57Z</time>
      </trkpt>
      <trkpt lat="43.20257" lon="5.49704">
        <ele>42</ele>
        <time>2019-10-02T13:11:05Z</time>
      </trkpt>
      <trkpt lat="43.20263" lon="5.49702">
        <ele>41</ele>
        <time>2019-10-02T13:11:15Z</time>
      </trkpt>
      <trkpt lat="43.20268" lon="5.49699">
        <ele>43</ele>
        <time>2019-10-02T13:11:19Z</time>
      </trkpt>
      <trkpt lat="43.20273" lon="5.49696">
        <ele>42</ele>
        <time>2019-10-02T13:11:23Z</time>
      </trkpt>
      <trkpt lat="43.20278" lon="5.49693">
        <ele>40</ele>
        <time>2019-10-02T13:11:31Z</time>
      </trkpt>
      <trkpt lat="43.20284" lon="5.49692">
        <ele>40</ele>
        <time>2019-10-02T13:11:47Z</time>
      </trkpt>
      <trkpt lat="43.2029" lon="5.4969">
        <ele>36</ele>
        <time>2019-10-02T13:11:51Z</time>
      </trkpt>
      <trkpt lat="43.20295" lon="5.49689">
        <ele>38</ele>
        <time>2019-10-02T13:11:57Z</time>
      </trkpt>
      <trkpt lat="43.20301" lon="5.49683">
        <ele>38</ele>
        <time>2019-10-02T13:12:05Z</time>
      </trkpt>
      <trkpt lat="43.20305" lon="5.49679">
        <ele>38</ele>
        <time>2019-10-02T13:12:09Z</time>
      </trkpt>
      <trkpt lat="43.2031" lon="5.49675">
        <ele>39</ele>
        <time>2019-10-02T13:12:19Z</time>
      </trkpt>
      <trkpt lat="43.20315" lon="5.49673">
        <ele>38</ele>
        <time>2019-10-02T13:12:27Z</time>
      </trkpt>
      <trkpt lat="43.2032" lon="5.49669">
        <ele>44</ele>
        <time>2019-10-02T13:12:33Z</time>
      </trkpt>
      <trkpt lat="43.20325" lon="5.49669">
        <ele>46</ele>
        <time>2019-10-02T13:12:37Z</time>
      </trkpt>
      <trkpt lat="43.2033" lon="5.49667">
        <ele>45</ele>
        <time>2019-10-02T13:12:41Z</time>
      </trkpt>
      <trkpt lat="43.20335" lon="5.49664">
        <ele>46</ele>
        <time>2019-10-02T13:12:47Z</time>
      </trkpt>
      <trkpt lat="43.2034" lon="5.49662">
        <ele>50</ele>
        <time>2019-10-02T13:12:57Z</time>
      </trkpt>
      <trkpt lat="43.20344" lon="5.4966">
        <ele>53</ele>
        <time>2019-10-02T13:13:03Z</time>
      </trkpt>
      <trkpt lat="43.2035" lon="5.4966">
        <ele>56</ele>
        <time>2019-10-02T13:13:11Z</time>
      </trkpt>
      <trkpt lat="43.20354" lon="5.49658">
        <ele>53</ele>
        <time>2019-10-02T13:13:17Z</time>
      </trkpt>
      <trkpt lat="43.20361" lon="5.49655">
        <ele>52</ele>
        <time>2019-10-02T13:13:23Z</time>
      </trkpt>
      <trkpt lat="43.20366" lon="5.49654">
        <ele>51</ele>
        <time>2019-10-02T13:13:27Z</time>
      </trkpt>
      <trkpt lat="43.20371" lon="5.49651">
        <ele>51</ele>
        <time>2019-10-02T13:13:33Z</time>
      </trkpt>
      <trkpt lat="43.20375" lon="5.49649">
        <ele>50</ele>
        <time>2019-10-02T13:13:37Z</time>
      </trkpt>
      <trkpt lat="43.20382" lon="5.49647">
        <ele>51</ele>
        <time>2019-10-02T13:13:43Z</time>
      </trkpt>
      <trkpt lat="43.20386" lon="5.49643">
        <ele>54</ele>
        <time>2019-10-02T13:13:49Z</time>
      </trkpt>
      <trkpt lat="43.20391" lon="5.49641">
        <ele>59</ele>
        <time>2019-10-02T13:13:53Z</time>
      </trkpt>
      <trkpt lat="43.20397" lon="5.49639">
        <ele>59</ele>
        <time>2019-10-02T13:13:59Z</time>
      </trkpt>
      <trkpt lat="43.20402" lon="5.49638">
        <ele>65</ele>
        <time>2019-10-02T13:14:05Z</time>
      </trkpt>
      <trkpt lat="43.20406" lon="5.49637">
        <ele>66</ele>
        <time>2019-10-02T13:14:11Z</time>
      </trkpt>
      <trkpt lat="43.20411" lon="5.49636">
        <ele>62</ele>
        <time>2019-10-02T13:14:15Z</time>
      </trkpt>
      <trkpt lat="43.20417" lon="5.49638">
        <ele>62</ele>
        <time>2019-10-02T13:14:21Z</time>
      </trkpt>
      <trkpt lat="43.20422" lon="5.49643">
        <ele>60</ele>
        <time>2019-10-02T13:14:27Z</time>
      </trkpt>
      <trkpt lat="43.20427" lon="5.49646">
        <ele>59</ele>
        <time>2019-10-02T13:14:31Z</time>
      </trkpt>
      <trkpt lat="43.20433" lon="5.4965">
        <ele>54</ele>
        <time>2019-10-02T13:14:39Z</time>
      </trkpt>
      <trkpt lat="43.20439" lon="5.49652">
        <ele>58</ele>
        <time>2019-10-02T13:14:45Z</time>
      </trkpt>
      <trkpt lat="43.20443" lon="5.49652">
        <ele>59</ele>
        <time>2019-10-02T13:14:49Z</time>
      </trkpt>
      <trkpt lat="43.20448" lon="5.49652">
        <ele>58</ele>
        <time>2019-10-02T13:14:53Z</time>
      </trkpt>
      <trkpt lat="43.20455" lon="5.49653">
        <ele>57</ele>
        <time>2019-10-02T13:14:59Z</time>
      </trkpt>
      <trkpt lat="43.20461" lon="5.49652">
        <ele>58</ele>
        <time>2019-10-02T13:15:05Z</time>
      </trkpt>
      <trkpt lat="43.20467" lon="5.49651">
        <ele>55</ele>
        <time>2019-10-02T13:15:13Z</time>
      </trkpt>
      <trkpt lat="43.20471" lon="5.49654">
        <ele>60</ele>
        <time>2019-10-02T13:15:23Z</time>
      </trkpt>
      <trkpt lat="43.20477" lon="5.49655">
        <ele>55</ele>
        <time>2019-10-02T13:15:27Z</time>
      </trkpt>
      <trkpt lat="43.20483" lon="5.49655">
        <ele>53</ele>
        <time>2019-10-02T13:15:31Z</time>
      </trkpt>
      <trkpt lat="43.20488" lon="5.49655">
        <ele>51</ele>
        <time>2019-10-02T13:15:35Z</time>
      </trkpt>
      <trkpt lat="43.20494" lon="5.49656">
        <ele>48</ele>
        <time>2019-10-02T13:15:39Z</time>
      </trkpt>
      <trkpt lat="43.205" lon="5.49657">
        <ele>49</ele>
        <time>2019-10-02T13:15:45Z</time>
      </trkpt>
      <trkpt lat="43.20505" lon="5.49657">
        <ele>47</ele>
        <time>2019-10-02T13:15:49Z</time>
      </trkpt>
      <trkpt lat="43.20511" lon="5.49655">
        <ele>48</ele>
        <time>2019-10-02T13:15:55Z</time>
      </trkpt>
      <trkpt lat="43.20515" lon="5.49652">
        <ele>46</ele>
        <time>2019-10-02T13:15:59Z</time>
      </trkpt>
      <trkpt lat="43.20519" lon="5.49649">
        <ele>49</ele>
        <time>2019-10-02T13:16:03Z</time>
      </trkpt>
      <trkpt lat="43.20525" lon="5.49648">
        <ele>50</ele>
        <time>2019-10-02T13:16:09Z</time>
      </trkpt>
      <trkpt lat="43.2053" lon="5.49649">
        <ele>51</ele>
        <time>2019-10-02T13:16:15Z</time>
      </trkpt>
      <trkpt lat="43.20535" lon="5.49648">
        <ele>52</ele>
        <time>2019-10-02T13:16:21Z</time>
      </trkpt>
      <trkpt lat="43.2054" lon="5.49647">
        <ele>52</ele>
        <time>2019-10-02T13:16:27Z</time>
      </trkpt>
      <trkpt lat="43.20546" lon="5.49652">
        <ele>55</ele>
        <time>2019-10-02T13:16:35Z</time>
      </trkpt>
      <trkpt lat="43.20551" lon="5.49654">
        <ele>55</ele>
        <time>2019-10-02T13:16:41Z</time>
      </trkpt>
      <trkpt lat="43.20555" lon="5.49656">
        <ele>58</ele>
        <time>2019-10-02T13:16:47Z</time>
      </trkpt>
      <trkpt lat="43.20559" lon="5.49662">
        <ele>58</ele>
        <time>2019-10-02T13:16:53Z</time>
      </trkpt>
      <trkpt lat="43.2056" lon="5.49669">
        <ele>57</ele>
        <time>2019-10-02T13:16:59Z</time>
      </trkpt>
      <trkpt lat="43.20561" lon="5.49676">
        <ele>55</ele>
        <time>2019-10-02T13:17:05Z</time>
      </trkpt>
      <trkpt lat="43.20563" lon="5.49682">
        <ele>59</ele>
        <time>2019-10-02T13:17:11Z</time>
      </trkpt>
      <trkpt lat="43.20567" lon="5.49687">
        <ele>58</ele>
        <time>2019-10-02T13:17:15Z</time>
      </trkpt>
      <trkpt lat="43.20571" lon="5.49693">
        <ele>61</ele>
        <time>2019-10-02T13:17:21Z</time>
      </trkpt>
      <trkpt lat="43.20574" lon="5.49699">
        <ele>59</ele>
        <time>2019-10-02T13:17:27Z</time>
      </trkpt>
      <trkpt lat="43.20579" lon="5.49704">
        <ele>59</ele>
        <time>2019-10-02T13:17:33Z</time>
      </trkpt>
      <trkpt lat="43.20583" lon="5.49708">
        <ele>59</ele>
        <time>2019-10-02T13:17:37Z</time>
      </trkpt>
      <trkpt lat="43.20588" lon="5.4971">
        <ele>58</ele>
        <time>2019-10-02T13:17:41Z</time>
      </trkpt>
      <trkpt lat="43.20592" lon="5.49715">
        <ele>59</ele>
        <time>2019-10-02T13:17:45Z</time>
      </trkpt>
      <trkpt lat="43.20597" lon="5.49719">
        <ele>62</ele>
        <time>2019-10-02T13:17:49Z</time>
      </trkpt>
      <trkpt lat="43.20603" lon="5.49722">
        <ele>60</ele>
        <time>2019-10-02T13:17:55Z</time>
      </trkpt>
      <trkpt lat="43.20607" lon="5.49728">
        <ele>60</ele>
        <time>2019-10-02T13:18:01Z</time>
      </trkpt>
      <trkpt lat="43.20612" lon="5.49734">
        <ele>62</ele>
        <time>2019-10-02T13:18:07Z</time>
      </trkpt>
      <trkpt lat="43.20618" lon="5.49737">
        <ele>59</ele>
        <time>2019-10-02T13:18:15Z</time>
      </trkpt>
      <trkpt lat="43.20622" lon="5.49735">
        <ele>60</ele>
        <time>2019-10-02T13:18:19Z</time>
      </trkpt>
      <trkpt lat="43.20627" lon="5.49733">
        <ele>60</ele>
        <time>2019-10-02T13:18:23Z</time>
      </trkpt>
      <trkpt lat="43.20632" lon="5.4973">
        <ele>63</ele>
        <time>2019-10-02T13:18:29Z</time>
      </trkpt>
      <trkpt lat="43.20638" lon="5.4973">
        <ele>63</ele>
        <time>2019-10-02T13:18:39Z</time>
      </trkpt>
      <trkpt lat="43.20641" lon="5.49735">
        <ele>64</ele>
        <time>2019-10-02T13:18:45Z</time>
      </trkpt>
      <trkpt lat="43.2064" lon="5.49742">
        <ele>66</ele>
        <time>2019-10-02T13:18:49Z</time>
      </trkpt>
      <trkpt lat="43.2064" lon="5.4975">
        <ele>64</ele>
        <time>2019-10-02T13:18:55Z</time>
      </trkpt>
      <trkpt lat="43.2064" lon="5.49757">
        <ele>63</ele>
        <time>2019-10-02T13:18:59Z</time>
      </trkpt>
      <trkpt lat="43.2064" lon="5.49765">
        <ele>63</ele>
        <time>2019-10-02T13:19:05Z</time>
      </trkpt>
      <trkpt lat="43.2064" lon="5.49772">
        <ele>63</ele>
        <time>2019-10-02T13:19:11Z</time>
      </trkpt>
      <trkpt lat="43.2064" lon="5.49779">
        <ele>66</ele>
        <time>2019-10-02T13:19:15Z</time>
      </trkpt>
      <trkpt lat="43.20641" lon="5.49785">
        <ele>67</ele>
        <time>2019-10-02T13:19:19Z</time>
      </trkpt>
      <trkpt lat="43.20639" lon="5.49793">
        <ele>66</ele>
        <time>2019-10-02T13:19:25Z</time>
      </trkpt>
      <trkpt lat="43.20639" lon="5.498">
        <ele>67</ele>
        <time>2019-10-02T13:19:31Z</time>
      </trkpt>
      <trkpt lat="43.20636" lon="5.49807">
        <ele>63</ele>
        <time>2019-10-02T13:19:39Z</time>
      </trkpt>
      <trkpt lat="43.20633" lon="5.49813">
        <ele>60</ele>
        <time>2019-10-02T13:19:43Z</time>
      </trkpt>
      <trkpt lat="43.20632" lon="5.4982">
        <ele>62</ele>
        <time>2019-10-02T13:19:49Z</time>
      </trkpt>
      <trkpt lat="43.20629" lon="5.49826">
        <ele>66</ele>
        <time>2019-10-02T13:19:53Z</time>
      </trkpt>
      <trkpt lat="43.20627" lon="5.49832">
        <ele>66</ele>
        <time>2019-10-02T13:19:59Z</time>
      </trkpt>
      <trkpt lat="43.20626" lon="5.49839">
        <ele>69</ele>
        <time>2019-10-02T13:20:05Z</time>
      </trkpt>
      <trkpt lat="43.20622" lon="5.49844">
        <ele>72</ele>
        <time>2019-10-02T13:20:09Z</time>
      </trkpt>
      <trkpt lat="43.20618" lon="5.4985">
        <ele>70</ele>
        <time>2019-10-02T13:20:15Z</time>
      </trkpt>
      <trkpt lat="43.20616" lon="5.49856">
        <ele>70</ele>
        <time>2019-10-02T13:20:19Z</time>
      </trkpt>
      <trkpt lat="43.20612" lon="5.49863">
        <ele>67</ele>
        <time>2019-10-02T13:20:25Z</time>
      </trkpt>
      <trkpt lat="43.20609" lon="5.49869">
        <ele>66</ele>
        <time>2019-10-02T13:20:31Z</time>
      </trkpt>
      <trkpt lat="43.20608" lon="5.49877">
        <ele>65</ele>
        <time>2019-10-02T13:20:37Z</time>
      </trkpt>
      <trkpt lat="43.20605" lon="5.49883">
        <ele>65</ele>
        <time>2019-10-02T13:20:41Z</time>
      </trkpt>
      <trkpt lat="43.20604" lon="5.49889">
        <ele>65</ele>
        <time>2019-10-02T13:20:45Z</time>
      </trkpt>
      <trkpt lat="43.20605" lon="5.49897">
        <ele>64</ele>
        <time>2019-10-02T13:20:51Z</time>
      </trkpt>
      <trkpt lat="43.20607" lon="5.49904">
        <ele>59</ele>
        <time>2019-10-02T13:20:59Z</time>
      </trkpt>
      <trkpt lat="43.2061" lon="5.49908">
        <ele>67</ele>
        <time>2019-10-02T13:21:21Z</time>
      </trkpt>
      <trkpt lat="43.20614" lon="5.49913">
        <ele>68</ele>
        <time>2019-10-02T13:21:39Z</time>
      </trkpt>
      <trkpt lat="43.20619" lon="5.49917">
        <ele>68</ele>
        <time>2019-10-02T13:22:03Z</time>
      </trkpt>
      <trkpt lat="43.20624" lon="5.49919">
        <ele>71</ele>
        <time>2019-10-02T13:22:11Z</time>
      </trkpt>
      <trkpt lat="43.20629" lon="5.4992">
        <ele>73</ele>
        <time>2019-10-02T13:22:17Z</time>
      </trkpt>
      <trkpt lat="43.20633" lon="5.49918">
        <ele>76</ele>
        <time>2019-10-02T13:22:21Z</time>
      </trkpt>
      <trkpt lat="43.20639" lon="5.49915">
        <ele>79</ele>
        <time>2019-10-02T13:22:27Z</time>
      </trkpt>
      <trkpt lat="43.20645" lon="5.49913">
        <ele>80</ele>
        <time>2019-10-02T13:22:33Z</time>
      </trkpt>
      <trkpt lat="43.2065" lon="5.49911">
        <ele>81</ele>
        <time>2019-10-02T13:22:41Z</time>
      </trkpt>
      <trkpt lat="43.20656" lon="5.49907">
        <ele>78</ele>
        <time>2019-10-02T13:22:47Z</time>
      </trkpt>
      <trkpt lat="43.20663" lon="5.49906">
        <ele>79</ele>
        <time>2019-10-02T13:22:53Z</time>
      </trkpt>
      <trkpt lat="43.20667" lon="5.49899">
        <ele>78</ele>
        <time>2019-10-02T13:22:59Z</time>
      </trkpt>
      <trkpt lat="43.2067" lon="5.49894">
        <ele>76</ele>
        <time>2019-10-02T13:23:05Z</time>
      </trkpt>
      <trkpt lat="43.20674" lon="5.49887">
        <ele>76</ele>
        <time>2019-10-02T13:23:11Z</time>
      </trkpt>
      <trkpt lat="43.20677" lon="5.4988">
        <ele>74</ele>
        <time>2019-10-02T13:23:17Z</time>
      </trkpt>
      <trkpt lat="43.2068" lon="5.49873">
        <ele>75</ele>
        <time>2019-10-02T13:23:23Z</time>
      </trkpt>
      <trkpt lat="43.20684" lon="5.49868">
        <ele>76</ele>
        <time>2019-10-02T13:23:29Z</time>
      </trkpt>
      <trkpt lat="43.20689" lon="5.49864">
        <ele>79</ele>
        <time>2019-10-02T13:23:37Z</time>
      </trkpt>
      <trkpt lat="43.20694" lon="5.49861">
        <ele>82</ele>
        <time>2019-10-02T13:23:47Z</time>
      </trkpt>
      <trkpt lat="43.20698" lon="5.49859">
        <ele>82</ele>
        <time>2019-10-02T13:23:51Z</time>
      </trkpt>
      <trkpt lat="43.20704" lon="5.49855">
        <ele>86</ele>
        <time>2019-10-02T13:23:59Z</time>
      </trkpt>
      <trkpt lat="43.20709" lon="5.49849">
        <ele>82</ele>
        <time>2019-10-02T13:24:05Z</time>
      </trkpt>
      <trkpt lat="43.20714" lon="5.49846">
        <ele>80</ele>
        <time>2019-10-02T13:24:09Z</time>
      </trkpt>
      <trkpt lat="43.20719" lon="5.49843">
        <ele>78</ele>
        <time>2019-10-02T13:24:15Z</time>
      </trkpt>
      <trkpt lat="43.20724" lon="5.49839">
        <ele>79</ele>
        <time>2019-10-02T13:24:21Z</time>
      </trkpt>
      <trkpt lat="43.20728" lon="5.49835">
        <ele>81</ele>
        <time>2019-10-02T13:24:27Z</time>
      </trkpt>
      <trkpt lat="43.20733" lon="5.4983">
        <ele>80</ele>
        <time>2019-10-02T13:24:35Z</time>
      </trkpt>
      <trkpt lat="43.20737" lon="5.49828">
        <ele>79</ele>
        <time>2019-10-02T13:24:39Z</time>
      </trkpt>
      <trkpt lat="43.20741" lon="5.49824">
        <ele>80</ele>
        <time>2019-10-02T13:24:45Z</time>
      </trkpt>
      <trkpt lat="43.20746" lon="5.4982">
        <ele>79</ele>
        <time>2019-10-02T13:24:51Z</time>
      </trkpt>
      <trkpt lat="43.2075" lon="5.49816">
        <ele>79</ele>
        <time>2019-10-02T13:24:57Z</time>
      </trkpt>
      <trkpt lat="43.20754" lon="5.49812">
        <ele>80</ele>
        <time>2019-10-02T13:25:03Z</time>
      </trkpt>
      <trkpt lat="43.2076" lon="5.49808">
        <ele>84</ele>
        <time>2019-10-02T13:25:09Z</time>
      </trkpt>
      <trkpt lat="43.20764" lon="5.49805">
        <ele>82</ele>
        <time>2019-10-02T13:25:13Z</time>
      </trkpt>
      <trkpt lat="43.20769" lon="5.49801">
        <ele>84</ele>
        <time>2019-10-02T13:25:19Z</time>
      </trkpt>
      <trkpt lat="43.20773" lon="5.49797">
        <ele>84</ele>
        <time>2019-10-02T13:25:23Z</time>
      </trkpt>
      <trkpt lat="43.20779" lon="5.49793">
        <ele>84</ele>
        <time>2019-10-02T13:25:29Z</time>
      </trkpt>
      <trkpt lat="43.20786" lon="5.49792">
        <ele>83</ele>
        <time>2019-10-02T13:25:33Z</time>
      </trkpt>
      <trkpt lat="43.20792" lon="5.49787">
        <ele>86</ele>
        <time>2019-10-02T13:25:39Z</time>
      </trkpt>
      <trkpt lat="43.20795" lon="5.49781">
        <ele>91</ele>
        <time>2019-10-02T13:25:45Z</time>
      </trkpt>
      <trkpt lat="43.20799" lon="5.49776">
        <ele>95</ele>
        <time>2019-10-02T13:25:51Z</time>
      </trkpt>
      <trkpt lat="43.20803" lon="5.49774">
        <ele>96</ele>
        <time>2019-10-02T13:25:55Z</time>
      </trkpt>
      <trkpt lat="43.20807" lon="5.49769">
        <ele>96</ele>
        <time>2019-10-02T13:26:01Z</time>
      </trkpt>
      <trkpt lat="43.20812" lon="5.49764">
        <ele>95</ele>
        <time>2019-10-02T13:26:07Z</time>
      </trkpt>
      <trkpt lat="43.20815" lon="5.49759">
        <ele>95</ele>
        <time>2019-10-02T13:26:13Z</time>
      </trkpt>
      <trkpt lat="43.20819" lon="5.49756">
        <ele>96</ele>
        <time>2019-10-02T13:26:19Z</time>
      </trkpt>
      <trkpt lat="43.20824" lon="5.49752">
        <ele>96</ele>
        <time>2019-10-02T13:26:25Z</time>
      </trkpt>
      <trkpt lat="43.20829" lon="5.49749">
        <ele>99</ele>
        <time>2019-10-02T13:26:31Z</time>
      </trkpt>
      <trkpt lat="43.20834" lon="5.49746">
        <ele>99</ele>
        <time>2019-10-02T13:26:35Z</time>
      </trkpt>
      <trkpt lat="43.20838" lon="5.49745">
        <ele>99</ele>
        <time>2019-10-02T13:26:41Z</time>
      </trkpt>
      <trkpt lat="43.20844" lon="5.49742">
        <ele>100</ele>
        <time>2019-10-02T13:26:47Z</time>
      </trkpt>
      <trkpt lat="43.20848" lon="5.4974">
        <ele>103</ele>
        <time>2019-10-02T13:26:53Z</time>
      </trkpt>
      <trkpt lat="43.20854" lon="5.49735">
        <ele>105</ele>
        <time>2019-10-02T13:27:05Z</time>
      </trkpt>
      <trkpt lat="43.20858" lon="5.49733">
        <ele>105</ele>
        <time>2019-10-02T13:27:09Z</time>
      </trkpt>
      <trkpt lat="43.20863" lon="5.49731">
        <ele>105</ele>
        <time>2019-10-02T13:27:13Z</time>
      </trkpt>
      <trkpt lat="43.20867" lon="5.49729">
        <ele>104</ele>
        <time>2019-10-02T13:27:17Z</time>
      </trkpt>
      <trkpt lat="43.20871" lon="5.49725">
        <ele>104</ele>
        <time>2019-10-02T13:27:23Z</time>
      </trkpt>
      <trkpt lat="43.20876" lon="5.4972">
        <ele>103</ele>
        <time>2019-10-02T13:27:29Z</time>
      </trkpt>
      <trkpt lat="43.20881" lon="5.49718">
        <ele>104</ele>
        <time>2019-10-02T13:27:37Z</time>
      </trkpt>
      <trkpt lat="43.20887" lon="5.49716">
        <ele>104</ele>
        <time>2019-10-02T13:27:43Z</time>
      </trkpt>
      <trkpt lat="43.20891" lon="5.49715">
        <ele>104</ele>
        <time>2019-10-02T13:27:47Z</time>
      </trkpt>
      <trkpt lat="43.20898" lon="5.49712">
        <ele>103</ele>
        <time>2019-10-02T13:27:55Z</time>
      </trkpt>
      <trkpt lat="43.20903" lon="5.4971">
        <ele>101</ele>
        <time>2019-10-02T13:27:59Z</time>
      </trkpt>
      <trkpt lat="43.20907" lon="5.49709">
        <ele>100</ele>
        <time>2019-10-02T13:28:05Z</time>
      </trkpt>
      <trkpt lat="43.20913" lon="5.49708">
        <ele>99</ele>
        <time>2019-10-02T13:28:11Z</time>
      </trkpt>
      <trkpt lat="43.20918" lon="5.49708">
        <ele>98</ele>
        <time>2019-10-02T13:28:17Z</time>
      </trkpt>
      <trkpt lat="43.20923" lon="5.49708">
        <ele>98</ele>
        <time>2019-10-02T13:28:23Z</time>
      </trkpt>
      <trkpt lat="43.20928" lon="5.49707">
        <ele>95</ele>
        <time>2019-10-02T13:28:27Z</time>
      </trkpt>
      <trkpt lat="43.20932" lon="5.49704">
        <ele>95</ele>
        <time>2019-10-02T13:28:33Z</time>
      </trkpt>
      <trkpt lat="43.20937" lon="5.49701">
        <ele>99</ele>
        <time>2019-10-02T13:28:41Z</time>
      </trkpt>
      <trkpt lat="43.20944" lon="5.49699">
        <ele>96</ele>
        <time>2019-10-02T13:28:47Z</time>
      </trkpt>
      <trkpt lat="43.20951" lon="5.49697">
        <ele>95</ele>
        <time>2019-10-02T13:28:53Z</time>
      </trkpt>
      <trkpt lat="43.20956" lon="5.49696">
        <ele>97</ele>
        <time>2019-10-02T13:28:59Z</time>
      </trkpt>
      <trkpt lat="43.20962" lon="5.49695">
        <ele>97</ele>
        <time>2019-10-02T13:29:05Z</time>
      </trkpt>
      <trkpt lat="43.20967" lon="5.49695">
        <ele>99</ele>
        <time>2019-10-02T13:29:11Z</time>
      </trkpt>
      <trkpt lat="43.20971" lon="5.49695">
        <ele>98</ele>
        <time>2019-10-02T13:29:15Z</time>
      </trkpt>
      <trkpt lat="43.20977" lon="5.49696">
        <ele>100</ele>
        <time>2019-10-02T13:29:21Z</time>
      </trkpt>
      <trkpt lat="43.20982" lon="5.49697">
        <ele>100</ele>
        <time>2019-10-02T13:29:27Z</time>
      </trkpt>
      <trkpt lat="43.20987" lon="5.49697">
        <ele>99</ele>
        <time>2019-10-02T13:29:33Z</time>
      </trkpt>
      <trkpt lat="43.20991" lon="5.49693">
        <ele>102</ele>
        <time>2019-10-02T13:29:39Z</time>
      </trkpt>
      <trkpt lat="43.20995" lon="5.4969">
        <ele>108</ele>
        <time>2019-10-02T13:29:47Z</time>
      </trkpt>
      <trkpt lat="43.21" lon="5.49689">
        <ele>107</ele>
        <time>2019-10-02T13:29:51Z</time>
      </trkpt>
      <trkpt lat="43.21005" lon="5.49686">
        <ele>106</ele>
        <time>2019-10-02T13:29:57Z</time>
      </trkpt>
      <trkpt lat="43.21009" lon="5.49683">
        <ele>110</ele>
        <time>2019-10-02T13:30:03Z</time>
      </trkpt>
      <trkpt lat="43.21014" lon="5.49679">
        <ele>111</ele>
        <time>2019-10-02T13:30:09Z</time>
      </trkpt>
      <trkpt lat="43.21019" lon="5.49674">
        <ele>112</ele>
        <time>2019-10-02T13:30:15Z</time>
      </trkpt>
      <trkpt lat="43.21023" lon="5.4967">
        <ele>109</ele>
        <time>2019-10-02T13:30:21Z</time>
      </trkpt>
      <trkpt lat="43.21029" lon="5.49669">
        <ele>110</ele>
        <time>2019-10-02T13:30:27Z</time>
      </trkpt>
      <trkpt lat="43.21034" lon="5.49668">
        <ele>109</ele>
        <time>2019-10-02T13:30:31Z</time>
      </trkpt>
      <trkpt lat="43.21041" lon="5.49669">
        <ele>110</ele>
        <time>2019-10-02T13:30:37Z</time>
      </trkpt>
      <trkpt lat="43.21045" lon="5.49672">
        <ele>111</ele>
        <time>2019-10-02T13:30:41Z</time>
      </trkpt>
      <trkpt lat="43.21049" lon="5.49675">
        <ele>110</ele>
        <time>2019-10-02T13:30:47Z</time>
      </trkpt>
      <trkpt lat="43.21054" lon="5.49678">
        <ele>110</ele>
        <time>2019-10-02T13:30:53Z</time>
      </trkpt>
      <trkpt lat="43.21059" lon="5.49681">
        <ele>108</ele>
        <time>2019-10-02T13:30:59Z</time>
      </trkpt>
      <trkpt lat="43.21063" lon="5.49684">
        <ele>107</ele>
        <time>2019-10-02T13:31:05Z</time>
      </trkpt>
      <trkpt lat="43.21069" lon="5.49689">
        <ele>107</ele>
        <time>2019-10-02T13:31:13Z</time>
      </trkpt>
      <trkpt lat="43.21073" lon="5.49691">
        <ele>107</ele>
        <time>2019-10-02T13:31:19Z</time>
      </trkpt>
      <trkpt lat="43.21079" lon="5.49695">
        <ele>100</ele>
        <time>2019-10-02T13:31:25Z</time>
      </trkpt>
      <trkpt lat="43.21084" lon="5.497">
        <ele>99</ele>
        <time>2019-10-02T13:31:31Z</time>
      </trkpt>
      <trkpt lat="43.21088" lon="5.49704">
        <ele>100</ele>
        <time>2019-10-02T13:31:35Z</time>
      </trkpt>
      <trkpt lat="43.21091" lon="5.4971">
        <ele>103</ele>
        <time>2019-10-02T13:31:41Z</time>
      </trkpt>
      <trkpt lat="43.21096" lon="5.49714">
        <ele>104</ele>
        <time>2019-10-02T13:31:49Z</time>
      </trkpt>
      <trkpt lat="43.211" lon="5.49717">
        <ele>107</ele>
        <time>2019-10-02T13:31:55Z</time>
      </trkpt>
      <trkpt lat="43.21105" lon="5.49719">
        <ele>108</ele>
        <time>2019-10-02T13:31:59Z</time>
      </trkpt>
      <trkpt lat="43.21111" lon="5.49722">
        <ele>108</ele>
        <time>2019-10-02T13:32:05Z</time>
      </trkpt>
      <trkpt lat="43.21117" lon="5.49723">
        <ele>109</ele>
        <time>2019-10-02T13:32:11Z</time>
      </trkpt>
      <trkpt lat="43.21123" lon="5.49723">
        <ele>109</ele>
        <time>2019-10-02T13:32:17Z</time>
      </trkpt>
      <trkpt lat="43.21129" lon="5.49721">
        <ele>109</ele>
        <time>2019-10-02T13:32:23Z</time>
      </trkpt>
      <trkpt lat="43.21133" lon="5.49718">
        <ele>107</ele>
        <time>2019-10-02T13:32:27Z</time>
      </trkpt>
      <trkpt lat="43.21136" lon="5.49713">
        <ele>107</ele>
        <time>2019-10-02T13:32:31Z</time>
      </trkpt>
      <trkpt lat="43.21139" lon="5.49708">
        <ele>109</ele>
        <time>2019-10-02T13:32:41Z</time>
      </trkpt>
      <trkpt lat="43.21144" lon="5.49706">
        <ele>118</ele>
        <time>2019-10-02T13:36:45Z</time>
      </trkpt>
      <trkpt lat="43.21145" lon="5.49698">
        <ele>117</ele>
        <time>2019-10-02T13:37:53Z</time>
      </trkpt>
      <trkpt lat="43.21149" lon="5.49692">
        <ele>115</ele>
        <time>2019-10-02T13:38:01Z</time>
      </trkpt>
      <trkpt lat="43.21152" lon="5.49688">
        <ele>117</ele>
        <time>2019-10-02T13:38:07Z</time>
      </trkpt>
      <trkpt lat="43.21156" lon="5.49682">
        <ele>122</ele>
        <time>2019-10-02T13:38:19Z</time>
      </trkpt>
      <trkpt lat="43.2116" lon="5.49678">
        <ele>121</ele>
        <time>2019-10-02T13:38:27Z</time>
      </trkpt>
      <trkpt lat="43.21164" lon="5.49674">
        <ele>121</ele>
        <time>2019-10-02T13:38:31Z</time>
      </trkpt>
      <trkpt lat="43.21168" lon="5.49669">
        <ele>121</ele>
        <time>2019-10-02T13:38:37Z</time>
      </trkpt>
      <trkpt lat="43.2117" lon="5.49663">
        <ele>125</ele>
        <time>2019-10-02T13:38:47Z</time>
      </trkpt>
      <trkpt lat="43.21175" lon="5.49658">
        <ele>122</ele>
        <time>2019-10-02T13:38:53Z</time>
      </trkpt>
      <trkpt lat="43.21179" lon="5.49656">
        <ele>123</ele>
        <time>2019-10-02T13:38:59Z</time>
      </trkpt>
      <trkpt lat="43.21184" lon="5.49656">
        <ele>127</ele>
        <time>2019-10-02T13:39:03Z</time>
      </trkpt>
      <trkpt lat="43.2119" lon="5.49654">
        <ele>122</ele>
        <time>2019-10-02T13:39:09Z</time>
      </trkpt>
      <trkpt lat="43.21196" lon="5.49655">
        <ele>122</ele>
        <time>2019-10-02T13:39:17Z</time>
      </trkpt>
      <trkpt lat="43.21201" lon="5.49657">
        <ele>120</ele>
        <time>2019-10-02T13:39:23Z</time>
      </trkpt>
      <trkpt lat="43.21205" lon="5.4966">
        <ele>119</ele>
        <time>2019-10-02T13:39:29Z</time>
      </trkpt>
      <trkpt lat="43.21209" lon="5.49665">
        <ele>119</ele>
        <time>2019-10-02T13:39:35Z</time>
      </trkpt>
      <trkpt lat="43.21212" lon="5.49671">
        <ele>120</ele>
        <time>2019-10-02T13:39:41Z</time>
      </trkpt>
      <trkpt lat="43.21216" lon="5.49678">
        <ele>123</ele>
        <time>2019-10-02T13:39:47Z</time>
      </trkpt>
      <trkpt lat="43.21218" lon="5.49686">
        <ele>123</ele>
        <time>2019-10-02T13:39:55Z</time>
      </trkpt>
      <trkpt lat="43.21218" lon="5.49692">
        <ele>124</ele>
        <time>2019-10-02T13:40:01Z</time>
      </trkpt>
      <trkpt lat="43.21217" lon="5.49701">
        <ele>126</ele>
        <time>2019-10-02T13:40:09Z</time>
      </trkpt>
      <trkpt lat="43.21213" lon="5.49708">
        <ele>125</ele>
        <time>2019-10-02T13:40:15Z</time>
      </trkpt>
      <trkpt lat="43.21208" lon="5.49713">
        <ele>125</ele>
        <time>2019-10-02T13:40:21Z</time>
      </trkpt>
      <trkpt lat="43.21203" lon="5.49718">
        <ele>126</ele>
        <time>2019-10-02T13:40:27Z</time>
      </trkpt>
      <trkpt lat="43.212" lon="5.49725">
        <ele>125</ele>
        <time>2019-10-02T13:40:33Z</time>
      </trkpt>
      <trkpt lat="43.21199" lon="5.49733">
        <ele>123</ele>
        <time>2019-10-02T13:40:39Z</time>
      </trkpt>
      <trkpt lat="43.21199" lon="5.49739">
        <ele>121</ele>
        <time>2019-10-02T13:40:43Z</time>
      </trkpt>
      <trkpt lat="43.212" lon="5.49745">
        <ele>122</ele>
        <time>2019-10-02T13:40:47Z</time>
      </trkpt>
      <trkpt lat="43.21204" lon="5.49751">
        <ele>122</ele>
        <time>2019-10-02T13:40:51Z</time>
      </trkpt>
      <trkpt lat="43.21207" lon="5.49757">
        <ele>122</ele>
        <time>2019-10-02T13:40:55Z</time>
      </trkpt>
      <trkpt lat="43.2121" lon="5.49764">
        <ele>124</ele>
        <time>2019-10-02T13:41:01Z</time>
      </trkpt>
      <trkpt lat="43.21213" lon="5.49771">
        <ele>129</ele>
        <time>2019-10-02T13:41:07Z</time>
      </trkpt>
      <trkpt lat="43.21216" lon="5.49777">
        <ele>127</ele>
        <time>2019-10-02T13:41:11Z</time>
      </trkpt>
      <trkpt lat="43.2122" lon="5.49782">
        <ele>125</ele>
        <time>2019-10-02T13:41:17Z</time>
      </trkpt>
      <trkpt lat="43.21223" lon="5.49788">
        <ele>129</ele>
        <time>2019-10-02T13:41:23Z</time>
      </trkpt>
      <trkpt lat="43.21228" lon="5.49795">
        <ele>129</ele>
        <time>2019-10-02T13:41:29Z</time>
      </trkpt>
      <trkpt lat="43.21234" lon="5.49799">
        <ele>129</ele>
        <time>2019-10-02T13:41:35Z</time>
      </trkpt>
      <trkpt lat="43.2124" lon="5.498">
        <ele>128</ele>
        <time>2019-10-02T13:41:41Z</time>
      </trkpt>
      <trkpt lat="43.21247" lon="5.49802">
        <ele>129</ele>
        <time>2019-10-02T13:41:47Z</time>
      </trkpt>
      <trkpt lat="43.21252" lon="5.49804">
        <ele>132</ele>
        <time>2019-10-02T13:41:53Z</time>
      </trkpt>
      <trkpt lat="43.21258" lon="5.49805">
        <ele>135</ele>
        <time>2019-10-02T13:41:59Z</time>
      </trkpt>
      <trkpt lat="43.21264" lon="5.49806">
        <ele>136</ele>
        <time>2019-10-02T13:42:05Z</time>
      </trkpt>
      <trkpt lat="43.2127" lon="5.49804">
        <ele>135</ele>
        <time>2019-10-02T13:42:11Z</time>
      </trkpt>
      <trkpt lat="43.21275" lon="5.49804">
        <ele>135</ele>
        <time>2019-10-02T13:42:17Z</time>
      </trkpt>
      <trkpt lat="43.2128" lon="5.49803">
        <ele>137</ele>
        <time>2019-10-02T13:42:23Z</time>
      </trkpt>
      <trkpt lat="43.21286" lon="5.49805">
        <ele>142</ele>
        <time>2019-10-02T13:42:29Z</time>
      </trkpt>
      <trkpt lat="43.21291" lon="5.49806">
        <ele>146</ele>
        <time>2019-10-02T13:42:35Z</time>
      </trkpt>
      <trkpt lat="43.21297" lon="5.49806">
        <ele>146</ele>
        <time>2019-10-02T13:42:41Z</time>
      </trkpt>
      <trkpt lat="43.21303" lon="5.49805">
        <ele>148</ele>
        <time>2019-10-02T13:42:47Z</time>
      </trkpt>
      <trkpt lat="43.21308" lon="5.49802">
        <ele>146</ele>
        <time>2019-10-02T13:42:51Z</time>
      </trkpt>
      <trkpt lat="43.21314" lon="5.49799">
        <ele>142</ele>
        <time>2019-10-02T13:42:55Z</time>
      </trkpt>
      <trkpt lat="43.21318" lon="5.49795">
        <ele>141</ele>
        <time>2019-10-02T13:42:59Z</time>
      </trkpt>
      <trkpt lat="43.21323" lon="5.49789">
        <ele>141</ele>
        <time>2019-10-02T13:43:05Z</time>
      </trkpt>
      <trkpt lat="43.21326" lon="5.49782">
        <ele>140</ele>
        <time>2019-10-02T13:43:11Z</time>
      </trkpt>
      <trkpt lat="43.21332" lon="5.49778">
        <ele>138</ele>
        <time>2019-10-02T13:43:17Z</time>
      </trkpt>
      <trkpt lat="43.21336" lon="5.49775">
        <ele>137</ele>
        <time>2019-10-02T13:43:21Z</time>
      </trkpt>
      <trkpt lat="43.21341" lon="5.49773">
        <ele>141</ele>
        <time>2019-10-02T13:43:27Z</time>
      </trkpt>
      <trkpt lat="43.21347" lon="5.49773">
        <ele>143</ele>
        <time>2019-10-02T13:43:33Z</time>
      </trkpt>
      <trkpt lat="43.21352" lon="5.49774">
        <ele>144</ele>
        <time>2019-10-02T13:43:37Z</time>
      </trkpt>
      <trkpt lat="43.21357" lon="5.49775">
        <ele>144</ele>
        <time>2019-10-02T13:43:43Z</time>
      </trkpt>
      <trkpt lat="43.21364" lon="5.49774">
        <ele>141</ele>
        <time>2019-10-02T13:43:49Z</time>
      </trkpt>
      <trkpt lat="43.21368" lon="5.49775">
        <ele>142</ele>
        <time>2019-10-02T13:43:55Z</time>
      </trkpt>
      <trkpt lat="43.21373" lon="5.49776">
        <ele>141</ele>
        <time>2019-10-02T13:43:59Z</time>
      </trkpt>
      <trkpt lat="43.2138" lon="5.49775">
        <ele>142</ele>
        <time>2019-10-02T13:44:05Z</time>
      </trkpt>
      <trkpt lat="43.21385" lon="5.49772">
        <ele>142</ele>
        <time>2019-10-02T13:44:11Z</time>
      </trkpt>
      <trkpt lat="43.2139" lon="5.49769">
        <ele>145</ele>
        <time>2019-10-02T13:44:17Z</time>
      </trkpt>
      <trkpt lat="43.21392" lon="5.49763">
        <ele>144</ele>
        <time>2019-10-02T13:44:23Z</time>
      </trkpt>
      <trkpt lat="43.21395" lon="5.49756">
        <ele>145</ele>
        <time>2019-10-02T13:44:29Z</time>
      </trkpt>
      <trkpt lat="43.21396" lon="5.49748">
        <ele>145</ele>
        <time>2019-10-02T13:44:33Z</time>
      </trkpt>
      <trkpt lat="43.21397" lon="5.49742">
        <ele>143</ele>
        <time>2019-10-02T13:44:37Z</time>
      </trkpt>
      <trkpt lat="43.21397" lon="5.49735">
        <ele>140</ele>
        <time>2019-10-02T13:44:41Z</time>
      </trkpt>
      <trkpt lat="43.21396" lon="5.49727">
        <ele>139</ele>
        <time>2019-10-02T13:44:45Z</time>
      </trkpt>
      <trkpt lat="43.21395" lon="5.49719">
        <ele>139</ele>
        <time>2019-10-02T13:44:49Z</time>
      </trkpt>
      <trkpt lat="43.21396" lon="5.49713">
        <ele>141</ele>
        <time>2019-10-02T13:44:53Z</time>
      </trkpt>
      <trkpt lat="43.21396" lon="5.49706">
        <ele>142</ele>
        <time>2019-10-02T13:44:57Z</time>
      </trkpt>
      <trkpt lat="43.21394" lon="5.497">
        <ele>145</ele>
        <time>2019-10-02T13:45:01Z</time>
      </trkpt>
      <trkpt lat="43.21393" lon="5.49692">
        <ele>144</ele>
        <time>2019-10-02T13:45:05Z</time>
      </trkpt>
      <trkpt lat="43.21392" lon="5.49684">
        <ele>146</ele>
        <time>2019-10-02T13:45:11Z</time>
      </trkpt>
      <trkpt lat="43.21391" lon="5.49677">
        <ele>146</ele>
        <time>2019-10-02T13:45:17Z</time>
      </trkpt>
      <trkpt lat="43.21389" lon="5.49669">
        <ele>148</ele>
        <time>2019-10-02T13:45:23Z</time>
      </trkpt>
      <trkpt lat="43.21389" lon="5.49662">
        <ele>148</ele>
        <time>2019-10-02T13:45:29Z</time>
      </trkpt>
      <trkpt lat="43.21388" lon="5.49655">
        <ele>149</ele>
        <time>2019-10-02T13:45:37Z</time>
      </trkpt>
      <trkpt lat="43.21385" lon="5.49647">
        <ele>148</ele>
        <time>2019-10-02T13:45:43Z</time>
      </trkpt>
      <trkpt lat="43.21382" lon="5.4964">
        <ele>148</ele>
        <time>2019-10-02T13:45:47Z</time>
      </trkpt>
      <trkpt lat="43.21379" lon="5.49634">
        <ele>149</ele>
        <time>2019-10-02T13:45:51Z</time>
      </trkpt>
      <trkpt lat="43.21375" lon="5.49627">
        <ele>151</ele>
        <time>2019-10-02T13:45:57Z</time>
      </trkpt>
      <trkpt lat="43.21373" lon="5.49622">
        <ele>150</ele>
        <time>2019-10-02T13:46:01Z</time>
      </trkpt>
      <trkpt lat="43.21371" lon="5.49614">
        <ele>150</ele>
        <time>2019-10-02T13:46:07Z</time>
      </trkpt>
      <trkpt lat="43.21372" lon="5.49606">
        <ele>149</ele>
        <time>2019-10-02T13:46:13Z</time>
      </trkpt>
      <trkpt lat="43.21374" lon="5.49598">
        <ele>147</ele>
        <time>2019-10-02T13:46:19Z</time>
      </trkpt>
      <trkpt lat="43.21376" lon="5.4959">
        <ele>147</ele>
        <time>2019-10-02T13:46:25Z</time>
      </trkpt>
      <trkpt lat="43.2138" lon="5.49583">
        <ele>147</ele>
        <time>2019-10-02T13:46:31Z</time>
      </trkpt>
      <trkpt lat="43.21384" lon="5.49578">
        <ele>148</ele>
        <time>2019-10-02T13:46:37Z</time>
      </trkpt>
      <trkpt lat="43.2139" lon="5.49574">
        <ele>147</ele>
        <time>2019-10-02T13:46:43Z</time>
      </trkpt>
      <trkpt lat="43.21394" lon="5.49572">
        <ele>148</ele>
        <time>2019-10-02T13:46:47Z</time>
      </trkpt>
      <trkpt lat="43.21399" lon="5.49571">
        <ele>151</ele>
        <time>2019-10-02T13:46:53Z</time>
      </trkpt>
      <trkpt lat="43.21405" lon="5.49571">
        <ele>151</ele>
        <time>2019-10-02T13:46:59Z</time>
      </trkpt>
      <trkpt lat="43.2141" lon="5.49573">
        <ele>153</ele>
        <time>2019-10-02T13:47:05Z</time>
      </trkpt>
      <trkpt lat="43.21414" lon="5.49577">
        <ele>156</ele>
        <time>2019-10-02T13:47:11Z</time>
      </trkpt>
      <trkpt lat="43.2142" lon="5.4958">
        <ele>158</ele>
        <time>2019-10-02T13:47:17Z</time>
      </trkpt>
      <trkpt lat="43.21425" lon="5.49581">
        <ele>161</ele>
        <time>2019-10-02T13:47:23Z</time>
      </trkpt>
      <trkpt lat="43.21432" lon="5.49578">
        <ele>159</ele>
        <time>2019-10-02T13:47:31Z</time>
      </trkpt>
      <trkpt lat="43.21436" lon="5.49574">
        <ele>161</ele>
        <time>2019-10-02T13:47:37Z</time>
      </trkpt>
      <trkpt lat="43.21439" lon="5.49568">
        <ele>159</ele>
        <time>2019-10-02T13:47:41Z</time>
      </trkpt>
      <trkpt lat="43.21441" lon="5.49562">
        <ele>159</ele>
        <time>2019-10-02T13:47:45Z</time>
      </trkpt>
      <trkpt lat="43.21444" lon="5.49555">
        <ele>158</ele>
        <time>2019-10-02T13:47:49Z</time>
      </trkpt>
      <trkpt lat="43.21446" lon="5.49548">
        <ele>156</ele>
        <time>2019-10-02T13:47:55Z</time>
      </trkpt>
      <trkpt lat="43.21447" lon="5.49541">
        <ele>156</ele>
        <time>2019-10-02T13:47:59Z</time>
      </trkpt>
      <trkpt lat="43.21446" lon="5.49535">
        <ele>155</ele>
        <time>2019-10-02T13:48:03Z</time>
      </trkpt>
      <trkpt lat="43.21445" lon="5.49529">
        <ele>153</ele>
        <time>2019-10-02T13:48:09Z</time>
      </trkpt>
      <trkpt lat="43.21444" lon="5.49523">
        <ele>156</ele>
        <time>2019-10-02T13:48:13Z</time>
      </trkpt>
      <trkpt lat="43.21441" lon="5.49515">
        <ele>159</ele>
        <time>2019-10-02T13:48:19Z</time>
      </trkpt>
      <trkpt lat="43.21439" lon="5.49508">
        <ele>159</ele>
        <time>2019-10-02T13:48:23Z</time>
      </trkpt>
      <trkpt lat="43.21437" lon="5.49502">
        <ele>159</ele>
        <time>2019-10-02T13:48:27Z</time>
      </trkpt>
      <trkpt lat="43.21435" lon="5.49493">
        <ele>159</ele>
        <time>2019-10-02T13:48:33Z</time>
      </trkpt>
      <trkpt lat="43.21434" lon="5.49486">
        <ele>157</ele>
        <time>2019-10-02T13:48:39Z</time>
      </trkpt>
      <trkpt lat="43.21434" lon="5.49477">
        <ele>157</ele>
        <time>2019-10-02T13:48:45Z</time>
      </trkpt>
      <trkpt lat="43.21436" lon="5.4947">
        <ele>156</ele>
        <time>2019-10-02T13:48:51Z</time>
      </trkpt>
      <trkpt lat="43.21438" lon="5.49463">
        <ele>154</ele>
        <time>2019-10-02T13:48:57Z</time>
      </trkpt>
      <trkpt lat="43.21439" lon="5.49456">
        <ele>152</ele>
        <time>2019-10-02T13:49:01Z</time>
      </trkpt>
      <trkpt lat="43.21444" lon="5.49451">
        <ele>154</ele>
        <time>2019-10-02T13:49:07Z</time>
      </trkpt>
      <trkpt lat="43.21448" lon="5.49449">
        <ele>158</ele>
        <time>2019-10-02T13:49:15Z</time>
      </trkpt>
      <trkpt lat="43.21454" lon="5.49448">
        <ele>160</ele>
        <time>2019-10-02T13:49:21Z</time>
      </trkpt>
      <trkpt lat="43.21459" lon="5.49448">
        <ele>158</ele>
        <time>2019-10-02T13:49:27Z</time>
      </trkpt>
      <trkpt lat="43.21464" lon="5.49445">
        <ele>159</ele>
        <time>2019-10-02T13:49:35Z</time>
      </trkpt>
      <trkpt lat="43.21468" lon="5.49441">
        <ele>158</ele>
        <time>2019-10-02T13:49:43Z</time>
      </trkpt>
      <trkpt lat="43.21473" lon="5.49439">
        <ele>160</ele>
        <time>2019-10-02T13:49:51Z</time>
      </trkpt>
      <trkpt lat="43.21478" lon="5.49437">
        <ele>161</ele>
        <time>2019-10-02T13:49:55Z</time>
      </trkpt>
      <trkpt lat="43.21483" lon="5.49435">
        <ele>160</ele>
        <time>2019-10-02T13:50:01Z</time>
      </trkpt>
      <trkpt lat="43.21486" lon="5.49431">
        <ele>163</ele>
        <time>2019-10-02T13:50:11Z</time>
      </trkpt>
      <trkpt lat="43.21484" lon="5.49426">
        <ele>164</ele>
        <time>2019-10-02T13:55:43Z</time>
      </trkpt>
      <trkpt lat="43.21488" lon="5.49429">
        <ele>162</ele>
        <time>2019-10-02T14:01:35Z</time>
      </trkpt>
      <trkpt lat="43.21495" lon="5.49429">
        <ele>161</ele>
        <time>2019-10-02T14:01:43Z</time>
      </trkpt>
      <trkpt lat="43.21499" lon="5.49428">
        <ele>162</ele>
        <time>2019-10-02T14:01:51Z</time>
      </trkpt>
      <trkpt lat="43.21504" lon="5.49426">
        <ele>164</ele>
        <time>2019-10-02T14:01:59Z</time>
      </trkpt>
      <trkpt lat="43.21509" lon="5.49424">
        <ele>164</ele>
        <time>2019-10-02T14:02:11Z</time>
      </trkpt>
      <trkpt lat="43.21515" lon="5.49423">
        <ele>165</ele>
        <time>2019-10-02T14:02:17Z</time>
      </trkpt>
      <trkpt lat="43.2152" lon="5.4942">
        <ele>166</ele>
        <time>2019-10-02T14:02:23Z</time>
      </trkpt>
      <trkpt lat="43.21525" lon="5.49418">
        <ele>164</ele>
        <time>2019-10-02T14:02:29Z</time>
      </trkpt>
      <trkpt lat="43.2153" lon="5.49417">
        <ele>166</ele>
        <time>2019-10-02T14:02:33Z</time>
      </trkpt>
      <trkpt lat="43.21535" lon="5.49418">
        <ele>166</ele>
        <time>2019-10-02T14:02:39Z</time>
      </trkpt>
      <trkpt lat="43.2154" lon="5.49419">
        <ele>166</ele>
        <time>2019-10-02T14:02:43Z</time>
      </trkpt>
      <trkpt lat="43.21546" lon="5.49423">
        <ele>167</ele>
        <time>2019-10-02T14:02:49Z</time>
      </trkpt>
      <trkpt lat="43.21551" lon="5.49426">
        <ele>167</ele>
        <time>2019-10-02T14:02:55Z</time>
      </trkpt>
      <trkpt lat="43.21555" lon="5.49429">
        <ele>167</ele>
        <time>2019-10-02T14:03:01Z</time>
      </trkpt>
      <trkpt lat="43.2156" lon="5.49432">
        <ele>167</ele>
        <time>2019-10-02T14:03:07Z</time>
      </trkpt>
      <trkpt lat="43.21565" lon="5.49436">
        <ele>167</ele>
        <time>2019-10-02T14:03:13Z</time>
      </trkpt>
      <trkpt lat="43.21568" lon="5.49441">
        <ele>166</ele>
        <time>2019-10-02T14:03:19Z</time>
      </trkpt>
      <trkpt lat="43.21574" lon="5.49445">
        <ele>168</ele>
        <time>2019-10-02T14:03:25Z</time>
      </trkpt>
      <trkpt lat="43.21578" lon="5.49448">
        <ele>167</ele>
        <time>2019-10-02T14:03:29Z</time>
      </trkpt>
      <trkpt lat="43.21583" lon="5.4945">
        <ele>166</ele>
        <time>2019-10-02T14:03:35Z</time>
      </trkpt>
      <trkpt lat="43.21588" lon="5.49453">
        <ele>169</ele>
        <time>2019-10-02T14:03:41Z</time>
      </trkpt>
      <trkpt lat="43.21593" lon="5.49457">
        <ele>173</ele>
        <time>2019-10-02T14:03:47Z</time>
      </trkpt>
      <trkpt lat="43.21599" lon="5.4946">
        <ele>173</ele>
        <time>2019-10-02T14:03:53Z</time>
      </trkpt>
      <trkpt lat="43.21604" lon="5.49461">
        <ele>174</ele>
        <time>2019-10-02T14:03:59Z</time>
      </trkpt>
      <trkpt lat="43.2161" lon="5.4946">
        <ele>174</ele>
        <time>2019-10-02T14:04:05Z</time>
      </trkpt>
      <trkpt lat="43.21615" lon="5.49458">
        <ele>172</ele>
        <time>2019-10-02T14:04:11Z</time>
      </trkpt>
      <trkpt lat="43.21621" lon="5.49457">
        <ele>173</ele>
        <time>2019-10-02T14:04:17Z</time>
      </trkpt>
      <trkpt lat="43.21626" lon="5.49456">
        <ele>173</ele>
        <time>2019-10-02T14:04:21Z</time>
      </trkpt>
      <trkpt lat="43.21631" lon="5.49454">
        <ele>174</ele>
        <time>2019-10-02T14:04:27Z</time>
      </trkpt>
      <trkpt lat="43.21636" lon="5.49453">
        <ele>172</ele>
        <time>2019-10-02T14:04:33Z</time>
      </trkpt>
      <trkpt lat="43.21641" lon="5.49454">
        <ele>174</ele>
        <time>2019-10-02T14:04:37Z</time>
      </trkpt>
      <trkpt lat="43.21645" lon="5.49457">
        <ele>174</ele>
        <time>2019-10-02T14:04:41Z</time>
      </trkpt>
      <trkpt lat="43.21649" lon="5.49464">
        <ele>177</ele>
        <time>2019-10-02T14:04:47Z</time>
      </trkpt>
      <trkpt lat="43.21652" lon="5.4947">
        <ele>178</ele>
        <time>2019-10-02T14:04:53Z</time>
      </trkpt>
      <trkpt lat="43.21655" lon="5.49478">
        <ele>177</ele>
        <time>2019-10-02T14:04:59Z</time>
      </trkpt>
      <trkpt lat="43.21658" lon="5.49484">
        <ele>176</ele>
        <time>2019-10-02T14:05:03Z</time>
      </trkpt>
      <trkpt lat="43.21661" lon="5.4949">
        <ele>175</ele>
        <time>2019-10-02T14:05:07Z</time>
      </trkpt>
      <trkpt lat="43.21665" lon="5.49497">
        <ele>176</ele>
        <time>2019-10-02T14:05:13Z</time>
      </trkpt>
      <trkpt lat="43.21669" lon="5.49502">
        <ele>177</ele>
        <time>2019-10-02T14:05:17Z</time>
      </trkpt>
      <trkpt lat="43.21672" lon="5.49507">
        <ele>177</ele>
        <time>2019-10-02T14:05:21Z</time>
      </trkpt>
      <trkpt lat="43.21676" lon="5.49513">
        <ele>177</ele>
        <time>2019-10-02T14:05:27Z</time>
      </trkpt>
      <trkpt lat="43.2168" lon="5.4952">
        <ele>177</ele>
        <time>2019-10-02T14:05:33Z</time>
      </trkpt>
      <trkpt lat="43.21684" lon="5.49526">
        <ele>177</ele>
        <time>2019-10-02T14:05:39Z</time>
      </trkpt>
      <trkpt lat="43.21689" lon="5.49533">
        <ele>177</ele>
        <time>2019-10-02T14:05:45Z</time>
      </trkpt>
      <trkpt lat="43.21693" lon="5.49538">
        <ele>177</ele>
        <time>2019-10-02T14:05:51Z</time>
      </trkpt>
      <trkpt lat="43.21698" lon="5.49544">
        <ele>178</ele>
        <time>2019-10-02T14:05:57Z</time>
      </trkpt>
      <trkpt lat="43.21702" lon="5.49551">
        <ele>177</ele>
        <time>2019-10-02T14:06:03Z</time>
      </trkpt>
      <trkpt lat="43.21705" lon="5.49558">
        <ele>176</ele>
        <time>2019-10-02T14:06:09Z</time>
      </trkpt>
      <trkpt lat="43.21707" lon="5.49565">
        <ele>179</ele>
        <time>2019-10-02T14:06:15Z</time>
      </trkpt>
      <trkpt lat="43.2171" lon="5.49571">
        <ele>179</ele>
        <time>2019-10-02T14:06:21Z</time>
      </trkpt>
      <trkpt lat="43.21713" lon="5.49577">
        <ele>182</ele>
        <time>2019-10-02T14:06:27Z</time>
      </trkpt>
      <trkpt lat="43.21714" lon="5.49583">
        <ele>184</ele>
        <time>2019-10-02T14:06:33Z</time>
      </trkpt>
      <trkpt lat="43.21718" lon="5.4959">
        <ele>183</ele>
        <time>2019-10-02T14:06:39Z</time>
      </trkpt>
      <trkpt lat="43.2172" lon="5.49597">
        <ele>184</ele>
        <time>2019-10-02T14:06:45Z</time>
      </trkpt>
      <trkpt lat="43.21722" lon="5.49604">
        <ele>184</ele>
        <time>2019-10-02T14:06:51Z</time>
      </trkpt>
      <trkpt lat="43.21724" lon="5.49612">
        <ele>187</ele>
        <time>2019-10-02T14:06:57Z</time>
      </trkpt>
      <trkpt lat="43.21727" lon="5.49619">
        <ele>187</ele>
        <time>2019-10-02T14:07:03Z</time>
      </trkpt>
      <trkpt lat="43.21731" lon="5.49625">
        <ele>187</ele>
        <time>2019-10-02T14:07:09Z</time>
      </trkpt>
      <trkpt lat="43.21734" lon="5.49632">
        <ele>187</ele>
        <time>2019-10-02T14:07:15Z</time>
      </trkpt>
      <trkpt lat="43.21736" lon="5.49639">
        <ele>187</ele>
        <time>2019-10-02T14:07:21Z</time>
      </trkpt>
      <trkpt lat="43.21739" lon="5.49647">
        <ele>187</ele>
        <time>2019-10-02T14:07:27Z</time>
      </trkpt>
      <trkpt lat="43.21742" lon="5.49653">
        <ele>188</ele>
        <time>2019-10-02T14:07:33Z</time>
      </trkpt>
      <trkpt lat="43.21744" lon="5.49659">
        <ele>190</ele>
        <time>2019-10-02T14:07:37Z</time>
      </trkpt>
      <trkpt lat="43.21745" lon="5.49666">
        <ele>190</ele>
        <time>2019-10-02T14:07:43Z</time>
      </trkpt>
      <trkpt lat="43.21748" lon="5.49671">
        <ele>189</ele>
        <time>2019-10-02T14:07:49Z</time>
      </trkpt>
      <trkpt lat="43.21753" lon="5.49675">
        <ele>191</ele>
        <time>2019-10-02T14:07:55Z</time>
      </trkpt>
      <trkpt lat="43.21757" lon="5.49679">
        <ele>190</ele>
        <time>2019-10-02T14:07:59Z</time>
      </trkpt>
      <trkpt lat="43.21761" lon="5.49682">
        <ele>191</ele>
        <time>2019-10-02T14:08:03Z</time>
      </trkpt>
      <trkpt lat="43.21767" lon="5.49682">
        <ele>192</ele>
        <time>2019-10-02T14:08:09Z</time>
      </trkpt>
      <trkpt lat="43.21772" lon="5.49676">
        <ele>191</ele>
        <time>2019-10-02T14:08:15Z</time>
      </trkpt>
      <trkpt lat="43.21777" lon="5.49669">
        <ele>189</ele>
        <time>2019-10-02T14:08:21Z</time>
      </trkpt>
      <trkpt lat="43.2178" lon="5.49662">
        <ele>190</ele>
        <time>2019-10-02T14:08:27Z</time>
      </trkpt>
      <trkpt lat="43.21782" lon="5.49656">
        <ele>185</ele>
        <time>2019-10-02T14:08:33Z</time>
      </trkpt>
      <trkpt lat="43.21787" lon="5.4965">
        <ele>185</ele>
        <time>2019-10-02T14:08:39Z</time>
      </trkpt>
      <trkpt lat="43.21791" lon="5.49647">
        <ele>188</ele>
        <time>2019-10-02T14:08:43Z</time>
      </trkpt>
      <trkpt lat="43.21797" lon="5.49646">
        <ele>190</ele>
        <time>2019-10-02T14:08:49Z</time>
      </trkpt>
      <trkpt lat="43.21804" lon="5.49646">
        <ele>193</ele>
        <time>2019-10-02T14:08:55Z</time>
      </trkpt>
      <trkpt lat="43.21809" lon="5.49646">
        <ele>195</ele>
        <time>2019-10-02T14:09:01Z</time>
      </trkpt>
      <trkpt lat="43.21815" lon="5.49643">
        <ele>193</ele>
        <time>2019-10-02T14:09:07Z</time>
      </trkpt>
      <trkpt lat="43.21819" lon="5.4964">
        <ele>194</ele>
        <time>2019-10-02T14:09:11Z</time>
      </trkpt>
      <trkpt lat="43.21822" lon="5.49635">
        <ele>195</ele>
        <time>2019-10-02T14:09:15Z</time>
      </trkpt>
      <trkpt lat="43.21826" lon="5.49629">
        <ele>193</ele>
        <time>2019-10-02T14:09:21Z</time>
      </trkpt>
      <trkpt lat="43.2183" lon="5.49625">
        <ele>194</ele>
        <time>2019-10-02T14:09:27Z</time>
      </trkpt>
      <trkpt lat="43.21835" lon="5.49622">
        <ele>193</ele>
        <time>2019-10-02T14:09:33Z</time>
      </trkpt>
      <trkpt lat="43.21839" lon="5.49616">
        <ele>196</ele>
        <time>2019-10-02T14:09:39Z</time>
      </trkpt>
      <trkpt lat="43.21845" lon="5.49612">
        <ele>197</ele>
        <time>2019-10-02T14:09:45Z</time>
      </trkpt>
      <trkpt lat="43.2185" lon="5.49608">
        <ele>198</ele>
        <time>2019-10-02T14:09:51Z</time>
      </trkpt>
      <trkpt lat="43.21856" lon="5.49607">
        <ele>200</ele>
        <time>2019-10-02T14:09:57Z</time>
      </trkpt>
      <trkpt lat="43.21861" lon="5.49606">
        <ele>199</ele>
        <time>2019-10-02T14:10:03Z</time>
      </trkpt>
      <trkpt lat="43.21868" lon="5.49606">
        <ele>199</ele>
        <time>2019-10-02T14:10:09Z</time>
      </trkpt>
      <trkpt lat="43.21875" lon="5.49606">
        <ele>200</ele>
        <time>2019-10-02T14:10:15Z</time>
      </trkpt>
      <trkpt lat="43.21881" lon="5.49606">
        <ele>201</ele>
        <time>2019-10-02T14:10:21Z</time>
      </trkpt>
      <trkpt lat="43.21885" lon="5.49609">
        <ele>202</ele>
        <time>2019-10-02T14:10:27Z</time>
      </trkpt>
      <trkpt lat="43.21883" lon="5.49616">
        <ele>203</ele>
        <time>2019-10-02T14:10:35Z</time>
      </trkpt>
      <trkpt lat="43.21878" lon="5.4962">
        <ele>206</ele>
        <time>2019-10-02T14:10:41Z</time>
      </trkpt>
      <trkpt lat="43.21873" lon="5.4962">
        <ele>208</ele>
        <time>2019-10-02T14:10:47Z</time>
      </trkpt>
      <trkpt lat="43.21867" lon="5.49623">
        <ele>209</ele>
        <time>2019-10-02T14:10:53Z</time>
      </trkpt>
      <trkpt lat="43.21864" lon="5.49627">
        <ele>211</ele>
        <time>2019-10-02T14:10:59Z</time>
      </trkpt>
      <trkpt lat="43.21861" lon="5.49631">
        <ele>211</ele>
        <time>2019-10-02T14:11:05Z</time>
      </trkpt>
      <trkpt lat="43.21857" lon="5.49638">
        <ele>211</ele>
        <time>2019-10-02T14:11:13Z</time>
      </trkpt>
      <trkpt lat="43.21855" lon="5.49644">
        <ele>211</ele>
        <time>2019-10-02T14:11:19Z</time>
      </trkpt>
      <trkpt lat="43.21852" lon="5.49649">
        <ele>210</ele>
        <time>2019-10-02T14:11:25Z</time>
      </trkpt>
      <trkpt lat="43.2185" lon="5.49656">
        <ele>211</ele>
        <time>2019-10-02T14:11:31Z</time>
      </trkpt>
      <trkpt lat="43.21847" lon="5.49661">
        <ele>212</ele>
        <time>2019-10-02T14:11:37Z</time>
      </trkpt>
      <trkpt lat="43.21844" lon="5.49668">
        <ele>214</ele>
        <time>2019-10-02T14:11:45Z</time>
      </trkpt>
      <trkpt lat="43.21841" lon="5.49674">
        <ele>215</ele>
        <time>2019-10-02T14:11:53Z</time>
      </trkpt>
      <trkpt lat="43.21838" lon="5.49681">
        <ele>216</ele>
        <time>2019-10-02T14:11:59Z</time>
      </trkpt>
      <trkpt lat="43.21836" lon="5.49686">
        <ele>217</ele>
        <time>2019-10-02T14:12:05Z</time>
      </trkpt>
      <trkpt lat="43.21833" lon="5.49692">
        <ele>218</ele>
        <time>2019-10-02T14:12:11Z</time>
      </trkpt>
      <trkpt lat="43.21829" lon="5.49696">
        <ele>218</ele>
        <time>2019-10-02T14:12:17Z</time>
      </trkpt>
      <trkpt lat="43.21826" lon="5.49701">
        <ele>219</ele>
        <time>2019-10-02T14:12:23Z</time>
      </trkpt>
      <trkpt lat="43.21823" lon="5.49707">
        <ele>219</ele>
        <time>2019-10-02T14:12:31Z</time>
      </trkpt>
      <trkpt lat="43.21818" lon="5.49706">
        <ele>222</ele>
        <time>2019-10-02T14:13:09Z</time>
      </trkpt>
      <trkpt lat="43.21814" lon="5.49712">
        <ele>223</ele>
        <time>2019-10-02T14:13:15Z</time>
      </trkpt>
      <trkpt lat="43.21811" lon="5.49717">
        <ele>226</ele>
        <time>2019-10-02T14:13:37Z</time>
      </trkpt>
      <trkpt lat="43.21807" lon="5.49721">
        <ele>227</ele>
        <time>2019-10-02T14:13:43Z</time>
      </trkpt>
      <trkpt lat="43.21801" lon="5.49725">
        <ele>226</ele>
        <time>2019-10-02T14:13:49Z</time>
      </trkpt>
      <trkpt lat="43.21797" lon="5.49731">
        <ele>227</ele>
        <time>2019-10-02T14:13:55Z</time>
      </trkpt>
      <trkpt lat="43.21797" lon="5.4974">
        <ele>226</ele>
        <time>2019-10-02T14:14:01Z</time>
      </trkpt>
      <trkpt lat="43.21794" lon="5.49745">
        <ele>224</ele>
        <time>2019-10-02T14:14:09Z</time>
      </trkpt>
      <trkpt lat="43.218" lon="5.49745">
        <ele>226</ele>
        <time>2019-10-02T14:15:13Z</time>
      </trkpt>
      <trkpt lat="43.21806" lon="5.49744">
        <ele>227</ele>
        <time>2019-10-02T14:15:17Z</time>
      </trkpt>
      <trkpt lat="43.2181" lon="5.49741">
        <ele>226</ele>
        <time>2019-10-02T14:15:21Z</time>
      </trkpt>
      <trkpt lat="43.21817" lon="5.49738">
        <ele>228</ele>
        <time>2019-10-02T14:15:27Z</time>
      </trkpt>
      <trkpt lat="43.21823" lon="5.49737">
        <ele>229</ele>
        <time>2019-10-02T14:15:33Z</time>
      </trkpt>
      <trkpt lat="43.21831" lon="5.49736">
        <ele>230</ele>
        <time>2019-10-02T14:15:39Z</time>
      </trkpt>
      <trkpt lat="43.21836" lon="5.49736">
        <ele>230</ele>
        <time>2019-10-02T14:15:43Z</time>
      </trkpt>
      <trkpt lat="43.21841" lon="5.49735">
        <ele>230</ele>
        <time>2019-10-02T14:15:47Z</time>
      </trkpt>
      <trkpt lat="43.21846" lon="5.49735">
        <ele>231</ele>
        <time>2019-10-02T14:15:51Z</time>
      </trkpt>
      <trkpt lat="43.21851" lon="5.49736">
        <ele>231</ele>
        <time>2019-10-02T14:15:55Z</time>
      </trkpt>
      <trkpt lat="43.21857" lon="5.49737">
        <ele>231</ele>
        <time>2019-10-02T14:16:01Z</time>
      </trkpt>
      <trkpt lat="43.21862" lon="5.49736">
        <ele>233</ele>
        <time>2019-10-02T14:16:05Z</time>
      </trkpt>
      <trkpt lat="43.21868" lon="5.49734">
        <ele>233</ele>
        <time>2019-10-02T14:16:11Z</time>
      </trkpt>
      <trkpt lat="43.21874" lon="5.49734">
        <ele>233</ele>
        <time>2019-10-02T14:16:17Z</time>
      </trkpt>
      <trkpt lat="43.21881" lon="5.49734">
        <ele>235</ele>
        <time>2019-10-02T14:16:23Z</time>
      </trkpt>
      <trkpt lat="43.21886" lon="5.49735">
        <ele>236</ele>
        <time>2019-10-02T14:16:29Z</time>
      </trkpt>
      <trkpt lat="43.21892" lon="5.49736">
        <ele>236</ele>
        <time>2019-10-02T14:16:35Z</time>
      </trkpt>
      <trkpt lat="43.21897" lon="5.49738">
        <ele>236</ele>
        <time>2019-10-02T14:16:39Z</time>
      </trkpt>
      <trkpt lat="43.21901" lon="5.49743">
        <ele>236</ele>
        <time>2019-10-02T14:16:43Z</time>
      </trkpt>
      <trkpt lat="43.21906" lon="5.49749">
        <ele>234</ele>
        <time>2019-10-02T14:16:49Z</time>
      </trkpt>
      <trkpt lat="43.21904" lon="5.49755">
        <ele>236</ele>
        <time>2019-10-02T14:16:53Z</time>
      </trkpt>
      <trkpt lat="43.21901" lon="5.49762">
        <ele>239</ele>
        <time>2019-10-02T14:16:59Z</time>
      </trkpt>
      <trkpt lat="43.21898" lon="5.4977">
        <ele>240</ele>
        <time>2019-10-02T14:17:05Z</time>
      </trkpt>
      <trkpt lat="43.21894" lon="5.49775">
        <ele>241</ele>
        <time>2019-10-02T14:17:11Z</time>
      </trkpt>
      <trkpt lat="43.2189" lon="5.4978">
        <ele>243</ele>
        <time>2019-10-02T14:17:15Z</time>
      </trkpt>
      <trkpt lat="43.21887" lon="5.49787">
        <ele>243</ele>
        <time>2019-10-02T14:17:21Z</time>
      </trkpt>
      <trkpt lat="43.21885" lon="5.49793">
        <ele>244</ele>
        <time>2019-10-02T14:17:25Z</time>
      </trkpt>
      <trkpt lat="43.21881" lon="5.49801">
        <ele>243</ele>
        <time>2019-10-02T14:17:31Z</time>
      </trkpt>
      <trkpt lat="43.21879" lon="5.49806">
        <ele>243</ele>
        <time>2019-10-02T14:17:35Z</time>
      </trkpt>
      <trkpt lat="43.21878" lon="5.49813">
        <ele>242</ele>
        <time>2019-10-02T14:17:39Z</time>
      </trkpt>
      <trkpt lat="43.21878" lon="5.4982">
        <ele>242</ele>
        <time>2019-10-02T14:17:43Z</time>
      </trkpt>
      <trkpt lat="43.2188" lon="5.49827">
        <ele>241</ele>
        <time>2019-10-02T14:17:47Z</time>
      </trkpt>
      <trkpt lat="43.21881" lon="5.49833">
        <ele>241</ele>
        <time>2019-10-02T14:17:51Z</time>
      </trkpt>
      <trkpt lat="43.21885" lon="5.49841">
        <ele>241</ele>
        <time>2019-10-02T14:17:57Z</time>
      </trkpt>
      <trkpt lat="43.2189" lon="5.49847">
        <ele>241</ele>
        <time>2019-10-02T14:18:03Z</time>
      </trkpt>
      <trkpt lat="43.21895" lon="5.49852">
        <ele>243</ele>
        <time>2019-10-02T14:18:09Z</time>
      </trkpt>
      <trkpt lat="43.219" lon="5.49857">
        <ele>244</ele>
        <time>2019-10-02T14:18:15Z</time>
      </trkpt>
      <trkpt lat="43.21904" lon="5.4986">
        <ele>245</ele>
        <time>2019-10-02T14:18:19Z</time>
      </trkpt>
      <trkpt lat="43.2191" lon="5.49865">
        <ele>246</ele>
        <time>2019-10-02T14:18:25Z</time>
      </trkpt>
      <trkpt lat="43.21914" lon="5.49871">
        <ele>247</ele>
        <time>2019-10-02T14:18:31Z</time>
      </trkpt>
      <trkpt lat="43.21918" lon="5.49877">
        <ele>247</ele>
        <time>2019-10-02T14:18:37Z</time>
      </trkpt>
      <trkpt lat="43.21922" lon="5.49881">
        <ele>247</ele>
        <time>2019-10-02T14:18:41Z</time>
      </trkpt>
      <trkpt lat="43.21927" lon="5.49886">
        <ele>248</ele>
        <time>2019-10-02T14:18:47Z</time>
      </trkpt>
      <trkpt lat="43.21931" lon="5.49891">
        <ele>250</ele>
        <time>2019-10-02T14:18:53Z</time>
      </trkpt>
      <trkpt lat="43.21936" lon="5.49896">
        <ele>250</ele>
        <time>2019-10-02T14:18:59Z</time>
      </trkpt>
      <trkpt lat="43.2194" lon="5.49901">
        <ele>251</ele>
        <time>2019-10-02T14:19:05Z</time>
      </trkpt>
      <trkpt lat="43.21944" lon="5.49906">
        <ele>251</ele>
        <time>2019-10-02T14:19:11Z</time>
      </trkpt>
      <trkpt lat="43.21948" lon="5.49911">
        <ele>251</ele>
        <time>2019-10-02T14:19:17Z</time>
      </trkpt>
      <trkpt lat="43.21953" lon="5.49915">
        <ele>252</ele>
        <time>2019-10-02T14:19:23Z</time>
      </trkpt>
      <trkpt lat="43.2196" lon="5.49919">
        <ele>251</ele>
        <time>2019-10-02T14:19:29Z</time>
      </trkpt>
      <trkpt lat="43.21965" lon="5.49921">
        <ele>251</ele>
        <time>2019-10-02T14:19:35Z</time>
      </trkpt>
      <trkpt lat="43.21971" lon="5.49922">
        <ele>250</ele>
        <time>2019-10-02T14:19:41Z</time>
      </trkpt>
      <trkpt lat="43.21976" lon="5.49922">
        <ele>251</ele>
        <time>2019-10-02T14:19:47Z</time>
      </trkpt>
      <trkpt lat="43.21982" lon="5.49922">
        <ele>251</ele>
        <time>2019-10-02T14:19:53Z</time>
      </trkpt>
      <trkpt lat="43.21989" lon="5.49921">
        <ele>251</ele>
        <time>2019-10-02T14:19:59Z</time>
      </trkpt>
      <trkpt lat="43.21995" lon="5.49918">
        <ele>252</ele>
        <time>2019-10-02T14:20:05Z</time>
      </trkpt>
      <trkpt lat="43.22001" lon="5.49917">
        <ele>253</ele>
        <time>2019-10-02T14:20:11Z</time>
      </trkpt>
      <trkpt lat="43.22007" lon="5.49916">
        <ele>254</ele>
        <time>2019-10-02T14:20:17Z</time>
      </trkpt>
      <trkpt lat="43.22012" lon="5.49913">
        <ele>255</ele>
        <time>2019-10-02T14:20:23Z</time>
      </trkpt>
      <trkpt lat="43.22018" lon="5.49909">
        <ele>253</ele>
        <time>2019-10-02T14:20:29Z</time>
      </trkpt>
      <trkpt lat="43.22024" lon="5.49906">
        <ele>253</ele>
        <time>2019-10-02T14:20:35Z</time>
      </trkpt>
      <trkpt lat="43.2203" lon="5.49902">
        <ele>253</ele>
        <time>2019-10-02T14:20:41Z</time>
      </trkpt>
      <trkpt lat="43.22036" lon="5.49899">
        <ele>253</ele>
        <time>2019-10-02T14:20:47Z</time>
      </trkpt>
      <trkpt lat="43.22042" lon="5.49896">
        <ele>253</ele>
        <time>2019-10-02T14:20:53Z</time>
      </trkpt>
      <trkpt lat="43.22047" lon="5.49894">
        <ele>252</ele>
        <time>2019-10-02T14:20:59Z</time>
      </trkpt>
      <trkpt lat="43.22053" lon="5.49891">
        <ele>251</ele>
        <time>2019-10-02T14:21:05Z</time>
      </trkpt>
      <trkpt lat="43.22059" lon="5.49889">
        <ele>251</ele>
        <time>2019-10-02T14:21:11Z</time>
      </trkpt>
      <trkpt lat="43.22065" lon="5.49887">
        <ele>251</ele>
        <time>2019-10-02T14:21:17Z</time>
      </trkpt>
      <trkpt lat="43.22071" lon="5.49885">
        <ele>249</ele>
        <time>2019-10-02T14:21:23Z</time>
      </trkpt>
      <trkpt lat="43.22076" lon="5.49884">
        <ele>250</ele>
        <time>2019-10-02T14:21:27Z</time>
      </trkpt>
      <trkpt lat="43.2208" lon="5.49882">
        <ele>249</ele>
        <time>2019-10-02T14:21:31Z</time>
      </trkpt>
      <trkpt lat="43.22086" lon="5.4988">
        <ele>249</ele>
        <time>2019-10-02T14:21:37Z</time>
      </trkpt>
      <trkpt lat="43.22092" lon="5.49879">
        <ele>250</ele>
        <time>2019-10-02T14:21:43Z</time>
      </trkpt>
      <trkpt lat="43.22098" lon="5.49879">
        <ele>251</ele>
        <time>2019-10-02T14:21:49Z</time>
      </trkpt>
      <trkpt lat="43.22104" lon="5.49878">
        <ele>251</ele>
        <time>2019-10-02T14:21:55Z</time>
      </trkpt>
      <trkpt lat="43.22109" lon="5.49879">
        <ele>251</ele>
        <time>2019-10-02T14:21:59Z</time>
      </trkpt>
      <trkpt lat="43.22114" lon="5.49877">
        <ele>251</ele>
        <time>2019-10-02T14:22:05Z</time>
      </trkpt>
      <trkpt lat="43.22119" lon="5.49875">
        <ele>251</ele>
        <time>2019-10-02T14:22:13Z</time>
      </trkpt>
      <trkpt lat="43.22124" lon="5.49872">
        <ele>250</ele>
        <time>2019-10-02T14:22:21Z</time>
      </trkpt>
      <trkpt lat="43.2213" lon="5.49874">
        <ele>249</ele>
        <time>2019-10-02T14:22:29Z</time>
      </trkpt>
      <trkpt lat="43.22134" lon="5.49878">
        <ele>248</ele>
        <time>2019-10-02T14:22:37Z</time>
      </trkpt>
      <trkpt lat="43.22133" lon="5.49884">
        <ele>250</ele>
        <time>2019-10-02T14:27:43Z</time>
      </trkpt>
      <trkpt lat="43.22132" lon="5.49891">
        <ele>250</ele>
        <time>2019-10-02T14:27:51Z</time>
      </trkpt>
      <trkpt lat="43.22133" lon="5.49898">
        <ele>250</ele>
        <time>2019-10-02T14:27:57Z</time>
      </trkpt>
      <trkpt lat="43.22132" lon="5.49906">
        <ele>249</ele>
        <time>2019-10-02T14:28:05Z</time>
      </trkpt>
      <trkpt lat="43.22131" lon="5.49914">
        <ele>249</ele>
        <time>2019-10-02T14:28:11Z</time>
      </trkpt>
      <trkpt lat="43.2213" lon="5.49921">
        <ele>249</ele>
        <time>2019-10-02T14:28:17Z</time>
      </trkpt>
      <trkpt lat="43.22127" lon="5.49926">
        <ele>247</ele>
        <time>2019-10-02T14:28:23Z</time>
      </trkpt>
      <trkpt lat="43.22124" lon="5.49932">
        <ele>247</ele>
        <time>2019-10-02T14:28:29Z</time>
      </trkpt>
      <trkpt lat="43.2212" lon="5.49938">
        <ele>248</ele>
        <time>2019-10-02T14:28:35Z</time>
      </trkpt>
      <trkpt lat="43.22119" lon="5.49945">
        <ele>249</ele>
        <time>2019-10-02T14:28:41Z</time>
      </trkpt>
      <trkpt lat="43.22116" lon="5.49952">
        <ele>250</ele>
        <time>2019-10-02T14:28:47Z</time>
      </trkpt>
      <trkpt lat="43.22116" lon="5.49961">
        <ele>250</ele>
        <time>2019-10-02T14:28:53Z</time>
      </trkpt>
      <trkpt lat="43.22117" lon="5.49969">
        <ele>251</ele>
        <time>2019-10-02T14:28:59Z</time>
      </trkpt>
      <trkpt lat="43.22118" lon="5.49977">
        <ele>252</ele>
        <time>2019-10-02T14:29:05Z</time>
      </trkpt>
      <trkpt lat="43.22119" lon="5.49983">
        <ele>251</ele>
        <time>2019-10-02T14:29:09Z</time>
      </trkpt>
      <trkpt lat="43.2212" lon="5.49991">
        <ele>251</ele>
        <time>2019-10-02T14:29:15Z</time>
      </trkpt>
      <trkpt lat="43.22121" lon="5.49999">
        <ele>251</ele>
        <time>2019-10-02T14:29:21Z</time>
      </trkpt>
      <trkpt lat="43.22122" lon="5.50006">
        <ele>251</ele>
        <time>2019-10-02T14:29:27Z</time>
      </trkpt>
      <trkpt lat="43.22123" lon="5.50014">
        <ele>252</ele>
        <time>2019-10-02T14:29:33Z</time>
      </trkpt>
      <trkpt lat="43.22123" lon="5.50023">
        <ele>252</ele>
        <time>2019-10-02T14:29:39Z</time>
      </trkpt>
      <trkpt lat="43.22125" lon="5.5003">
        <ele>252</ele>
        <time>2019-10-02T14:29:45Z</time>
      </trkpt>
      <trkpt lat="43.22126" lon="5.50039">
        <ele>252</ele>
        <time>2019-10-02T14:29:51Z</time>
      </trkpt>
      <trkpt lat="43.22127" lon="5.50048">
        <ele>252</ele>
        <time>2019-10-02T14:29:57Z</time>
      </trkpt>
      <trkpt lat="43.22128" lon="5.50054">
        <ele>252</ele>
        <time>2019-10-02T14:30:01Z</time>
      </trkpt>
      <trkpt lat="43.22129" lon="5.50063">
        <ele>251</ele>
        <time>2019-10-02T14:30:07Z</time>
      </trkpt>
      <trkpt lat="43.2213" lon="5.50071">
        <ele>251</ele>
        <time>2019-10-02T14:30:13Z</time>
      </trkpt>
      <trkpt lat="43.2213" lon="5.50078">
        <ele>252</ele>
        <time>2019-10-02T14:30:19Z</time>
      </trkpt>
      <trkpt lat="43.22132" lon="5.50086">
        <ele>252</ele>
        <time>2019-10-02T14:30:25Z</time>
      </trkpt>
      <trkpt lat="43.22134" lon="5.50095">
        <ele>252</ele>
        <time>2019-10-02T14:30:31Z</time>
      </trkpt>
      <trkpt lat="43.22136" lon="5.50103">
        <ele>253</ele>
        <time>2019-10-02T14:30:37Z</time>
      </trkpt>
      <trkpt lat="43.22139" lon="5.50108">
        <ele>254</ele>
        <time>2019-10-02T14:30:43Z</time>
      </trkpt>
      <trkpt lat="43.22143" lon="5.50112">
        <ele>255</ele>
        <time>2019-10-02T14:30:49Z</time>
      </trkpt>
      <trkpt lat="43.22148" lon="5.50112">
        <ele>256</ele>
        <time>2019-10-02T14:30:57Z</time>
      </trkpt>
      <trkpt lat="43.22154" lon="5.50111">
        <ele>257</ele>
        <time>2019-10-02T14:31:03Z</time>
      </trkpt>
      <trkpt lat="43.2216" lon="5.5011">
        <ele>258</ele>
        <time>2019-10-02T14:31:11Z</time>
      </trkpt>
      <trkpt lat="43.22166" lon="5.5011">
        <ele>259</ele>
        <time>2019-10-02T14:31:19Z</time>
      </trkpt>
      <trkpt lat="43.22171" lon="5.50109">
        <ele>260</ele>
        <time>2019-10-02T14:31:27Z</time>
      </trkpt>
      <trkpt lat="43.22176" lon="5.5011">
        <ele>260</ele>
        <time>2019-10-02T14:31:33Z</time>
      </trkpt>
      <trkpt lat="43.22182" lon="5.50112">
        <ele>261</ele>
        <time>2019-10-02T14:31:41Z</time>
      </trkpt>
      <trkpt lat="43.22187" lon="5.50113">
        <ele>262</ele>
        <time>2019-10-02T14:31:47Z</time>
      </trkpt>
      <trkpt lat="43.22191" lon="5.50113">
        <ele>264</ele>
        <time>2019-10-02T14:31:53Z</time>
      </trkpt>
      <trkpt lat="43.22197" lon="5.50113">
        <ele>265</ele>
        <time>2019-10-02T14:32:01Z</time>
      </trkpt>
      <trkpt lat="43.22203" lon="5.50114">
        <ele>266</ele>
        <time>2019-10-02T14:32:09Z</time>
      </trkpt>
      <trkpt lat="43.22208" lon="5.50112">
        <ele>268</ele>
        <time>2019-10-02T14:32:29Z</time>
      </trkpt>
      <trkpt lat="43.22213" lon="5.50114">
        <ele>268</ele>
        <time>2019-10-02T14:32:35Z</time>
      </trkpt>
      <trkpt lat="43.22217" lon="5.50116">
        <ele>268</ele>
        <time>2019-10-02T14:32:41Z</time>
      </trkpt>
      <trkpt lat="43.22221" lon="5.50122">
        <ele>268</ele>
        <time>2019-10-02T14:32:49Z</time>
      </trkpt>
      <trkpt lat="43.22224" lon="5.50127">
        <ele>268</ele>
        <time>2019-10-02T14:32:57Z</time>
      </trkpt>
      <trkpt lat="43.22227" lon="5.50132">
        <ele>268</ele>
        <time>2019-10-02T14:33:15Z</time>
      </trkpt>
      <trkpt lat="43.22229" lon="5.50139">
        <ele>268</ele>
        <time>2019-10-02T14:33:23Z</time>
      </trkpt>
      <trkpt lat="43.22233" lon="5.50144">
        <ele>267</ele>
        <time>2019-10-02T14:33:27Z</time>
      </trkpt>
      <trkpt lat="43.22237" lon="5.50149">
        <ele>266</ele>
        <time>2019-10-02T14:33:33Z</time>
      </trkpt>
      <trkpt lat="43.22241" lon="5.50156">
        <ele>265</ele>
        <time>2019-10-02T14:33:39Z</time>
      </trkpt>
      <trkpt lat="43.22243" lon="5.50162">
        <ele>264</ele>
        <time>2019-10-02T14:33:45Z</time>
      </trkpt>
      <trkpt lat="43.22245" lon="5.5017">
        <ele>263</ele>
        <time>2019-10-02T14:33:51Z</time>
      </trkpt>
      <trkpt lat="43.22249" lon="5.50178">
        <ele>264</ele>
        <time>2019-10-02T14:33:57Z</time>
      </trkpt>
      <trkpt lat="43.22252" lon="5.50185">
        <ele>264</ele>
        <time>2019-10-02T14:34:03Z</time>
      </trkpt>
      <trkpt lat="43.22256" lon="5.50192">
        <ele>263</ele>
        <time>2019-10-02T14:34:09Z</time>
      </trkpt>
      <trkpt lat="43.22262" lon="5.50196">
        <ele>263</ele>
        <time>2019-10-02T14:34:15Z</time>
      </trkpt>
      <trkpt lat="43.22267" lon="5.50195">
        <ele>262</ele>
        <time>2019-10-02T14:34:21Z</time>
      </trkpt>
      <trkpt lat="43.22272" lon="5.50191">
        <ele>263</ele>
        <time>2019-10-02T14:34:29Z</time>
      </trkpt>
      <trkpt lat="43.22278" lon="5.50189">
        <ele>263</ele>
        <time>2019-10-02T14:34:35Z</time>
      </trkpt>
      <trkpt lat="43.22283" lon="5.50188">
        <ele>264</ele>
        <time>2019-10-02T14:34:41Z</time>
      </trkpt>
      <trkpt lat="43.22287" lon="5.50186">
        <ele>266</ele>
        <time>2019-10-02T14:34:47Z</time>
      </trkpt>
      <trkpt lat="43.22292" lon="5.50184">
        <ele>266</ele>
        <time>2019-10-02T14:34:53Z</time>
      </trkpt>
      <trkpt lat="43.22297" lon="5.50182">
        <ele>267</ele>
        <time>2019-10-02T14:34:59Z</time>
      </trkpt>
      <trkpt lat="43.22302" lon="5.5018">
        <ele>268</ele>
        <time>2019-10-02T14:35:07Z</time>
      </trkpt>
      <trkpt lat="43.22309" lon="5.50182">
        <ele>268</ele>
        <time>2019-10-02T14:35:13Z</time>
      </trkpt>
      <trkpt lat="43.22315" lon="5.50181">
        <ele>269</ele>
        <time>2019-10-02T14:35:19Z</time>
      </trkpt>
      <trkpt lat="43.2232" lon="5.50178">
        <ele>270</ele>
        <time>2019-10-02T14:35:25Z</time>
      </trkpt>
      <trkpt lat="43.22326" lon="5.50176">
        <ele>271</ele>
        <time>2019-10-02T14:35:31Z</time>
      </trkpt>
      <trkpt lat="43.22332" lon="5.50174">
        <ele>271</ele>
        <time>2019-10-02T14:35:37Z</time>
      </trkpt>
      <trkpt lat="43.22338" lon="5.50172">
        <ele>273</ele>
        <time>2019-10-02T14:35:43Z</time>
      </trkpt>
      <trkpt lat="43.22344" lon="5.5017">
        <ele>273</ele>
        <time>2019-10-02T14:35:49Z</time>
      </trkpt>
      <trkpt lat="43.2235" lon="5.50168">
        <ele>274</ele>
        <time>2019-10-02T14:35:55Z</time>
      </trkpt>
      <trkpt lat="43.22355" lon="5.50167">
        <ele>275</ele>
        <time>2019-10-02T14:36:01Z</time>
      </trkpt>
      <trkpt lat="43.22362" lon="5.50166">
        <ele>275</ele>
        <time>2019-10-02T14:36:07Z</time>
      </trkpt>
      <trkpt lat="43.22368" lon="5.50166">
        <ele>275</ele>
        <time>2019-10-02T14:36:13Z</time>
      </trkpt>
      <trkpt lat="43.22375" lon="5.50166">
        <ele>275</ele>
        <time>2019-10-02T14:36:19Z</time>
      </trkpt>
      <trkpt lat="43.22381" lon="5.50166">
        <ele>276</ele>
        <time>2019-10-02T14:36:25Z</time>
      </trkpt>
      <trkpt lat="43.22387" lon="5.50167">
        <ele>276</ele>
        <time>2019-10-02T14:36:31Z</time>
      </trkpt>
      <trkpt lat="43.22393" lon="5.5017">
        <ele>277</ele>
        <time>2019-10-02T14:36:37Z</time>
      </trkpt>
      <trkpt lat="43.22398" lon="5.50173">
        <ele>278</ele>
        <time>2019-10-02T14:36:43Z</time>
      </trkpt>
      <trkpt lat="43.22401" lon="5.50178">
        <ele>279</ele>
        <time>2019-10-02T14:36:49Z</time>
      </trkpt>
      <trkpt lat="43.22403" lon="5.50185">
        <ele>280</ele>
        <time>2019-10-02T14:36:55Z</time>
      </trkpt>
      <trkpt lat="43.22404" lon="5.50193">
        <ele>281</ele>
        <time>2019-10-02T14:37:01Z</time>
      </trkpt>
      <trkpt lat="43.22409" lon="5.50194">
        <ele>281</ele>
        <time>2019-10-02T14:37:21Z</time>
      </trkpt>
      <trkpt lat="43.22412" lon="5.50199">
        <ele>280</ele>
        <time>2019-10-02T14:37:31Z</time>
      </trkpt>
      <trkpt lat="43.22416" lon="5.50203">
        <ele>281</ele>
        <time>2019-10-02T14:37:37Z</time>
      </trkpt>
      <trkpt lat="43.2242" lon="5.50207">
        <ele>282</ele>
        <time>2019-10-02T14:37:43Z</time>
      </trkpt>
      <trkpt lat="43.22424" lon="5.50212">
        <ele>284</ele>
        <time>2019-10-02T14:37:49Z</time>
      </trkpt>
      <trkpt lat="43.22428" lon="5.50217">
        <ele>285</ele>
        <time>2019-10-02T14:37:57Z</time>
      </trkpt>
      <trkpt lat="43.22433" lon="5.50219">
        <ele>286</ele>
        <time>2019-10-02T14:38:03Z</time>
      </trkpt>
      <trkpt lat="43.22438" lon="5.50221">
        <ele>287</ele>
        <time>2019-10-02T14:38:11Z</time>
      </trkpt>
      <trkpt lat="43.22443" lon="5.50225">
        <ele>287</ele>
        <time>2019-10-02T14:38:17Z</time>
      </trkpt>
      <trkpt lat="43.22448" lon="5.50228">
        <ele>287</ele>
        <time>2019-10-02T14:38:23Z</time>
      </trkpt>
      <trkpt lat="43.22453" lon="5.5023">
        <ele>288</ele>
        <time>2019-10-02T14:38:29Z</time>
      </trkpt>
      <trkpt lat="43.22457" lon="5.50233">
        <ele>288</ele>
        <time>2019-10-02T14:38:35Z</time>
      </trkpt>
      <trkpt lat="43.22462" lon="5.50237">
        <ele>290</ele>
        <time>2019-10-02T14:38:41Z</time>
      </trkpt>
      <trkpt lat="43.22467" lon="5.50239">
        <ele>290</ele>
        <time>2019-10-02T14:38:47Z</time>
      </trkpt>
      <trkpt lat="43.22473" lon="5.50242">
        <ele>291</ele>
        <time>2019-10-02T14:38:53Z</time>
      </trkpt>
      <trkpt lat="43.22478" lon="5.50246">
        <ele>291</ele>
        <time>2019-10-02T14:38:59Z</time>
      </trkpt>
      <trkpt lat="43.22483" lon="5.50252">
        <ele>291</ele>
        <time>2019-10-02T14:39:05Z</time>
      </trkpt>
      <trkpt lat="43.22487" lon="5.50255">
        <ele>291</ele>
        <time>2019-10-02T14:39:09Z</time>
      </trkpt>
      <trkpt lat="43.22491" lon="5.50258">
        <ele>290</ele>
        <time>2019-10-02T14:39:13Z</time>
      </trkpt>
      <trkpt lat="43.22496" lon="5.50261">
        <ele>291</ele>
        <time>2019-10-02T14:39:19Z</time>
      </trkpt>
      <trkpt lat="43.22502" lon="5.50265">
        <ele>292</ele>
        <time>2019-10-02T14:39:25Z</time>
      </trkpt>
      <trkpt lat="43.22508" lon="5.50268">
        <ele>291</ele>
        <time>2019-10-02T14:39:31Z</time>
      </trkpt>
      <trkpt lat="43.22514" lon="5.50271">
        <ele>291</ele>
        <time>2019-10-02T14:39:37Z</time>
      </trkpt>
      <trkpt lat="43.2252" lon="5.50272">
        <ele>291</ele>
        <time>2019-10-02T14:39:43Z</time>
      </trkpt>
      <trkpt lat="43.22525" lon="5.50275">
        <ele>291</ele>
        <time>2019-10-02T14:39:49Z</time>
      </trkpt>
      <trkpt lat="43.22532" lon="5.50275">
        <ele>291</ele>
        <time>2019-10-02T14:39:55Z</time>
      </trkpt>
      <trkpt lat="43.22538" lon="5.50278">
        <ele>292</ele>
        <time>2019-10-02T14:40:01Z</time>
      </trkpt>
      <trkpt lat="43.22543" lon="5.50278">
        <ele>292</ele>
        <time>2019-10-02T14:40:07Z</time>
      </trkpt>
      <trkpt lat="43.22549" lon="5.50278">
        <ele>293</ele>
        <time>2019-10-02T14:40:13Z</time>
      </trkpt>
      <trkpt lat="43.22555" lon="5.50277">
        <ele>293</ele>
        <time>2019-10-02T14:40:19Z</time>
      </trkpt>
      <trkpt lat="43.2256" lon="5.50278">
        <ele>294</ele>
        <time>2019-10-02T14:40:25Z</time>
      </trkpt>
      <trkpt lat="43.22566" lon="5.50279">
        <ele>294</ele>
        <time>2019-10-02T14:40:31Z</time>
      </trkpt>
      <trkpt lat="43.22572" lon="5.50278">
        <ele>293</ele>
        <time>2019-10-02T14:40:37Z</time>
      </trkpt>
      <trkpt lat="43.22578" lon="5.5028">
        <ele>294</ele>
        <time>2019-10-02T14:40:43Z</time>
      </trkpt>
      <trkpt lat="43.22584" lon="5.50279">
        <ele>295</ele>
        <time>2019-10-02T14:40:49Z</time>
      </trkpt>
      <trkpt lat="43.2259" lon="5.5028">
        <ele>295</ele>
        <time>2019-10-02T14:40:55Z</time>
      </trkpt>
      <trkpt lat="43.22595" lon="5.5028">
        <ele>297</ele>
        <time>2019-10-02T14:41:01Z</time>
      </trkpt>
      <trkpt lat="43.22602" lon="5.5028">
        <ele>298</ele>
        <time>2019-10-02T14:41:07Z</time>
      </trkpt>
      <trkpt lat="43.22608" lon="5.5028">
        <ele>299</ele>
        <time>2019-10-02T14:41:13Z</time>
      </trkpt>
      <trkpt lat="43.22614" lon="5.5028">
        <ele>299</ele>
        <time>2019-10-02T14:41:19Z</time>
      </trkpt>
      <trkpt lat="43.2262" lon="5.50281">
        <ele>299</ele>
        <time>2019-10-02T14:41:25Z</time>
      </trkpt>
      <trkpt lat="43.22626" lon="5.50281">
        <ele>299</ele>
        <time>2019-10-02T14:41:31Z</time>
      </trkpt>
      <trkpt lat="43.22632" lon="5.50285">
        <ele>298</ele>
        <time>2019-10-02T14:41:37Z</time>
      </trkpt>
      <trkpt lat="43.22637" lon="5.5029">
        <ele>299</ele>
        <time>2019-10-02T14:41:43Z</time>
      </trkpt>
      <trkpt lat="43.22642" lon="5.50294">
        <ele>299</ele>
        <time>2019-10-02T14:41:49Z</time>
      </trkpt>
      <trkpt lat="43.22646" lon="5.50299">
        <ele>300</ele>
        <time>2019-10-02T14:41:55Z</time>
      </trkpt>
      <trkpt lat="43.2265" lon="5.50305">
        <ele>300</ele>
        <time>2019-10-02T14:42:01Z</time>
      </trkpt>
      <trkpt lat="43.22654" lon="5.50311">
        <ele>300</ele>
        <time>2019-10-02T14:42:07Z</time>
      </trkpt>
      <trkpt lat="43.22658" lon="5.50317">
        <ele>301</ele>
        <time>2019-10-02T14:42:13Z</time>
      </trkpt>
      <trkpt lat="43.22662" lon="5.50322">
        <ele>301</ele>
        <time>2019-10-02T14:42:17Z</time>
      </trkpt>
      <trkpt lat="43.22666" lon="5.50328">
        <ele>301</ele>
        <time>2019-10-02T14:42:23Z</time>
      </trkpt>
      <trkpt lat="43.2267" lon="5.50335">
        <ele>301</ele>
        <time>2019-10-02T14:42:29Z</time>
      </trkpt>
      <trkpt lat="43.22673" lon="5.50339">
        <ele>301</ele>
        <time>2019-10-02T14:42:33Z</time>
      </trkpt>
      <trkpt lat="43.22677" lon="5.50346">
        <ele>301</ele>
        <time>2019-10-02T14:42:39Z</time>
      </trkpt>
      <trkpt lat="43.22681" lon="5.50352">
        <ele>301</ele>
        <time>2019-10-02T14:42:45Z</time>
      </trkpt>
      <trkpt lat="43.22685" lon="5.50359">
        <ele>301</ele>
        <time>2019-10-02T14:42:51Z</time>
      </trkpt>
      <trkpt lat="43.22689" lon="5.50365">
        <ele>303</ele>
        <time>2019-10-02T14:42:57Z</time>
      </trkpt>
      <trkpt lat="43.22693" lon="5.50372">
        <ele>303</ele>
        <time>2019-10-02T14:43:03Z</time>
      </trkpt>
      <trkpt lat="43.22697" lon="5.50378">
        <ele>303</ele>
        <time>2019-10-02T14:43:09Z</time>
      </trkpt>
      <trkpt lat="43.227" lon="5.50385">
        <ele>303</ele>
        <time>2019-10-02T14:43:15Z</time>
      </trkpt>
      <trkpt lat="43.22703" lon="5.50391">
        <ele>305</ele>
        <time>2019-10-02T14:43:21Z</time>
      </trkpt>
      <trkpt lat="43.22707" lon="5.50398">
        <ele>303</ele>
        <time>2019-10-02T14:43:27Z</time>
      </trkpt>
      <trkpt lat="43.2271" lon="5.50402">
        <ele>301</ele>
        <time>2019-10-02T14:43:31Z</time>
      </trkpt>
      <trkpt lat="43.22715" lon="5.50408">
        <ele>302</ele>
        <time>2019-10-02T14:43:37Z</time>
      </trkpt>
      <trkpt lat="43.22719" lon="5.50414">
        <ele>302</ele>
        <time>2019-10-02T14:43:43Z</time>
      </trkpt>
      <trkpt lat="43.22722" lon="5.50419">
        <ele>303</ele>
        <time>2019-10-02T14:44:27Z</time>
      </trkpt>
      <trkpt lat="43.22725" lon="5.50424">
        <ele>302</ele>
        <time>2019-10-02T14:44:33Z</time>
      </trkpt>
      <trkpt lat="43.22729" lon="5.50429">
        <ele>303</ele>
        <time>2019-10-02T14:44:41Z</time>
      </trkpt>
      <trkpt lat="43.22733" lon="5.50432">
        <ele>303</ele>
        <time>2019-10-02T14:44:51Z</time>
      </trkpt>
      <trkpt lat="43.22738" lon="5.50434">
        <ele>303</ele>
        <time>2019-10-02T14:45:01Z</time>
      </trkpt>
      <trkpt lat="43.22742" lon="5.50437">
        <ele>303</ele>
        <time>2019-10-02T14:45:23Z</time>
      </trkpt>
      <trkpt lat="43.22746" lon="5.50442">
        <ele>303</ele>
        <time>2019-10-02T14:45:31Z</time>
      </trkpt>
      <trkpt lat="43.2275" lon="5.50447">
        <ele>301</ele>
        <time>2019-10-02T14:45:37Z</time>
      </trkpt>
      <trkpt lat="43.22756" lon="5.50449">
        <ele>302</ele>
        <time>2019-10-02T14:45:45Z</time>
      </trkpt>
      <trkpt lat="43.2276" lon="5.50448">
        <ele>303</ele>
        <time>2019-10-02T14:45:53Z</time>
      </trkpt>
      <trkpt lat="43.22765" lon="5.50449">
        <ele>303</ele>
        <time>2019-10-02T14:46:01Z</time>
      </trkpt>
      <trkpt lat="43.2277" lon="5.50446">
        <ele>303</ele>
        <time>2019-10-02T14:46:09Z</time>
      </trkpt>
      <trkpt lat="43.22776" lon="5.50445">
        <ele>302</ele>
        <time>2019-10-02T14:46:17Z</time>
      </trkpt>
      <trkpt lat="43.2278" lon="5.50442">
        <ele>300</ele>
        <time>2019-10-02T14:46:23Z</time>
      </trkpt>
      <trkpt lat="43.22785" lon="5.50438">
        <ele>298</ele>
        <time>2019-10-02T14:46:29Z</time>
      </trkpt>
      <trkpt lat="43.2279" lon="5.50436">
        <ele>298</ele>
        <time>2019-10-02T14:46:35Z</time>
      </trkpt>
      <trkpt lat="43.22795" lon="5.50434">
        <ele>298</ele>
        <time>2019-10-02T14:46:43Z</time>
      </trkpt>
      <trkpt lat="43.228" lon="5.50432">
        <ele>296</ele>
        <time>2019-10-02T14:46:51Z</time>
      </trkpt>
      <trkpt lat="43.22805" lon="5.5043">
        <ele>296</ele>
        <time>2019-10-02T14:46:57Z</time>
      </trkpt>
      <trkpt lat="43.2281" lon="5.50429">
        <ele>296</ele>
        <time>2019-10-02T14:47:07Z</time>
      </trkpt>
      <trkpt lat="43.22815" lon="5.50427">
        <ele>295</ele>
        <time>2019-10-02T14:47:15Z</time>
      </trkpt>
      <trkpt lat="43.2282" lon="5.50422">
        <ele>293</ele>
        <time>2019-10-02T14:47:23Z</time>
      </trkpt>
      <trkpt lat="43.22825" lon="5.50417">
        <ele>292</ele>
        <time>2019-10-02T14:47:29Z</time>
      </trkpt>
      <trkpt lat="43.22829" lon="5.50413">
        <ele>291</ele>
        <time>2019-10-02T14:47:37Z</time>
      </trkpt>
      <trkpt lat="43.22832" lon="5.50409">
        <ele>291</ele>
        <time>2019-10-02T14:47:43Z</time>
      </trkpt>
      <trkpt lat="43.22837" lon="5.50405">
        <ele>291</ele>
        <time>2019-10-02T14:47:49Z</time>
      </trkpt>
      <trkpt lat="43.22841" lon="5.504">
        <ele>291</ele>
        <time>2019-10-02T14:47:55Z</time>
      </trkpt>
      <trkpt lat="43.22845" lon="5.50397">
        <ele>291</ele>
        <time>2019-10-02T14:48:01Z</time>
      </trkpt>
      <trkpt lat="43.22848" lon="5.50392">
        <ele>290</ele>
        <time>2019-10-02T14:48:07Z</time>
      </trkpt>
      <trkpt lat="43.22853" lon="5.50389">
        <ele>289</ele>
        <time>2019-10-02T14:48:15Z</time>
      </trkpt>
      <trkpt lat="43.22857" lon="5.50385">
        <ele>289</ele>
        <time>2019-10-02T14:48:21Z</time>
      </trkpt>
      <trkpt lat="43.22861" lon="5.5038">
        <ele>288</ele>
        <time>2019-10-02T14:48:31Z</time>
      </trkpt>
      <trkpt lat="43.22866" lon="5.50375">
        <ele>288</ele>
        <time>2019-10-02T14:48:37Z</time>
      </trkpt>
      <trkpt lat="43.2287" lon="5.50372">
        <ele>287</ele>
        <time>2019-10-02T14:48:45Z</time>
      </trkpt>
      <trkpt lat="43.22875" lon="5.5037">
        <ele>286</ele>
        <time>2019-10-02T14:48:51Z</time>
      </trkpt>
      <trkpt lat="43.22877" lon="5.50363">
        <ele>286</ele>
        <time>2019-10-02T14:48:59Z</time>
      </trkpt>
      <trkpt lat="43.22879" lon="5.50357">
        <ele>286</ele>
        <time>2019-10-02T14:49:05Z</time>
      </trkpt>
      <trkpt lat="43.22884" lon="5.50352">
        <ele>285</ele>
        <time>2019-10-02T14:49:13Z</time>
      </trkpt>
      <trkpt lat="43.22888" lon="5.50346">
        <ele>286</ele>
        <time>2019-10-02T14:49:21Z</time>
      </trkpt>
      <trkpt lat="43.22891" lon="5.50343">
        <ele>287</ele>
        <time>2019-10-02T14:49:27Z</time>
      </trkpt>
      <trkpt lat="43.22896" lon="5.50337">
        <ele>286</ele>
        <time>2019-10-02T14:49:35Z</time>
      </trkpt>
      <trkpt lat="43.229" lon="5.50332">
        <ele>286</ele>
        <time>2019-10-02T14:49:41Z</time>
      </trkpt>
      <trkpt lat="43.22903" lon="5.50327">
        <ele>285</ele>
        <time>2019-10-02T14:49:45Z</time>
      </trkpt>
      <trkpt lat="43.22906" lon="5.50321">
        <ele>285</ele>
        <time>2019-10-02T14:49:51Z</time>
      </trkpt>
      <trkpt lat="43.22911" lon="5.50316">
        <ele>284</ele>
        <time>2019-10-02T14:49:59Z</time>
      </trkpt>
      <trkpt lat="43.22914" lon="5.50311">
        <ele>283</ele>
        <time>2019-10-02T14:50:05Z</time>
      </trkpt>
      <trkpt lat="43.22918" lon="5.50306">
        <ele>282</ele>
        <time>2019-10-02T14:50:13Z</time>
      </trkpt>
      <trkpt lat="43.22921" lon="5.50302">
        <ele>281</ele>
        <time>2019-10-02T14:50:19Z</time>
      </trkpt>
      <trkpt lat="43.22925" lon="5.50296">
        <ele>280</ele>
        <time>2019-10-02T14:50:25Z</time>
      </trkpt>
      <trkpt lat="43.22929" lon="5.5029">
        <ele>279</ele>
        <time>2019-10-02T14:50:33Z</time>
      </trkpt>
      <trkpt lat="43.22933" lon="5.50286">
        <ele>278</ele>
        <time>2019-10-02T14:50:39Z</time>
      </trkpt>
      <trkpt lat="43.22936" lon="5.50281">
        <ele>278</ele>
        <time>2019-10-02T14:50:47Z</time>
      </trkpt>
      <trkpt lat="43.22939" lon="5.50276">
        <ele>277</ele>
        <time>2019-10-02T14:50:53Z</time>
      </trkpt>
      <trkpt lat="43.22943" lon="5.5027">
        <ele>275</ele>
        <time>2019-10-02T14:51:01Z</time>
      </trkpt>
      <trkpt lat="43.22947" lon="5.50266">
        <ele>275</ele>
        <time>2019-10-02T14:51:09Z</time>
      </trkpt>
      <trkpt lat="43.2295" lon="5.50261">
        <ele>275</ele>
        <time>2019-10-02T14:51:17Z</time>
      </trkpt>
      <trkpt lat="43.22954" lon="5.50257">
        <ele>274</ele>
        <time>2019-10-02T14:51:25Z</time>
      </trkpt>
      <trkpt lat="43.22956" lon="5.50251">
        <ele>272</ele>
        <time>2019-10-02T14:51:31Z</time>
      </trkpt>
      <trkpt lat="43.22959" lon="5.50243">
        <ele>273</ele>
        <time>2019-10-02T14:51:37Z</time>
      </trkpt>
      <trkpt lat="43.22961" lon="5.50238">
        <ele>271</ele>
        <time>2019-10-02T14:51:43Z</time>
      </trkpt>
      <trkpt lat="43.22964" lon="5.50232">
        <ele>273</ele>
        <time>2019-10-02T14:51:51Z</time>
      </trkpt>
      <trkpt lat="43.22968" lon="5.50226">
        <ele>271</ele>
        <time>2019-10-02T14:51:59Z</time>
      </trkpt>
      <trkpt lat="43.22971" lon="5.5022">
        <ele>270</ele>
        <time>2019-10-02T14:52:07Z</time>
      </trkpt>
      <trkpt lat="43.22974" lon="5.50214">
        <ele>269</ele>
        <time>2019-10-02T14:52:13Z</time>
      </trkpt>
      <trkpt lat="43.22978" lon="5.50209">
        <ele>269</ele>
        <time>2019-10-02T14:52:21Z</time>
      </trkpt>
      <trkpt lat="43.22978" lon="5.50202">
        <ele>267</ele>
        <time>2019-10-02T14:53:29Z</time>
      </trkpt>
      <trkpt lat="43.2298" lon="5.50196">
        <ele>264</ele>
        <time>2019-10-02T14:53:33Z</time>
      </trkpt>
      <trkpt lat="43.22982" lon="5.50188">
        <ele>266</ele>
        <time>2019-10-02T14:53:39Z</time>
      </trkpt>
      <trkpt lat="43.22985" lon="5.50182">
        <ele>265</ele>
        <time>2019-10-02T14:53:45Z</time>
      </trkpt>
      <trkpt lat="43.22986" lon="5.50176">
        <ele>264</ele>
        <time>2019-10-02T14:53:55Z</time>
      </trkpt>
      <trkpt lat="43.2299" lon="5.50172">
        <ele>263</ele>
        <time>2019-10-02T14:54:07Z</time>
      </trkpt>
      <trkpt lat="43.22993" lon="5.50166">
        <ele>261</ele>
        <time>2019-10-02T14:54:19Z</time>
      </trkpt>
      <trkpt lat="43.22997" lon="5.50162">
        <ele>258</ele>
        <time>2019-10-02T14:55:57Z</time>
      </trkpt>
      <trkpt lat="43.22999" lon="5.50157">
        <ele>256</ele>
        <time>2019-10-02T14:56:31Z</time>
      </trkpt>
      <trkpt lat="43.22999" lon="5.5015">
        <ele>253</ele>
        <time>2019-10-02T14:56:37Z</time>
      </trkpt>
      <trkpt lat="43.22998" lon="5.50143">
        <ele>255</ele>
        <time>2019-10-02T14:56:43Z</time>
      </trkpt>
      <trkpt lat="43.22996" lon="5.50137">
        <ele>256</ele>
        <time>2019-10-02T14:56:51Z</time>
      </trkpt>
      <trkpt lat="43.22993" lon="5.50132">
        <ele>257</ele>
        <time>2019-10-02T14:56:59Z</time>
      </trkpt>
      <trkpt lat="43.22991" lon="5.50126">
        <ele>256</ele>
        <time>2019-10-02T14:57:07Z</time>
      </trkpt>
      <trkpt lat="43.22988" lon="5.50121">
        <ele>256</ele>
        <time>2019-10-02T14:57:23Z</time>
      </trkpt>
      <trkpt lat="43.22984" lon="5.50115">
        <ele>254</ele>
        <time>2019-10-02T14:57:31Z</time>
      </trkpt>
      <trkpt lat="43.22983" lon="5.50109">
        <ele>254</ele>
        <time>2019-10-02T14:57:39Z</time>
      </trkpt>
      <trkpt lat="43.22982" lon="5.50101">
        <ele>252</ele>
        <time>2019-10-02T14:57:45Z</time>
      </trkpt>
      <trkpt lat="43.2298" lon="5.50095">
        <ele>249</ele>
        <time>2019-10-02T14:57:53Z</time>
      </trkpt>
      <trkpt lat="43.2298" lon="5.50088">
        <ele>250</ele>
        <time>2019-10-02T14:58:01Z</time>
      </trkpt>
      <trkpt lat="43.2298" lon="5.50081">
        <ele>251</ele>
        <time>2019-10-02T14:58:07Z</time>
      </trkpt>
      <trkpt lat="43.22981" lon="5.50075">
        <ele>251</ele>
        <time>2019-10-02T14:58:13Z</time>
      </trkpt>
      <trkpt lat="43.22983" lon="5.50068">
        <ele>250</ele>
        <time>2019-10-02T14:58:21Z</time>
      </trkpt>
      <trkpt lat="43.22986" lon="5.50061">
        <ele>248</ele>
        <time>2019-10-02T14:58:29Z</time>
      </trkpt>
      <trkpt lat="43.22987" lon="5.50053">
        <ele>247</ele>
        <time>2019-10-02T14:58:35Z</time>
      </trkpt>
      <trkpt lat="43.22985" lon="5.50046">
        <ele>246</ele>
        <time>2019-10-02T14:58:41Z</time>
      </trkpt>
      <trkpt lat="43.22984" lon="5.50039">
        <ele>245</ele>
        <time>2019-10-02T14:58:47Z</time>
      </trkpt>
      <trkpt lat="43.2298" lon="5.50033">
        <ele>245</ele>
        <time>2019-10-02T14:58:53Z</time>
      </trkpt>
      <trkpt lat="43.22978" lon="5.50027">
        <ele>245</ele>
        <time>2019-10-02T14:58:59Z</time>
      </trkpt>
      <trkpt lat="43.22974" lon="5.50024">
        <ele>245</ele>
        <time>2019-10-02T14:59:03Z</time>
      </trkpt>
      <trkpt lat="43.22969" lon="5.50019">
        <ele>243</ele>
        <time>2019-10-02T14:59:11Z</time>
      </trkpt>
      <trkpt lat="43.22965" lon="5.50016">
        <ele>241</ele>
        <time>2019-10-02T14:59:17Z</time>
      </trkpt>
      <trkpt lat="43.22962" lon="5.50011">
        <ele>241</ele>
        <time>2019-10-02T14:59:23Z</time>
      </trkpt>
      <trkpt lat="43.22963" lon="5.50004">
        <ele>243</ele>
        <time>2019-10-02T14:59:31Z</time>
      </trkpt>
      <trkpt lat="43.22969" lon="5.50004">
        <ele>243</ele>
        <time>2019-10-02T14:59:43Z</time>
      </trkpt>
      <trkpt lat="43.22974" lon="5.50007">
        <ele>241</ele>
        <time>2019-10-02T14:59:53Z</time>
      </trkpt>
      <trkpt lat="43.2298" lon="5.50006">
        <ele>240</ele>
        <time>2019-10-02T15:00:03Z</time>
      </trkpt>
      <trkpt lat="43.22984" lon="5.50004">
        <ele>239</ele>
        <time>2019-10-02T15:00:09Z</time>
      </trkpt>
      <trkpt lat="43.2299" lon="5.50001">
        <ele>240</ele>
        <time>2019-10-02T15:00:19Z</time>
      </trkpt>
      <trkpt lat="43.22994" lon="5.49999">
        <ele>239</ele>
        <time>2019-10-02T15:00:25Z</time>
      </trkpt>
      <trkpt lat="43.23" lon="5.5">
        <ele>238</ele>
        <time>2019-10-02T15:00:31Z</time>
      </trkpt>
      <trkpt lat="43.23005" lon="5.5">
        <ele>236</ele>
        <time>2019-10-02T15:00:37Z</time>
      </trkpt>
      <trkpt lat="43.2301" lon="5.50002">
        <ele>235</ele>
        <time>2019-10-02T15:00:43Z</time>
      </trkpt>
      <trkpt lat="43.23015" lon="5.50005">
        <ele>235</ele>
        <time>2019-10-02T15:00:49Z</time>
      </trkpt>
      <trkpt lat="43.23019" lon="5.50007">
        <ele>234</ele>
        <time>2019-10-02T15:00:55Z</time>
      </trkpt>
      <trkpt lat="43.23024" lon="5.5001">
        <ele>234</ele>
        <time>2019-10-02T15:01:01Z</time>
      </trkpt>
      <trkpt lat="43.23029" lon="5.50014">
        <ele>233</ele>
        <time>2019-10-02T15:01:07Z</time>
      </trkpt>
      <trkpt lat="43.23035" lon="5.50015">
        <ele>233</ele>
        <time>2019-10-02T15:01:13Z</time>
      </trkpt>
      <trkpt lat="43.23041" lon="5.50017">
        <ele>233</ele>
        <time>2019-10-02T15:01:23Z</time>
      </trkpt>
      <trkpt lat="43.23045" lon="5.50018">
        <ele>233</ele>
        <time>2019-10-02T15:01:29Z</time>
      </trkpt>
      <trkpt lat="43.2305" lon="5.50021">
        <ele>233</ele>
        <time>2019-10-02T15:01:35Z</time>
      </trkpt>
      <trkpt lat="43.23055" lon="5.50022">
        <ele>233</ele>
        <time>2019-10-02T15:01:41Z</time>
      </trkpt>
      <trkpt lat="43.23061" lon="5.50024">
        <ele>234</ele>
        <time>2019-10-02T15:01:51Z</time>
      </trkpt>
      <trkpt lat="43.23066" lon="5.50027">
        <ele>232</ele>
        <time>2019-10-02T15:01:57Z</time>
      </trkpt>
      <trkpt lat="43.23071" lon="5.5003">
        <ele>232</ele>
        <time>2019-10-02T15:02:03Z</time>
      </trkpt>
      <trkpt lat="43.23075" lon="5.50034">
        <ele>228</ele>
        <time>2019-10-02T15:02:09Z</time>
      </trkpt>
      <trkpt lat="43.23079" lon="5.50039">
        <ele>226</ele>
        <time>2019-10-02T15:02:15Z</time>
      </trkpt>
      <trkpt lat="43.23084" lon="5.50043">
        <ele>226</ele>
        <time>2019-10-02T15:02:21Z</time>
      </trkpt>
      <trkpt lat="43.23089" lon="5.50044">
        <ele>226</ele>
        <time>2019-10-02T15:02:29Z</time>
      </trkpt>
      <trkpt lat="43.23095" lon="5.50043">
        <ele>226</ele>
        <time>2019-10-02T15:02:35Z</time>
      </trkpt>
      <trkpt lat="43.231" lon="5.50045">
        <ele>227</ele>
        <time>2019-10-02T15:02:41Z</time>
      </trkpt>
      <trkpt lat="43.23102" lon="5.50051">
        <ele>226</ele>
        <time>2019-10-02T15:02:47Z</time>
      </trkpt>
      <trkpt lat="43.23105" lon="5.50057">
        <ele>227</ele>
        <time>2019-10-02T15:02:51Z</time>
      </trkpt>
      <trkpt lat="43.23107" lon="5.50064">
        <ele>228</ele>
        <time>2019-10-02T15:02:57Z</time>
      </trkpt>
      <trkpt lat="43.23109" lon="5.50069">
        <ele>228</ele>
        <time>2019-10-02T15:03:01Z</time>
      </trkpt>
      <trkpt lat="43.23112" lon="5.50077">
        <ele>228</ele>
        <time>2019-10-02T15:03:07Z</time>
      </trkpt>
      <trkpt lat="43.23114" lon="5.50083">
        <ele>228</ele>
        <time>2019-10-02T15:03:11Z</time>
      </trkpt>
      <trkpt lat="43.23118" lon="5.50089">
        <ele>230</ele>
        <time>2019-10-02T15:03:17Z</time>
      </trkpt>
      <trkpt lat="43.23119" lon="5.50096">
        <ele>231</ele>
        <time>2019-10-02T15:03:23Z</time>
      </trkpt>
      <trkpt lat="43.23121" lon="5.50102">
        <ele>228</ele>
        <time>2019-10-02T15:03:29Z</time>
      </trkpt>
      <trkpt lat="43.23122" lon="5.50109">
        <ele>226</ele>
        <time>2019-10-02T15:03:33Z</time>
      </trkpt>
      <trkpt lat="43.23126" lon="5.50115">
        <ele>226</ele>
        <time>2019-10-02T15:03:39Z</time>
      </trkpt>
      <trkpt lat="43.23129" lon="5.50121">
        <ele>226</ele>
        <time>2019-10-02T15:03:45Z</time>
      </trkpt>
      <trkpt lat="43.2313" lon="5.50128">
        <ele>225</ele>
        <time>2019-10-02T15:04:33Z</time>
      </trkpt>
      <trkpt lat="43.23129" lon="5.50135">
        <ele>227</ele>
        <time>2019-10-02T15:05:23Z</time>
      </trkpt>
      <trkpt lat="43.23128" lon="5.50142">
        <ele>229</ele>
        <time>2019-10-02T15:05:29Z</time>
      </trkpt>
      <trkpt lat="43.23126" lon="5.50149">
        <ele>229</ele>
        <time>2019-10-02T15:05:35Z</time>
      </trkpt>
      <trkpt lat="43.23122" lon="5.50156">
        <ele>228</ele>
        <time>2019-10-02T15:05:41Z</time>
      </trkpt>
      <trkpt lat="43.23119" lon="5.50161">
        <ele>227</ele>
        <time>2019-10-02T15:05:45Z</time>
      </trkpt>
      <trkpt lat="43.23114" lon="5.50167">
        <ele>226</ele>
        <time>2019-10-02T15:05:51Z</time>
      </trkpt>
      <trkpt lat="43.23111" lon="5.50174">
        <ele>225</ele>
        <time>2019-10-02T15:05:57Z</time>
      </trkpt>
      <trkpt lat="43.23108" lon="5.50181">
        <ele>226</ele>
        <time>2019-10-02T15:06:03Z</time>
      </trkpt>
      <trkpt lat="43.23108" lon="5.5019">
        <ele>225</ele>
        <time>2019-10-02T15:06:09Z</time>
      </trkpt>
      <trkpt lat="43.23109" lon="5.50197">
        <ele>226</ele>
        <time>2019-10-02T15:06:15Z</time>
      </trkpt>
      <trkpt lat="43.23112" lon="5.50203">
        <ele>226</ele>
        <time>2019-10-02T15:06:19Z</time>
      </trkpt>
      <trkpt lat="43.23114" lon="5.50212">
        <ele>227</ele>
        <time>2019-10-02T15:06:25Z</time>
      </trkpt>
      <trkpt lat="43.23115" lon="5.50218">
        <ele>227</ele>
        <time>2019-10-02T15:06:29Z</time>
      </trkpt>
      <trkpt lat="43.23117" lon="5.50225">
        <ele>224</ele>
        <time>2019-10-02T15:06:35Z</time>
      </trkpt>
      <trkpt lat="43.23118" lon="5.50234">
        <ele>225</ele>
        <time>2019-10-02T15:06:41Z</time>
      </trkpt>
      <trkpt lat="43.23119" lon="5.50241">
        <ele>221</ele>
        <time>2019-10-02T15:06:47Z</time>
      </trkpt>
      <trkpt lat="43.23121" lon="5.50249">
        <ele>221</ele>
        <time>2019-10-02T15:06:53Z</time>
      </trkpt>
      <trkpt lat="43.23121" lon="5.50255">
        <ele>222</ele>
        <time>2019-10-02T15:06:59Z</time>
      </trkpt>
      <trkpt lat="43.2312" lon="5.50261">
        <ele>222</ele>
        <time>2019-10-02T15:07:05Z</time>
      </trkpt>
      <trkpt lat="43.2312" lon="5.50268">
        <ele>220</ele>
        <time>2019-10-02T15:07:13Z</time>
      </trkpt>
      <trkpt lat="43.2312" lon="5.50275">
        <ele>221</ele>
        <time>2019-10-02T15:07:23Z</time>
      </trkpt>
      <trkpt lat="43.2312" lon="5.50282">
        <ele>218</ele>
        <time>2019-10-02T15:07:39Z</time>
      </trkpt>
      <trkpt lat="43.23119" lon="5.50289">
        <ele>219</ele>
        <time>2019-10-02T15:07:47Z</time>
      </trkpt>
      <trkpt lat="43.23118" lon="5.50296">
        <ele>222</ele>
        <time>2019-10-02T15:07:55Z</time>
      </trkpt>
      <trkpt lat="43.23116" lon="5.50303">
        <ele>224</ele>
        <time>2019-10-02T15:07:59Z</time>
      </trkpt>
      <trkpt lat="43.23115" lon="5.5031">
        <ele>224</ele>
        <time>2019-10-02T15:08:05Z</time>
      </trkpt>
      <trkpt lat="43.23113" lon="5.50317">
        <ele>222</ele>
        <time>2019-10-02T15:08:21Z</time>
      </trkpt>
      <trkpt lat="43.23112" lon="5.50323">
        <ele>220</ele>
        <time>2019-10-02T15:08:35Z</time>
      </trkpt>
      <trkpt lat="43.23109" lon="5.50331">
        <ele>220</ele>
        <time>2019-10-02T15:08:41Z</time>
      </trkpt>
      <trkpt lat="43.23107" lon="5.5034">
        <ele>219</ele>
        <time>2019-10-02T15:08:47Z</time>
      </trkpt>
      <trkpt lat="43.23108" lon="5.50348">
        <ele>216</ele>
        <time>2019-10-02T15:08:53Z</time>
      </trkpt>
      <trkpt lat="43.23105" lon="5.50356">
        <ele>217</ele>
        <time>2019-10-02T15:08:59Z</time>
      </trkpt>
      <trkpt lat="43.23102" lon="5.50364">
        <ele>217</ele>
        <time>2019-10-02T15:09:05Z</time>
      </trkpt>
      <trkpt lat="43.23101" lon="5.50373">
        <ele>217</ele>
        <time>2019-10-02T15:09:11Z</time>
      </trkpt>
      <trkpt lat="43.23098" lon="5.5038">
        <ele>217</ele>
        <time>2019-10-02T15:09:17Z</time>
      </trkpt>
      <trkpt lat="43.23097" lon="5.50388">
        <ele>217</ele>
        <time>2019-10-02T15:09:23Z</time>
      </trkpt>
      <trkpt lat="43.23095" lon="5.50394">
        <ele>217</ele>
        <time>2019-10-02T15:09:29Z</time>
      </trkpt>
      <trkpt lat="43.23094" lon="5.50403">
        <ele>216</ele>
        <time>2019-10-02T15:09:35Z</time>
      </trkpt>
      <trkpt lat="43.23092" lon="5.5041">
        <ele>217</ele>
        <time>2019-10-02T15:09:41Z</time>
      </trkpt>
      <trkpt lat="43.23091" lon="5.50417">
        <ele>216</ele>
        <time>2019-10-02T15:09:45Z</time>
      </trkpt>
      <trkpt lat="43.2309" lon="5.50424">
        <ele>214</ele>
        <time>2019-10-02T15:09:51Z</time>
      </trkpt>
      <trkpt lat="43.2309" lon="5.50431">
        <ele>213</ele>
        <time>2019-10-02T15:09:57Z</time>
      </trkpt>
      <trkpt lat="43.23091" lon="5.50439">
        <ele>214</ele>
        <time>2019-10-02T15:10:03Z</time>
      </trkpt>
      <trkpt lat="43.23092" lon="5.50447">
        <ele>215</ele>
        <time>2019-10-02T15:10:09Z</time>
      </trkpt>
      <trkpt lat="43.23094" lon="5.50455">
        <ele>216</ele>
        <time>2019-10-02T15:10:15Z</time>
      </trkpt>
      <trkpt lat="43.23095" lon="5.50463">
        <ele>215</ele>
        <time>2019-10-02T15:10:21Z</time>
      </trkpt>
      <trkpt lat="43.23098" lon="5.50469">
        <ele>212</ele>
        <time>2019-10-02T15:10:27Z</time>
      </trkpt>
      <trkpt lat="43.23105" lon="5.50472">
        <ele>211</ele>
        <time>2019-10-02T15:10:33Z</time>
      </trkpt>
      <trkpt lat="43.23111" lon="5.50475">
        <ele>211</ele>
        <time>2019-10-02T15:10:39Z</time>
      </trkpt>
      <trkpt lat="43.23116" lon="5.50477">
        <ele>210</ele>
        <time>2019-10-02T15:10:43Z</time>
      </trkpt>
      <trkpt lat="43.2312" lon="5.50483">
        <ele>210</ele>
        <time>2019-10-02T15:10:49Z</time>
      </trkpt>
      <trkpt lat="43.23123" lon="5.50488">
        <ele>212</ele>
        <time>2019-10-02T15:10:55Z</time>
      </trkpt>
      <trkpt lat="43.23126" lon="5.50493">
        <ele>212</ele>
        <time>2019-10-02T15:11:01Z</time>
      </trkpt>
      <trkpt lat="43.23128" lon="5.50501">
        <ele>213</ele>
        <time>2019-10-02T15:11:07Z</time>
      </trkpt>
      <trkpt lat="43.23128" lon="5.50509">
        <ele>212</ele>
        <time>2019-10-02T15:11:13Z</time>
      </trkpt>
      <trkpt lat="43.23127" lon="5.50516">
        <ele>212</ele>
        <time>2019-10-02T15:11:19Z</time>
      </trkpt>
      <trkpt lat="43.23125" lon="5.50523">
        <ele>215</ele>
        <time>2019-10-02T15:11:27Z</time>
      </trkpt>
      <trkpt lat="43.23125" lon="5.50529">
        <ele>214</ele>
        <time>2019-10-02T15:11:33Z</time>
      </trkpt>
      <trkpt lat="43.23123" lon="5.50537">
        <ele>214</ele>
        <time>2019-10-02T15:11:39Z</time>
      </trkpt>
      <trkpt lat="43.2312" lon="5.50545">
        <ele>215</ele>
        <time>2019-10-02T15:11:45Z</time>
      </trkpt>
      <trkpt lat="43.23118" lon="5.50552">
        <ele>214</ele>
        <time>2019-10-02T15:11:53Z</time>
      </trkpt>
      <trkpt lat="43.23118" lon="5.5056">
        <ele>214</ele>
        <time>2019-10-02T15:11:59Z</time>
      </trkpt>
      <trkpt lat="43.23116" lon="5.50568">
        <ele>214</ele>
        <time>2019-10-02T15:12:05Z</time>
      </trkpt>
      <trkpt lat="43.23115" lon="5.50575">
        <ele>214</ele>
        <time>2019-10-02T15:12:11Z</time>
      </trkpt>
      <trkpt lat="43.23114" lon="5.50581">
        <ele>214</ele>
        <time>2019-10-02T15:12:15Z</time>
      </trkpt>
      <trkpt lat="43.23112" lon="5.50589">
        <ele>214</ele>
        <time>2019-10-02T15:12:21Z</time>
      </trkpt>
      <trkpt lat="43.23112" lon="5.50597">
        <ele>215</ele>
        <time>2019-10-02T15:12:27Z</time>
      </trkpt>
      <trkpt lat="43.23109" lon="5.50605">
        <ele>215</ele>
        <time>2019-10-02T15:12:33Z</time>
      </trkpt>
      <trkpt lat="43.23107" lon="5.50613">
        <ele>216</ele>
        <time>2019-10-02T15:12:39Z</time>
      </trkpt>
      <trkpt lat="43.23106" lon="5.50619">
        <ele>215</ele>
        <time>2019-10-02T15:12:45Z</time>
      </trkpt>
      <trkpt lat="43.23104" lon="5.50625">
        <ele>215</ele>
        <time>2019-10-02T15:12:49Z</time>
      </trkpt>
      <trkpt lat="43.23102" lon="5.50634">
        <ele>214</ele>
        <time>2019-10-02T15:12:55Z</time>
      </trkpt>
      <trkpt lat="43.23098" lon="5.50639">
        <ele>216</ele>
        <time>2019-10-02T15:13:01Z</time>
      </trkpt>
      <trkpt lat="43.23092" lon="5.5064">
        <ele>216</ele>
        <time>2019-10-02T15:13:07Z</time>
      </trkpt>
      <trkpt lat="43.23088" lon="5.50638">
        <ele>216</ele>
        <time>2019-10-02T15:13:13Z</time>
      </trkpt>
      <trkpt lat="43.23084" lon="5.50633">
        <ele>215</ele>
        <time>2019-10-02T15:13:19Z</time>
      </trkpt>
      <trkpt lat="43.23081" lon="5.50626">
        <ele>215</ele>
        <time>2019-10-02T15:13:25Z</time>
      </trkpt>
      <trkpt lat="43.23079" lon="5.5062">
        <ele>216</ele>
        <time>2019-10-02T15:13:29Z</time>
      </trkpt>
      <trkpt lat="43.23074" lon="5.50614">
        <ele>213</ele>
        <time>2019-10-02T15:13:35Z</time>
      </trkpt>
      <trkpt lat="43.23069" lon="5.50612">
        <ele>210</ele>
        <time>2019-10-02T15:13:39Z</time>
      </trkpt>
      <trkpt lat="43.23065" lon="5.50609">
        <ele>210</ele>
        <time>2019-10-02T15:13:43Z</time>
      </trkpt>
      <trkpt lat="43.23059" lon="5.50607">
        <ele>210</ele>
        <time>2019-10-02T15:13:49Z</time>
      </trkpt>
      <trkpt lat="43.23053" lon="5.50608">
        <ele>211</ele>
        <time>2019-10-02T15:13:55Z</time>
      </trkpt>
      <trkpt lat="43.23049" lon="5.5061">
        <ele>210</ele>
        <time>2019-10-02T15:13:59Z</time>
      </trkpt>
      <trkpt lat="43.23043" lon="5.50613">
        <ele>210</ele>
        <time>2019-10-02T15:14:05Z</time>
      </trkpt>
      <trkpt lat="43.23038" lon="5.50616">
        <ele>211</ele>
        <time>2019-10-02T15:14:11Z</time>
      </trkpt>
      <trkpt lat="43.23033" lon="5.5062">
        <ele>210</ele>
        <time>2019-10-02T15:14:17Z</time>
      </trkpt>
      <trkpt lat="43.23028" lon="5.50624">
        <ele>209</ele>
        <time>2019-10-02T15:14:23Z</time>
      </trkpt>
      <trkpt lat="43.23024" lon="5.50629">
        <ele>209</ele>
        <time>2019-10-02T15:14:29Z</time>
      </trkpt>
      <trkpt lat="43.23025" lon="5.50637">
        <ele>212</ele>
        <time>2019-10-02T15:14:37Z</time>
      </trkpt>
      <trkpt lat="43.23029" lon="5.50642">
        <ele>210</ele>
        <time>2019-10-02T15:14:43Z</time>
      </trkpt>
      <trkpt lat="43.23034" lon="5.50646">
        <ele>209</ele>
        <time>2019-10-02T15:14:51Z</time>
      </trkpt>
      <trkpt lat="43.23038" lon="5.50648">
        <ele>211</ele>
        <time>2019-10-02T15:14:57Z</time>
      </trkpt>
      <trkpt lat="43.23044" lon="5.50651">
        <ele>212</ele>
        <time>2019-10-02T15:15:05Z</time>
      </trkpt>
      <trkpt lat="43.23048" lon="5.50656">
        <ele>213</ele>
        <time>2019-10-02T15:15:11Z</time>
      </trkpt>
      <trkpt lat="43.23051" lon="5.5066">
        <ele>214</ele>
        <time>2019-10-02T15:15:17Z</time>
      </trkpt>
      <trkpt lat="43.23055" lon="5.50665">
        <ele>217</ele>
        <time>2019-10-02T15:15:25Z</time>
      </trkpt>
      <trkpt lat="43.23057" lon="5.50671">
        <ele>216</ele>
        <time>2019-10-02T15:15:31Z</time>
      </trkpt>
      <trkpt lat="43.23059" lon="5.50678">
        <ele>214</ele>
        <time>2019-10-02T15:15:39Z</time>
      </trkpt>
      <trkpt lat="43.23059" lon="5.50684">
        <ele>214</ele>
        <time>2019-10-02T15:15:45Z</time>
      </trkpt>
      <trkpt lat="43.23061" lon="5.5069">
        <ele>212</ele>
        <time>2019-10-02T15:15:51Z</time>
      </trkpt>
      <trkpt lat="43.23064" lon="5.50696">
        <ele>212</ele>
        <time>2019-10-02T15:15:59Z</time>
      </trkpt>
      <trkpt lat="43.23068" lon="5.507">
        <ele>211</ele>
        <time>2019-10-02T15:16:05Z</time>
      </trkpt>
      <trkpt lat="43.23072" lon="5.50702">
        <ele>213</ele>
        <time>2019-10-02T15:16:11Z</time>
      </trkpt>
      <trkpt lat="43.23078" lon="5.50703">
        <ele>213</ele>
        <time>2019-10-02T15:16:17Z</time>
      </trkpt>
      <trkpt lat="43.23084" lon="5.50705">
        <ele>215</ele>
        <time>2019-10-02T15:16:23Z</time>
      </trkpt>
      <trkpt lat="43.2309" lon="5.50705">
        <ele>220</ele>
        <time>2019-10-02T15:16:31Z</time>
      </trkpt>
      <trkpt lat="43.23095" lon="5.50704">
        <ele>219</ele>
        <time>2019-10-02T15:16:37Z</time>
      </trkpt>
      <trkpt lat="43.23099" lon="5.50703">
        <ele>219</ele>
        <time>2019-10-02T15:16:45Z</time>
      </trkpt>
      <trkpt lat="43.23105" lon="5.50699">
        <ele>219</ele>
        <time>2019-10-02T15:16:51Z</time>
      </trkpt>
      <trkpt lat="43.2311" lon="5.50696">
        <ele>219</ele>
        <time>2019-10-02T15:16:57Z</time>
      </trkpt>
      <trkpt lat="43.23114" lon="5.50693">
        <ele>218</ele>
        <time>2019-10-02T15:17:03Z</time>
      </trkpt>
      <trkpt lat="43.23119" lon="5.5069">
        <ele>220</ele>
        <time>2019-10-02T15:17:09Z</time>
      </trkpt>
      <trkpt lat="43.23125" lon="5.50688">
        <ele>222</ele>
        <time>2019-10-02T15:17:19Z</time>
      </trkpt>
      <trkpt lat="43.23129" lon="5.50687">
        <ele>224</ele>
        <time>2019-10-02T15:17:25Z</time>
      </trkpt>
      <trkpt lat="43.23134" lon="5.50687">
        <ele>223</ele>
        <time>2019-10-02T15:17:29Z</time>
      </trkpt>
      <trkpt lat="43.23139" lon="5.50687">
        <ele>223</ele>
        <time>2019-10-02T15:17:37Z</time>
      </trkpt>
      <trkpt lat="43.23144" lon="5.50684">
        <ele>223</ele>
        <time>2019-10-02T15:17:45Z</time>
      </trkpt>
      <trkpt lat="43.23148" lon="5.50682">
        <ele>226</ele>
        <time>2019-10-02T15:17:53Z</time>
      </trkpt>
      <trkpt lat="43.23153" lon="5.50679">
        <ele>225</ele>
        <time>2019-10-02T15:17:59Z</time>
      </trkpt>
      <trkpt lat="43.23158" lon="5.50677">
        <ele>226</ele>
        <time>2019-10-02T15:18:05Z</time>
      </trkpt>
      <trkpt lat="43.23163" lon="5.50677">
        <ele>225</ele>
        <time>2019-10-02T15:18:11Z</time>
      </trkpt>
      <trkpt lat="43.23168" lon="5.50679">
        <ele>226</ele>
        <time>2019-10-02T15:18:19Z</time>
      </trkpt>
      <trkpt lat="43.23173" lon="5.50684">
        <ele>227</ele>
        <time>2019-10-02T15:18:27Z</time>
      </trkpt>
      <trkpt lat="43.23178" lon="5.50689">
        <ele>226</ele>
        <time>2019-10-02T15:18:35Z</time>
      </trkpt>
      <trkpt lat="43.23182" lon="5.50694">
        <ele>227</ele>
        <time>2019-10-02T15:18:41Z</time>
      </trkpt>
      <trkpt lat="43.23186" lon="5.50699">
        <ele>226</ele>
        <time>2019-10-02T15:18:47Z</time>
      </trkpt>
      <trkpt lat="43.2319" lon="5.50702">
        <ele>224</ele>
        <time>2019-10-02T15:18:51Z</time>
      </trkpt>
      <trkpt lat="43.23194" lon="5.50706">
        <ele>224</ele>
        <time>2019-10-02T15:18:57Z</time>
      </trkpt>
      <trkpt lat="43.23198" lon="5.5071">
        <ele>224</ele>
        <time>2019-10-02T15:19:03Z</time>
      </trkpt>
      <trkpt lat="43.23202" lon="5.50714">
        <ele>227</ele>
        <time>2019-10-02T15:19:13Z</time>
      </trkpt>
      <trkpt lat="43.23208" lon="5.50713">
        <ele>226</ele>
        <time>2019-10-02T15:19:19Z</time>
      </trkpt>
      <trkpt lat="43.23215" lon="5.50711">
        <ele>226</ele>
        <time>2019-10-02T15:19:23Z</time>
      </trkpt>
      <trkpt lat="43.2322" lon="5.50708">
        <ele>228</ele>
        <time>2019-10-02T15:19:29Z</time>
      </trkpt>
      <trkpt lat="43.23224" lon="5.50704">
        <ele>227</ele>
        <time>2019-10-02T15:19:35Z</time>
      </trkpt>
      <trkpt lat="43.2323" lon="5.50701">
        <ele>225</ele>
        <time>2019-10-02T15:19:41Z</time>
      </trkpt>
      <trkpt lat="43.23236" lon="5.50701">
        <ele>225</ele>
        <time>2019-10-02T15:19:47Z</time>
      </trkpt>
      <trkpt lat="43.23241" lon="5.50698">
        <ele>230</ele>
        <time>2019-10-02T15:19:53Z</time>
      </trkpt>
      <trkpt lat="43.23246" lon="5.50696">
        <ele>230</ele>
        <time>2019-10-02T15:19:59Z</time>
      </trkpt>
      <trkpt lat="43.23252" lon="5.50693">
        <ele>231</ele>
        <time>2019-10-02T15:20:05Z</time>
      </trkpt>
      <trkpt lat="43.23258" lon="5.50692">
        <ele>233</ele>
        <time>2019-10-02T15:20:13Z</time>
      </trkpt>
      <trkpt lat="43.23262" lon="5.50687">
        <ele>234</ele>
        <time>2019-10-02T15:20:21Z</time>
      </trkpt>
      <trkpt lat="43.23267" lon="5.5069">
        <ele>237</ele>
        <time>2019-10-02T15:20:35Z</time>
      </trkpt>
      <trkpt lat="43.23272" lon="5.50692">
        <ele>235</ele>
        <time>2019-10-02T15:20:41Z</time>
      </trkpt>
      <trkpt lat="43.23281" lon="5.50689">
        <ele>234</ele>
        <time>2019-10-02T15:20:49Z</time>
      </trkpt>
      <trkpt lat="43.23285" lon="5.50686">
        <ele>233</ele>
        <time>2019-10-02T15:20:55Z</time>
      </trkpt>
      <trkpt lat="43.23289" lon="5.5068">
        <ele>237</ele>
        <time>2019-10-02T15:21:03Z</time>
      </trkpt>
      <trkpt lat="43.23294" lon="5.50676">
        <ele>237</ele>
        <time>2019-10-02T15:21:11Z</time>
      </trkpt>
      <trkpt lat="43.23299" lon="5.5068">
        <ele>239</ele>
        <time>2019-10-02T15:21:19Z</time>
      </trkpt>
      <trkpt lat="43.23298" lon="5.50687">
        <ele>238</ele>
        <time>2019-10-02T15:21:33Z</time>
      </trkpt>
      <trkpt lat="43.23301" lon="5.50691">
        <ele>243</ele>
        <time>2019-10-02T15:21:47Z</time>
      </trkpt>
      <trkpt lat="43.23306" lon="5.50696">
        <ele>244</ele>
        <time>2019-10-02T15:21:55Z</time>
      </trkpt>
      <trkpt lat="43.23311" lon="5.50701">
        <ele>240</ele>
        <time>2019-10-02T15:22:05Z</time>
      </trkpt>
      <trkpt lat="43.23313" lon="5.50708">
        <ele>243</ele>
        <time>2019-10-02T15:22:13Z</time>
      </trkpt>
      <trkpt lat="43.23317" lon="5.50713">
        <ele>244</ele>
        <time>2019-10-02T15:22:19Z</time>
      </trkpt>
      <trkpt lat="43.23319" lon="5.50718">
        <ele>244</ele>
        <time>2019-10-02T15:22:25Z</time>
      </trkpt>
      <trkpt lat="43.23322" lon="5.50726">
        <ele>245</ele>
        <time>2019-10-02T15:22:33Z</time>
      </trkpt>
      <trkpt lat="43.23327" lon="5.50729">
        <ele>247</ele>
        <time>2019-10-02T15:22:39Z</time>
      </trkpt>
      <trkpt lat="43.23331" lon="5.50733">
        <ele>248</ele>
        <time>2019-10-02T15:22:43Z</time>
      </trkpt>
      <trkpt lat="43.23333" lon="5.50739">
        <ele>253</ele>
        <time>2019-10-02T15:22:51Z</time>
      </trkpt>
      <trkpt lat="43.23335" lon="5.50746">
        <ele>252</ele>
        <time>2019-10-02T15:22:57Z</time>
      </trkpt>
      <trkpt lat="43.23338" lon="5.50752">
        <ele>249</ele>
        <time>2019-10-02T15:23:05Z</time>
      </trkpt>
      <trkpt lat="43.2334" lon="5.50758">
        <ele>245</ele>
        <time>2019-10-02T15:23:11Z</time>
      </trkpt>
      <trkpt lat="43.23338" lon="5.50764">
        <ele>245</ele>
        <time>2019-10-02T15:23:19Z</time>
      </trkpt>
      <trkpt lat="43.23333" lon="5.50763">
        <ele>246</ele>
        <time>2019-10-02T15:23:41Z</time>
      </trkpt>
      <trkpt lat="43.2333" lon="5.50758">
        <ele>247</ele>
        <time>2019-10-02T15:23:51Z</time>
      </trkpt>
      <trkpt lat="43.23329" lon="5.50752">
        <ele>246</ele>
        <time>2019-10-02T15:23:59Z</time>
      </trkpt>
      <trkpt lat="43.23325" lon="5.50747">
        <ele>247</ele>
        <time>2019-10-02T15:24:07Z</time>
      </trkpt>
      <trkpt lat="43.23324" lon="5.50755">
        <ele>246</ele>
        <time>2019-10-02T15:24:15Z</time>
      </trkpt>
      <trkpt lat="43.23326" lon="5.50761">
        <ele>248</ele>
        <time>2019-10-02T15:24:21Z</time>
      </trkpt>
      <trkpt lat="43.23327" lon="5.50768">
        <ele>248</ele>
        <time>2019-10-02T15:24:27Z</time>
      </trkpt>
      <trkpt lat="43.23328" lon="5.50775">
        <ele>250</ele>
        <time>2019-10-02T15:24:33Z</time>
      </trkpt>
      <trkpt lat="43.23328" lon="5.50782">
        <ele>251</ele>
        <time>2019-10-02T15:24:39Z</time>
      </trkpt>
      <trkpt lat="43.23329" lon="5.50788">
        <ele>250</ele>
        <time>2019-10-02T15:24:47Z</time>
      </trkpt>
      <trkpt lat="43.2333" lon="5.50795">
        <ele>252</ele>
        <time>2019-10-02T15:24:55Z</time>
      </trkpt>
      <trkpt lat="43.23333" lon="5.50801">
        <ele>255</ele>
        <time>2019-10-02T15:25:03Z</time>
      </trkpt>
      <trkpt lat="43.23336" lon="5.50807">
        <ele>257</ele>
        <time>2019-10-02T15:25:09Z</time>
      </trkpt>
      <trkpt lat="43.23338" lon="5.50812">
        <ele>257</ele>
        <time>2019-10-02T15:25:15Z</time>
      </trkpt>
      <trkpt lat="43.23341" lon="5.50819">
        <ele>259</ele>
        <time>2019-10-02T15:25:21Z</time>
      </trkpt>
      <trkpt lat="43.23343" lon="5.50824">
        <ele>259</ele>
        <time>2019-10-02T15:25:27Z</time>
      </trkpt>
      <trkpt lat="43.23348" lon="5.5083">
        <ele>259</ele>
        <time>2019-10-02T15:25:35Z</time>
      </trkpt>
      <trkpt lat="43.23351" lon="5.50835">
        <ele>262</ele>
        <time>2019-10-02T15:25:43Z</time>
      </trkpt>
      <trkpt lat="43.23356" lon="5.50841">
        <ele>263</ele>
        <time>2019-10-02T15:25:51Z</time>
      </trkpt>
      <trkpt lat="43.2336" lon="5.50845">
        <ele>264</ele>
        <time>2019-10-02T15:25:59Z</time>
      </trkpt>
      <trkpt lat="43.23364" lon="5.50848">
        <ele>264</ele>
        <time>2019-10-02T15:26:07Z</time>
      </trkpt>
      <trkpt lat="43.23369" lon="5.50851">
        <ele>262</ele>
        <time>2019-10-02T15:26:13Z</time>
      </trkpt>
      <trkpt lat="43.23372" lon="5.50857">
        <ele>264</ele>
        <time>2019-10-02T15:26:25Z</time>
      </trkpt>
      <trkpt lat="43.23373" lon="5.50863">
        <ele>264</ele>
        <time>2019-10-02T15:26:51Z</time>
      </trkpt>
      <trkpt lat="43.23374" lon="5.50871">
        <ele>267</ele>
        <time>2019-10-02T15:26:57Z</time>
      </trkpt>
      <trkpt lat="43.23376" lon="5.50876">
        <ele>267</ele>
        <time>2019-10-02T15:27:03Z</time>
      </trkpt>
      <trkpt lat="43.23378" lon="5.50882">
        <ele>269</ele>
        <time>2019-10-02T15:27:09Z</time>
      </trkpt>
      <trkpt lat="43.2338" lon="5.50888">
        <ele>270</ele>
        <time>2019-10-02T15:27:15Z</time>
      </trkpt>
      <trkpt lat="43.23383" lon="5.50896">
        <ele>271</ele>
        <time>2019-10-02T15:27:23Z</time>
      </trkpt>
      <trkpt lat="43.23386" lon="5.50902">
        <ele>270</ele>
        <time>2019-10-02T15:27:29Z</time>
      </trkpt>
      <trkpt lat="43.23387" lon="5.50908">
        <ele>269</ele>
        <time>2019-10-02T15:27:37Z</time>
      </trkpt>
      <trkpt lat="43.2339" lon="5.50914">
        <ele>270</ele>
        <time>2019-10-02T15:27:47Z</time>
      </trkpt>
      <trkpt lat="43.23393" lon="5.50918">
        <ele>270</ele>
        <time>2019-10-02T15:28:05Z</time>
      </trkpt>
      <trkpt lat="43.23398" lon="5.50922">
        <ele>269</ele>
        <time>2019-10-02T15:28:15Z</time>
      </trkpt>
      <trkpt lat="43.23401" lon="5.50927">
        <ele>270</ele>
        <time>2019-10-02T15:28:21Z</time>
      </trkpt>
      <trkpt lat="43.23404" lon="5.50933">
        <ele>269</ele>
        <time>2019-10-02T15:28:27Z</time>
      </trkpt>
      <trkpt lat="43.23409" lon="5.50937">
        <ele>270</ele>
        <time>2019-10-02T15:28:37Z</time>
      </trkpt>
      <trkpt lat="43.23412" lon="5.50943">
        <ele>270</ele>
        <time>2019-10-02T15:28:43Z</time>
      </trkpt>
      <trkpt lat="43.23414" lon="5.50949">
        <ele>270</ele>
        <time>2019-10-02T15:28:49Z</time>
      </trkpt>
      <trkpt lat="43.23419" lon="5.50956">
        <ele>270</ele>
        <time>2019-10-02T15:28:55Z</time>
      </trkpt>
      <trkpt lat="43.23423" lon="5.50962">
        <ele>269</ele>
        <time>2019-10-02T15:29:01Z</time>
      </trkpt>
      <trkpt lat="43.23426" lon="5.50969">
        <ele>270</ele>
        <time>2019-10-02T15:29:07Z</time>
      </trkpt>
      <trkpt lat="43.23429" lon="5.50974">
        <ele>270</ele>
        <time>2019-10-02T15:29:13Z</time>
      </trkpt>
      <trkpt lat="43.23432" lon="5.5098">
        <ele>269</ele>
        <time>2019-10-02T15:29:19Z</time>
      </trkpt>
      <trkpt lat="43.23436" lon="5.50986">
        <ele>270</ele>
        <time>2019-10-02T15:29:25Z</time>
      </trkpt>
      <trkpt lat="43.23439" lon="5.50991">
        <ele>269</ele>
        <time>2019-10-02T15:29:29Z</time>
      </trkpt>
      <trkpt lat="43.23442" lon="5.50998">
        <ele>270</ele>
        <time>2019-10-02T15:29:35Z</time>
      </trkpt>
      <trkpt lat="43.23446" lon="5.51005">
        <ele>271</ele>
        <time>2019-10-02T15:29:41Z</time>
      </trkpt>
      <trkpt lat="43.2345" lon="5.51012">
        <ele>271</ele>
        <time>2019-10-02T15:29:47Z</time>
      </trkpt>
      <trkpt lat="43.23454" lon="5.51017">
        <ele>270</ele>
        <time>2019-10-02T15:29:53Z</time>
      </trkpt>
      <trkpt lat="43.23456" lon="5.51025">
        <ele>270</ele>
        <time>2019-10-02T15:29:59Z</time>
      </trkpt>
      <trkpt lat="43.23456" lon="5.51033">
        <ele>270</ele>
        <time>2019-10-02T15:30:05Z</time>
      </trkpt>
      <trkpt lat="43.23454" lon="5.51041">
        <ele>268</ele>
        <time>2019-10-02T15:30:11Z</time>
      </trkpt>
      <trkpt lat="43.23451" lon="5.51046">
        <ele>269</ele>
        <time>2019-10-02T15:30:15Z</time>
      </trkpt>
      <trkpt lat="43.2345" lon="5.51052">
        <ele>269</ele>
        <time>2019-10-02T15:30:19Z</time>
      </trkpt>
      <trkpt lat="43.23448" lon="5.5106">
        <ele>269</ele>
        <time>2019-10-02T15:30:25Z</time>
      </trkpt>
      <trkpt lat="43.23447" lon="5.51068">
        <ele>269</ele>
        <time>2019-10-02T15:30:31Z</time>
      </trkpt>
      <trkpt lat="43.23445" lon="5.51074">
        <ele>270</ele>
        <time>2019-10-02T15:30:35Z</time>
      </trkpt>
      <trkpt lat="43.23444" lon="5.51081">
        <ele>271</ele>
        <time>2019-10-02T15:30:39Z</time>
      </trkpt>
      <trkpt lat="43.23441" lon="5.51089">
        <ele>272</ele>
        <time>2019-10-02T15:30:45Z</time>
      </trkpt>
      <trkpt lat="43.23439" lon="5.51095">
        <ele>273</ele>
        <time>2019-10-02T15:30:49Z</time>
      </trkpt>
      <trkpt lat="43.23437" lon="5.51103">
        <ele>273</ele>
        <time>2019-10-02T15:30:55Z</time>
      </trkpt>
      <trkpt lat="43.23434" lon="5.51112">
        <ele>273</ele>
        <time>2019-10-02T15:31:01Z</time>
      </trkpt>
      <trkpt lat="43.2343" lon="5.51118">
        <ele>273</ele>
        <time>2019-10-02T15:31:07Z</time>
      </trkpt>
      <trkpt lat="43.23427" lon="5.51126">
        <ele>273</ele>
        <time>2019-10-02T15:31:13Z</time>
      </trkpt>
      <trkpt lat="43.23425" lon="5.51133">
        <ele>273</ele>
        <time>2019-10-02T15:31:19Z</time>
      </trkpt>
      <trkpt lat="43.23421" lon="5.5114">
        <ele>274</ele>
        <time>2019-10-02T15:31:25Z</time>
      </trkpt>
      <trkpt lat="43.23417" lon="5.51148">
        <ele>274</ele>
        <time>2019-10-02T15:31:31Z</time>
      </trkpt>
      <trkpt lat="43.23416" lon="5.51154">
        <ele>274</ele>
        <time>2019-10-02T15:31:35Z</time>
      </trkpt>
      <trkpt lat="43.23415" lon="5.5116">
        <ele>275</ele>
        <time>2019-10-02T15:31:39Z</time>
      </trkpt>
      <trkpt lat="43.23414" lon="5.51167">
        <ele>275</ele>
        <time>2019-10-02T15:31:43Z</time>
      </trkpt>
      <trkpt lat="43.23412" lon="5.51174">
        <ele>275</ele>
        <time>2019-10-02T15:31:49Z</time>
      </trkpt>
      <trkpt lat="43.23411" lon="5.51183">
        <ele>276</ele>
        <time>2019-10-02T15:31:55Z</time>
      </trkpt>
      <trkpt lat="43.2341" lon="5.51191">
        <ele>276</ele>
        <time>2019-10-02T15:32:01Z</time>
      </trkpt>
      <trkpt lat="43.23408" lon="5.51199">
        <ele>277</ele>
        <time>2019-10-02T15:32:07Z</time>
      </trkpt>
      <trkpt lat="43.23406" lon="5.51206">
        <ele>276</ele>
        <time>2019-10-02T15:32:13Z</time>
      </trkpt>
      <trkpt lat="43.23404" lon="5.51214">
        <ele>275</ele>
        <time>2019-10-02T15:32:19Z</time>
      </trkpt>
      <trkpt lat="43.23402" lon="5.51221">
        <ele>275</ele>
        <time>2019-10-02T15:32:25Z</time>
      </trkpt>
      <trkpt lat="43.23401" lon="5.51227">
        <ele>276</ele>
        <time>2019-10-02T15:32:29Z</time>
      </trkpt>
      <trkpt lat="43.234" lon="5.51234">
        <ele>276</ele>
        <time>2019-10-02T15:32:33Z</time>
      </trkpt>
      <trkpt lat="43.23399" lon="5.51242">
        <ele>277</ele>
        <time>2019-10-02T15:32:39Z</time>
      </trkpt>
      <trkpt lat="43.23398" lon="5.5125">
        <ele>276</ele>
        <time>2019-10-02T15:32:45Z</time>
      </trkpt>
      <trkpt lat="43.23394" lon="5.51257">
        <ele>276</ele>
        <time>2019-10-02T15:32:51Z</time>
      </trkpt>
      <trkpt lat="43.23392" lon="5.51262">
        <ele>277</ele>
        <time>2019-10-02T15:32:55Z</time>
      </trkpt>
      <trkpt lat="43.23387" lon="5.51269">
        <ele>277</ele>
        <time>2019-10-02T15:33:01Z</time>
      </trkpt>
      <trkpt lat="43.23385" lon="5.51274">
        <ele>278</ele>
        <time>2019-10-02T15:33:05Z</time>
      </trkpt>
      <trkpt lat="43.23382" lon="5.51281">
        <ele>277</ele>
        <time>2019-10-02T15:33:11Z</time>
      </trkpt>
      <trkpt lat="43.23378" lon="5.51286">
        <ele>276</ele>
        <time>2019-10-02T15:33:17Z</time>
      </trkpt>
      <trkpt lat="43.23375" lon="5.51293">
        <ele>275</ele>
        <time>2019-10-02T15:33:23Z</time>
      </trkpt>
      <trkpt lat="43.2337" lon="5.51299">
        <ele>274</ele>
        <time>2019-10-02T15:33:29Z</time>
      </trkpt>
      <trkpt lat="43.23368" lon="5.51304">
        <ele>274</ele>
        <time>2019-10-02T15:33:33Z</time>
      </trkpt>
      <trkpt lat="43.23363" lon="5.51311">
        <ele>275</ele>
        <time>2019-10-02T15:33:39Z</time>
      </trkpt>
      <trkpt lat="43.2336" lon="5.51317">
        <ele>274</ele>
        <time>2019-10-02T15:33:45Z</time>
      </trkpt>
      <trkpt lat="43.23357" lon="5.51323">
        <ele>276</ele>
        <time>2019-10-02T15:33:51Z</time>
      </trkpt>
      <trkpt lat="43.23355" lon="5.51331">
        <ele>275</ele>
        <time>2019-10-02T15:33:57Z</time>
      </trkpt>
      <trkpt lat="43.23351" lon="5.51336">
        <ele>277</ele>
        <time>2019-10-02T15:34:03Z</time>
      </trkpt>
      <trkpt lat="43.23345" lon="5.51339">
        <ele>277</ele>
        <time>2019-10-02T15:34:09Z</time>
      </trkpt>
      <trkpt lat="43.23339" lon="5.51342">
        <ele>277</ele>
        <time>2019-10-02T15:34:15Z</time>
      </trkpt>
      <trkpt lat="43.23334" lon="5.51347">
        <ele>277</ele>
        <time>2019-10-02T15:34:21Z</time>
      </trkpt>
      <trkpt lat="43.2333" lon="5.51352">
        <ele>278</ele>
        <time>2019-10-02T15:34:27Z</time>
      </trkpt>
      <trkpt lat="43.23324" lon="5.51353">
        <ele>278</ele>
        <time>2019-10-02T15:34:33Z</time>
      </trkpt>
      <trkpt lat="43.23319" lon="5.51353">
        <ele>279</ele>
        <time>2019-10-02T15:34:39Z</time>
      </trkpt>
      <trkpt lat="43.23316" lon="5.51358">
        <ele>279</ele>
        <time>2019-10-02T15:35:27Z</time>
      </trkpt>
    </trkseg>
  </trk>
</gpx>